<?xml version="1.0" encoding="UTF-8" standalone="no" ?>
<gpx xmlns="http://www.topografix.com/GPX/1/1" xmlns:xsi="http://www.w3.org/2001/XMLSchema-instance" xsi:schemaLocation="http://www.topografix.com/GPX/1/1 http://www.topografix.com/GPX/1/1/gpx.xsd" version="1.1" creator="VisuGPX - https://www.visugpx.com">
  <metadata>
    <name>Les Chemins du Soleil Sud (6/6)</name>
    <desc><![CDATA[Les Chemins du Soleil Sud ou la traversée des préAlpes du Sud (Bézaudun - Nice)]]></desc>
  </metadata>
  <trk>
    <name><![CDATA[gtpas6 Bezaudin Nice]]></name>
    <trkseg>
      <trkpt lat="43.80675" lon="7.0962">
        <ele>885</ele>
        <time>2009-07-10T08:15:49Z</time>
      </trkpt>
      <trkpt lat="43.80633" lon="7.0961">
        <ele>883</ele>
        <time>2009-07-10T08:15:57Z</time>
      </trkpt>
      <trkpt lat="43.80608" lon="7.09612">
        <ele>882</ele>
        <time>2009-07-10T08:16:01Z</time>
      </trkpt>
      <trkpt lat="43.80595" lon="7.09617">
        <ele>881</ele>
        <time>2009-07-10T08:16:03Z</time>
      </trkpt>
      <trkpt lat="43.8057" lon="7.0963">
        <ele>880</ele>
        <time>2009-07-10T08:16:07Z</time>
      </trkpt>
      <trkpt lat="43.8056" lon="7.09632">
        <ele>879</ele>
        <time>2009-07-10T08:16:09Z</time>
      </trkpt>
      <trkpt lat="43.8055" lon="7.09638">
        <ele>878</ele>
        <time>2009-07-10T08:16:11Z</time>
      </trkpt>
      <trkpt lat="43.80538" lon="7.09645">
        <ele>878</ele>
        <time>2009-07-10T08:16:13Z</time>
      </trkpt>
      <trkpt lat="43.80505" lon="7.09675">
        <ele>875</ele>
        <time>2009-07-10T08:16:20Z</time>
      </trkpt>
      <trkpt lat="43.80492" lon="7.09685">
        <ele>874</ele>
        <time>2009-07-10T08:16:23Z</time>
      </trkpt>
      <trkpt lat="43.8048" lon="7.09742">
        <ele>873</ele>
        <time>2009-07-10T08:16:30Z</time>
      </trkpt>
      <trkpt lat="43.80485" lon="7.0978">
        <ele>871</ele>
        <time>2009-07-10T08:16:34Z</time>
      </trkpt>
      <trkpt lat="43.80483" lon="7.09815">
        <ele>870</ele>
        <time>2009-07-10T08:16:38Z</time>
      </trkpt>
      <trkpt lat="43.80482" lon="7.09877">
        <ele>867</ele>
        <time>2009-07-10T08:16:46Z</time>
      </trkpt>
      <trkpt lat="43.8048" lon="7.09917">
        <ele>866</ele>
        <time>2009-07-10T08:16:51Z</time>
      </trkpt>
      <trkpt lat="43.80462" lon="7.09943">
        <ele>864</ele>
        <time>2009-07-10T08:16:55Z</time>
      </trkpt>
      <trkpt lat="43.80447" lon="7.09962">
        <ele>863</ele>
        <time>2009-07-10T08:16:58Z</time>
      </trkpt>
      <trkpt lat="43.80395" lon="7.1003">
        <ele>859</ele>
        <time>2009-07-10T08:17:07Z</time>
      </trkpt>
      <trkpt lat="43.80382" lon="7.10043">
        <ele>859</ele>
        <time>2009-07-10T08:17:09Z</time>
      </trkpt>
      <trkpt lat="43.80347" lon="7.10075">
        <ele>856</ele>
        <time>2009-07-10T08:17:14Z</time>
      </trkpt>
      <trkpt lat="43.80322" lon="7.10103">
        <ele>854</ele>
        <time>2009-07-10T08:17:18Z</time>
      </trkpt>
      <trkpt lat="43.80293" lon="7.10125">
        <ele>852</ele>
        <time>2009-07-10T08:17:22Z</time>
      </trkpt>
      <trkpt lat="43.80265" lon="7.10137">
        <ele>851</ele>
        <time>2009-07-10T08:17:26Z</time>
      </trkpt>
      <trkpt lat="43.80235" lon="7.10137">
        <ele>853</ele>
        <time>2009-07-10T08:17:32Z</time>
      </trkpt>
      <trkpt lat="43.80187" lon="7.10157">
        <ele>855</ele>
        <time>2009-07-10T08:17:48Z</time>
      </trkpt>
      <trkpt lat="43.80152" lon="7.10155">
        <ele>856</ele>
        <time>2009-07-10T08:18:00Z</time>
      </trkpt>
      <trkpt lat="43.80113" lon="7.10137">
        <ele>859</ele>
        <time>2009-07-10T08:18:15Z</time>
      </trkpt>
      <trkpt lat="43.8009" lon="7.10103">
        <ele>861</ele>
        <time>2009-07-10T08:18:28Z</time>
      </trkpt>
      <trkpt lat="43.80077" lon="7.10057">
        <ele>862</ele>
        <time>2009-07-10T08:18:41Z</time>
      </trkpt>
      <trkpt lat="43.80063" lon="7.10005">
        <ele>863</ele>
        <time>2009-07-10T08:18:55Z</time>
      </trkpt>
      <trkpt lat="43.80053" lon="7.09963">
        <ele>865</ele>
        <time>2009-07-10T08:19:06Z</time>
      </trkpt>
      <trkpt lat="43.80038" lon="7.09915">
        <ele>867</ele>
        <time>2009-07-10T08:19:19Z</time>
      </trkpt>
      <trkpt lat="43.80037" lon="7.09855">
        <ele>869</ele>
        <time>2009-07-10T08:19:34Z</time>
      </trkpt>
      <trkpt lat="43.80022" lon="7.09803">
        <ele>871</ele>
        <time>2009-07-10T08:19:50Z</time>
      </trkpt>
      <trkpt lat="43.80012" lon="7.09752">
        <ele>873</ele>
        <time>2009-07-10T08:20:05Z</time>
      </trkpt>
      <trkpt lat="43.80028" lon="7.09695">
        <ele>875</ele>
        <time>2009-07-10T08:20:22Z</time>
      </trkpt>
      <trkpt lat="43.80035" lon="7.09637">
        <ele>876</ele>
        <time>2009-07-10T08:20:37Z</time>
      </trkpt>
      <trkpt lat="43.80053" lon="7.09585">
        <ele>878</ele>
        <time>2009-07-10T08:20:52Z</time>
      </trkpt>
      <trkpt lat="43.80077" lon="7.09557">
        <ele>880</ele>
        <time>2009-07-10T08:21:04Z</time>
      </trkpt>
      <trkpt lat="43.80108" lon="7.09512">
        <ele>881</ele>
        <time>2009-07-10T08:21:20Z</time>
      </trkpt>
      <trkpt lat="43.80127" lon="7.09445">
        <ele>883</ele>
        <time>2009-07-10T08:21:38Z</time>
      </trkpt>
      <trkpt lat="43.80133" lon="7.09385">
        <ele>884</ele>
        <time>2009-07-10T08:21:52Z</time>
      </trkpt>
      <trkpt lat="43.80108" lon="7.09362">
        <ele>885</ele>
        <time>2009-07-10T08:22:02Z</time>
      </trkpt>
      <trkpt lat="43.8009" lon="7.09398">
        <ele>886</ele>
        <time>2009-07-10T08:22:13Z</time>
      </trkpt>
      <trkpt lat="43.80072" lon="7.0946">
        <ele>888</ele>
        <time>2009-07-10T08:22:29Z</time>
      </trkpt>
      <trkpt lat="43.8007" lon="7.09462">
        <ele>889</ele>
        <time>2009-07-10T08:22:30Z</time>
      </trkpt>
      <trkpt lat="43.80065" lon="7.0947">
        <ele>889</ele>
        <time>2009-07-10T08:22:34Z</time>
      </trkpt>
      <trkpt lat="43.80043" lon="7.09507">
        <ele>892</ele>
        <time>2009-07-10T08:22:50Z</time>
      </trkpt>
      <trkpt lat="43.80018" lon="7.09528">
        <ele>895</ele>
        <time>2009-07-10T08:23:05Z</time>
      </trkpt>
      <trkpt lat="43.79995" lon="7.09557">
        <ele>895</ele>
        <time>2009-07-10T08:23:18Z</time>
      </trkpt>
      <trkpt lat="43.7999" lon="7.09572">
        <ele>895</ele>
        <time>2009-07-10T08:23:23Z</time>
      </trkpt>
      <trkpt lat="43.79982" lon="7.09627">
        <ele>895</ele>
        <time>2009-07-10T08:23:40Z</time>
      </trkpt>
      <trkpt lat="43.79973" lon="7.09695">
        <ele>896</ele>
        <time>2009-07-10T08:23:58Z</time>
      </trkpt>
      <trkpt lat="43.79957" lon="7.09752">
        <ele>896</ele>
        <time>2009-07-10T08:24:13Z</time>
      </trkpt>
      <trkpt lat="43.79952" lon="7.09798">
        <ele>896</ele>
        <time>2009-07-10T08:24:25Z</time>
      </trkpt>
      <trkpt lat="43.79947" lon="7.0987">
        <ele>896</ele>
        <time>2009-07-10T08:24:40Z</time>
      </trkpt>
      <trkpt lat="43.79955" lon="7.09945">
        <ele>897</ele>
        <time>2009-07-10T08:24:55Z</time>
      </trkpt>
      <trkpt lat="43.79973" lon="7.10047">
        <ele>897</ele>
        <time>2009-07-10T08:25:13Z</time>
      </trkpt>
      <trkpt lat="43.7999" lon="7.10148">
        <ele>898</ele>
        <time>2009-07-10T08:25:32Z</time>
      </trkpt>
      <trkpt lat="43.8" lon="7.10227">
        <ele>898</ele>
        <time>2009-07-10T08:25:46Z</time>
      </trkpt>
      <trkpt lat="43.8001" lon="7.10313">
        <ele>898</ele>
        <time>2009-07-10T08:26:01Z</time>
      </trkpt>
      <trkpt lat="43.80008" lon="7.10327">
        <ele>898</ele>
        <time>2009-07-10T08:26:03Z</time>
      </trkpt>
      <trkpt lat="43.79987" lon="7.1036">
        <ele>898</ele>
        <time>2009-07-10T08:26:11Z</time>
      </trkpt>
      <trkpt lat="43.79925" lon="7.10377">
        <ele>899</ele>
        <time>2009-07-10T08:26:28Z</time>
      </trkpt>
      <trkpt lat="43.7991" lon="7.10382">
        <ele>899</ele>
        <time>2009-07-10T08:26:34Z</time>
      </trkpt>
      <trkpt lat="43.79915" lon="7.10408">
        <ele>899</ele>
        <time>2009-07-10T08:26:43Z</time>
      </trkpt>
      <trkpt lat="43.79943" lon="7.10428">
        <ele>899</ele>
        <time>2009-07-10T08:26:52Z</time>
      </trkpt>
      <trkpt lat="43.79992" lon="7.10493">
        <ele>899</ele>
        <time>2009-07-10T08:27:09Z</time>
      </trkpt>
      <trkpt lat="43.79992" lon="7.10498">
        <ele>899</ele>
        <time>2009-07-10T08:27:10Z</time>
      </trkpt>
      <trkpt lat="43.79995" lon="7.10583">
        <ele>899</ele>
        <time>2009-07-10T08:27:25Z</time>
      </trkpt>
      <trkpt lat="43.79995" lon="7.1061">
        <ele>899</ele>
        <time>2009-07-10T08:27:30Z</time>
      </trkpt>
      <trkpt lat="43.79993" lon="7.10678">
        <ele>900</ele>
        <time>2009-07-10T08:27:42Z</time>
      </trkpt>
      <trkpt lat="43.80002" lon="7.10768">
        <ele>900</ele>
        <time>2009-07-10T08:27:57Z</time>
      </trkpt>
      <trkpt lat="43.8001" lon="7.10863">
        <ele>901</ele>
        <time>2009-07-10T08:28:13Z</time>
      </trkpt>
      <trkpt lat="43.80015" lon="7.10925">
        <ele>901</ele>
        <time>2009-07-10T08:28:25Z</time>
      </trkpt>
      <trkpt lat="43.8002" lon="7.11017">
        <ele>902</ele>
        <time>2009-07-10T08:28:42Z</time>
      </trkpt>
      <trkpt lat="43.80027" lon="7.11087">
        <ele>903</ele>
        <time>2009-07-10T08:28:55Z</time>
      </trkpt>
      <trkpt lat="43.8004" lon="7.11175">
        <ele>903</ele>
        <time>2009-07-10T08:29:12Z</time>
      </trkpt>
      <trkpt lat="43.80057" lon="7.1125">
        <ele>903</ele>
        <time>2009-07-10T08:29:27Z</time>
      </trkpt>
      <trkpt lat="43.80078" lon="7.113">
        <ele>904</ele>
        <time>2009-07-10T08:29:41Z</time>
      </trkpt>
      <trkpt lat="43.80073" lon="7.11307">
        <ele>904</ele>
        <time>2009-07-10T08:29:45Z</time>
      </trkpt>
      <trkpt lat="43.80052" lon="7.11338">
        <ele>906</ele>
        <time>2009-07-10T08:30:00Z</time>
      </trkpt>
      <trkpt lat="43.8004" lon="7.11362">
        <ele>909</ele>
        <time>2009-07-10T08:30:12Z</time>
      </trkpt>
      <trkpt lat="43.80027" lon="7.1138">
        <ele>912</ele>
        <time>2009-07-10T08:30:26Z</time>
      </trkpt>
      <trkpt lat="43.80022" lon="7.11387">
        <ele>913</ele>
        <time>2009-07-10T08:30:31Z</time>
      </trkpt>
      <trkpt lat="43.80003" lon="7.11407">
        <ele>916</ele>
        <time>2009-07-10T08:30:47Z</time>
      </trkpt>
      <trkpt lat="43.79988" lon="7.11417">
        <ele>919</ele>
        <time>2009-07-10T08:30:58Z</time>
      </trkpt>
      <trkpt lat="43.79987" lon="7.11417">
        <ele>919</ele>
        <time>2009-07-10T08:30:59Z</time>
      </trkpt>
      <trkpt lat="43.79975" lon="7.11428">
        <ele>921</ele>
        <time>2009-07-10T08:31:12Z</time>
      </trkpt>
      <trkpt lat="43.79955" lon="7.11438">
        <ele>923</ele>
        <time>2009-07-10T08:31:25Z</time>
      </trkpt>
      <trkpt lat="43.79938" lon="7.11447">
        <ele>924</ele>
        <time>2009-07-10T08:31:38Z</time>
      </trkpt>
      <trkpt lat="43.79917" lon="7.11458">
        <ele>926</ele>
        <time>2009-07-10T08:31:54Z</time>
      </trkpt>
      <trkpt lat="43.79898" lon="7.11467">
        <ele>928</ele>
        <time>2009-07-10T08:32:07Z</time>
      </trkpt>
      <trkpt lat="43.79878" lon="7.1147">
        <ele>930</ele>
        <time>2009-07-10T08:32:22Z</time>
      </trkpt>
      <trkpt lat="43.79872" lon="7.11477">
        <ele>931</ele>
        <time>2009-07-10T08:32:26Z</time>
      </trkpt>
      <trkpt lat="43.79863" lon="7.1148">
        <ele>931</ele>
        <time>2009-07-10T08:32:30Z</time>
      </trkpt>
      <trkpt lat="43.79837" lon="7.11483">
        <ele>932</ele>
        <time>2009-07-10T08:32:48Z</time>
      </trkpt>
      <trkpt lat="43.79815" lon="7.11487">
        <ele>934</ele>
        <time>2009-07-10T08:33:02Z</time>
      </trkpt>
      <trkpt lat="43.79793" lon="7.11497">
        <ele>936</ele>
        <time>2009-07-10T08:33:16Z</time>
      </trkpt>
      <trkpt lat="43.79775" lon="7.11502">
        <ele>938</ele>
        <time>2009-07-10T08:33:27Z</time>
      </trkpt>
      <trkpt lat="43.79775" lon="7.11505">
        <ele>939</ele>
        <time>2009-07-10T08:33:29Z</time>
      </trkpt>
      <trkpt lat="43.7978" lon="7.11512">
        <ele>939</ele>
        <time>2009-07-10T08:33:34Z</time>
      </trkpt>
      <trkpt lat="43.79792" lon="7.11523">
        <ele>941</ele>
        <time>2009-07-10T08:33:43Z</time>
      </trkpt>
      <trkpt lat="43.79787" lon="7.11528">
        <ele>942</ele>
        <time>2009-07-10T08:33:49Z</time>
      </trkpt>
      <trkpt lat="43.79765" lon="7.11518">
        <ele>943</ele>
        <time>2009-07-10T08:34:03Z</time>
      </trkpt>
      <trkpt lat="43.79743" lon="7.11513">
        <ele>945</ele>
        <time>2009-07-10T08:34:17Z</time>
      </trkpt>
      <trkpt lat="43.7972" lon="7.11507">
        <ele>947</ele>
        <time>2009-07-10T08:34:33Z</time>
      </trkpt>
      <trkpt lat="43.79705" lon="7.11502">
        <ele>948</ele>
        <time>2009-07-10T08:34:43Z</time>
      </trkpt>
      <trkpt lat="43.79698" lon="7.11502">
        <ele>949</ele>
        <time>2009-07-10T08:34:48Z</time>
      </trkpt>
      <trkpt lat="43.79678" lon="7.11493">
        <ele>951</ele>
        <time>2009-07-10T08:35:03Z</time>
      </trkpt>
      <trkpt lat="43.7966" lon="7.11487">
        <ele>954</ele>
        <time>2009-07-10T08:35:16Z</time>
      </trkpt>
      <trkpt lat="43.79652" lon="7.1148">
        <ele>955</ele>
        <time>2009-07-10T08:35:23Z</time>
      </trkpt>
      <trkpt lat="43.79633" lon="7.11477">
        <ele>957</ele>
        <time>2009-07-10T08:35:36Z</time>
      </trkpt>
      <trkpt lat="43.79627" lon="7.11475">
        <ele>958</ele>
        <time>2009-07-10T08:35:41Z</time>
      </trkpt>
      <trkpt lat="43.79623" lon="7.11472">
        <ele>958</ele>
        <time>2009-07-10T08:35:44Z</time>
      </trkpt>
      <trkpt lat="43.7962" lon="7.11473">
        <ele>959</ele>
        <time>2009-07-10T08:35:47Z</time>
      </trkpt>
      <trkpt lat="43.79627" lon="7.11485">
        <ele>959</ele>
        <time>2009-07-10T08:35:56Z</time>
      </trkpt>
      <trkpt lat="43.79635" lon="7.11495">
        <ele>960</ele>
        <time>2009-07-10T08:36:03Z</time>
      </trkpt>
      <trkpt lat="43.79642" lon="7.11525">
        <ele>963</ele>
        <time>2009-07-10T08:36:19Z</time>
      </trkpt>
      <trkpt lat="43.79645" lon="7.11538">
        <ele>965</ele>
        <time>2009-07-10T08:36:27Z</time>
      </trkpt>
      <trkpt lat="43.79647" lon="7.11557">
        <ele>966</ele>
        <time>2009-07-10T08:36:35Z</time>
      </trkpt>
      <trkpt lat="43.79658" lon="7.11575">
        <ele>970</ele>
        <time>2009-07-10T08:36:48Z</time>
      </trkpt>
      <trkpt lat="43.79668" lon="7.11598">
        <ele>973</ele>
        <time>2009-07-10T08:37:02Z</time>
      </trkpt>
      <trkpt lat="43.79677" lon="7.11617">
        <ele>974</ele>
        <time>2009-07-10T08:37:14Z</time>
      </trkpt>
      <trkpt lat="43.7969" lon="7.11637">
        <ele>977</ele>
        <time>2009-07-10T08:37:28Z</time>
      </trkpt>
      <trkpt lat="43.79702" lon="7.11658">
        <ele>980</ele>
        <time>2009-07-10T08:37:42Z</time>
      </trkpt>
      <trkpt lat="43.79717" lon="7.1169">
        <ele>982</ele>
        <time>2009-07-10T08:37:59Z</time>
      </trkpt>
      <trkpt lat="43.79718" lon="7.11727">
        <ele>983</ele>
        <time>2009-07-10T08:38:11Z</time>
      </trkpt>
      <trkpt lat="43.79713" lon="7.11762">
        <ele>983</ele>
        <time>2009-07-10T08:38:24Z</time>
      </trkpt>
      <trkpt lat="43.79708" lon="7.11787">
        <ele>984</ele>
        <time>2009-07-10T08:38:34Z</time>
      </trkpt>
      <trkpt lat="43.79698" lon="7.11802">
        <ele>985</ele>
        <time>2009-07-10T08:38:42Z</time>
      </trkpt>
      <trkpt lat="43.79692" lon="7.1181">
        <ele>985</ele>
        <time>2009-07-10T08:38:47Z</time>
      </trkpt>
      <trkpt lat="43.7969" lon="7.11843">
        <ele>988</ele>
        <time>2009-07-10T08:39:01Z</time>
      </trkpt>
      <trkpt lat="43.79685" lon="7.11873">
        <ele>990</ele>
        <time>2009-07-10T08:39:12Z</time>
      </trkpt>
      <trkpt lat="43.79682" lon="7.1189">
        <ele>991</ele>
        <time>2009-07-10T08:39:20Z</time>
      </trkpt>
      <trkpt lat="43.79682" lon="7.11912">
        <ele>992</ele>
        <time>2009-07-10T08:39:28Z</time>
      </trkpt>
      <trkpt lat="43.7968" lon="7.11922">
        <ele>992</ele>
        <time>2009-07-10T08:39:32Z</time>
      </trkpt>
      <trkpt lat="43.79673" lon="7.11957">
        <ele>993</ele>
        <time>2009-07-10T08:39:44Z</time>
      </trkpt>
      <trkpt lat="43.7966" lon="7.11997">
        <ele>994</ele>
        <time>2009-07-10T08:39:59Z</time>
      </trkpt>
      <trkpt lat="43.79643" lon="7.12022">
        <ele>995</ele>
        <time>2009-07-10T08:40:11Z</time>
      </trkpt>
      <trkpt lat="43.79618" lon="7.12045">
        <ele>996</ele>
        <time>2009-07-10T08:40:25Z</time>
      </trkpt>
      <trkpt lat="43.79612" lon="7.12053">
        <ele>997</ele>
        <time>2009-07-10T08:40:30Z</time>
      </trkpt>
      <trkpt lat="43.79608" lon="7.12087">
        <ele>999</ele>
        <time>2009-07-10T08:40:47Z</time>
      </trkpt>
      <trkpt lat="43.7961" lon="7.12097">
        <ele>999</ele>
        <time>2009-07-10T08:40:52Z</time>
      </trkpt>
      <trkpt lat="43.79605" lon="7.12117">
        <ele>1000</ele>
        <time>2009-07-10T08:41:03Z</time>
      </trkpt>
      <trkpt lat="43.79597" lon="7.1213">
        <ele>1001</ele>
        <time>2009-07-10T08:41:10Z</time>
      </trkpt>
      <trkpt lat="43.79592" lon="7.1214">
        <ele>1001</ele>
        <time>2009-07-10T08:41:15Z</time>
      </trkpt>
      <trkpt lat="43.79585" lon="7.12155">
        <ele>1001</ele>
        <time>2009-07-10T08:41:24Z</time>
      </trkpt>
      <trkpt lat="43.79573" lon="7.12178">
        <ele>1003</ele>
        <time>2009-07-10T08:41:35Z</time>
      </trkpt>
      <trkpt lat="43.7957" lon="7.1219">
        <ele>1004</ele>
        <time>2009-07-10T08:41:40Z</time>
      </trkpt>
      <trkpt lat="43.7957" lon="7.1223">
        <ele>1006</ele>
        <time>2009-07-10T08:41:54Z</time>
      </trkpt>
      <trkpt lat="43.79575" lon="7.12238">
        <ele>1007</ele>
        <time>2009-07-10T08:41:57Z</time>
      </trkpt>
      <trkpt lat="43.79582" lon="7.12252">
        <ele>1008</ele>
        <time>2009-07-10T08:42:02Z</time>
      </trkpt>
      <trkpt lat="43.79593" lon="7.12295">
        <ele>1008</ele>
        <time>2009-07-10T08:42:17Z</time>
      </trkpt>
      <trkpt lat="43.79585" lon="7.12315">
        <ele>1009</ele>
        <time>2009-07-10T08:42:25Z</time>
      </trkpt>
      <trkpt lat="43.79583" lon="7.12325">
        <ele>1009</ele>
        <time>2009-07-10T08:42:29Z</time>
      </trkpt>
      <trkpt lat="43.79578" lon="7.12345">
        <ele>1010</ele>
        <time>2009-07-10T08:42:36Z</time>
      </trkpt>
      <trkpt lat="43.79575" lon="7.12358">
        <ele>1010</ele>
        <time>2009-07-10T08:42:40Z</time>
      </trkpt>
      <trkpt lat="43.79572" lon="7.12363">
        <ele>1011</ele>
        <time>2009-07-10T08:42:43Z</time>
      </trkpt>
      <trkpt lat="43.79573" lon="7.12372">
        <ele>1010</ele>
        <time>2009-07-10T08:43:03Z</time>
      </trkpt>
      <trkpt lat="43.79575" lon="7.12402">
        <ele>1010</ele>
        <time>2009-07-10T08:49:36Z</time>
      </trkpt>
      <trkpt lat="43.79572" lon="7.12427">
        <ele>1008</ele>
        <time>2009-07-10T08:49:42Z</time>
      </trkpt>
      <trkpt lat="43.79543" lon="7.12443">
        <ele>1005</ele>
        <time>2009-07-10T08:49:50Z</time>
      </trkpt>
      <trkpt lat="43.79537" lon="7.12453">
        <ele>1005</ele>
        <time>2009-07-10T08:49:52Z</time>
      </trkpt>
      <trkpt lat="43.79535" lon="7.12462">
        <ele>1004</ele>
        <time>2009-07-10T08:49:53Z</time>
      </trkpt>
      <trkpt lat="43.79512" lon="7.12525">
        <ele>1004</ele>
        <time>2009-07-10T08:50:06Z</time>
      </trkpt>
      <trkpt lat="43.79507" lon="7.12533">
        <ele>1005</ele>
        <time>2009-07-10T08:50:10Z</time>
      </trkpt>
      <trkpt lat="43.79495" lon="7.12557">
        <ele>1008</ele>
        <time>2009-07-10T08:50:22Z</time>
      </trkpt>
      <trkpt lat="43.79497" lon="7.12587">
        <ele>1011</ele>
        <time>2009-07-10T08:50:35Z</time>
      </trkpt>
      <trkpt lat="43.79485" lon="7.12603">
        <ele>1012</ele>
        <time>2009-07-10T08:50:45Z</time>
      </trkpt>
      <trkpt lat="43.79462" lon="7.12605">
        <ele>1014</ele>
        <time>2009-07-10T08:50:58Z</time>
      </trkpt>
      <trkpt lat="43.79437" lon="7.12623">
        <ele>1014</ele>
        <time>2009-07-10T08:51:11Z</time>
      </trkpt>
      <trkpt lat="43.794" lon="7.1264">
        <ele>1016</ele>
        <time>2009-07-10T08:51:24Z</time>
      </trkpt>
      <trkpt lat="43.79372" lon="7.1268">
        <ele>1019</ele>
        <time>2009-07-10T08:51:36Z</time>
      </trkpt>
      <trkpt lat="43.79353" lon="7.12715">
        <ele>1020</ele>
        <time>2009-07-10T08:51:47Z</time>
      </trkpt>
      <trkpt lat="43.79345" lon="7.12715">
        <ele>1020</ele>
        <time>2009-07-10T08:51:53Z</time>
      </trkpt>
      <trkpt lat="43.79338" lon="7.12718">
        <ele>1020</ele>
        <time>2009-07-10T08:51:58Z</time>
      </trkpt>
      <trkpt lat="43.79332" lon="7.12717">
        <ele>1020</ele>
        <time>2009-07-10T08:52:02Z</time>
      </trkpt>
      <trkpt lat="43.79305" lon="7.1274">
        <ele>1018</ele>
        <time>2009-07-10T08:52:18Z</time>
      </trkpt>
      <trkpt lat="43.79297" lon="7.12773">
        <ele>1016</ele>
        <time>2009-07-10T08:52:31Z</time>
      </trkpt>
      <trkpt lat="43.79297" lon="7.12777">
        <ele>1016</ele>
        <time>2009-07-10T08:53:00Z</time>
      </trkpt>
      <trkpt lat="43.79295" lon="7.12802">
        <ele>1013</ele>
        <time>2009-07-10T08:53:32Z</time>
      </trkpt>
      <trkpt lat="43.79292" lon="7.12833">
        <ele>1010</ele>
        <time>2009-07-10T08:53:43Z</time>
      </trkpt>
      <trkpt lat="43.79287" lon="7.12858">
        <ele>1008</ele>
        <time>2009-07-10T08:53:53Z</time>
      </trkpt>
      <trkpt lat="43.79285" lon="7.12887">
        <ele>1005</ele>
        <time>2009-07-10T08:54:00Z</time>
      </trkpt>
      <trkpt lat="43.79285" lon="7.12893">
        <ele>1004</ele>
        <time>2009-07-10T08:54:12Z</time>
      </trkpt>
      <trkpt lat="43.79285" lon="7.12895">
        <ele>1004</ele>
        <time>2009-07-10T08:54:41Z</time>
      </trkpt>
      <trkpt lat="43.79278" lon="7.12898">
        <ele>1003</ele>
        <time>2009-07-10T08:54:46Z</time>
      </trkpt>
      <trkpt lat="43.79258" lon="7.12883">
        <ele>999</ele>
        <time>2009-07-10T08:54:58Z</time>
      </trkpt>
      <trkpt lat="43.79253" lon="7.12883">
        <ele>998</ele>
        <time>2009-07-10T08:55:00Z</time>
      </trkpt>
      <trkpt lat="43.79245" lon="7.12887">
        <ele>997</ele>
        <time>2009-07-10T08:55:04Z</time>
      </trkpt>
      <trkpt lat="43.7923" lon="7.12893">
        <ele>995</ele>
        <time>2009-07-10T08:55:10Z</time>
      </trkpt>
      <trkpt lat="43.7923" lon="7.12897">
        <ele>994</ele>
        <time>2009-07-10T08:55:13Z</time>
      </trkpt>
      <trkpt lat="43.79235" lon="7.12903">
        <ele>994</ele>
        <time>2009-07-10T08:55:17Z</time>
      </trkpt>
      <trkpt lat="43.7925" lon="7.12913">
        <ele>992</ele>
        <time>2009-07-10T08:55:28Z</time>
      </trkpt>
      <trkpt lat="43.79248" lon="7.1293">
        <ele>989</ele>
        <time>2009-07-10T08:55:35Z</time>
      </trkpt>
      <trkpt lat="43.79238" lon="7.12935">
        <ele>986</ele>
        <time>2009-07-10T08:55:50Z</time>
      </trkpt>
      <trkpt lat="43.79233" lon="7.1295">
        <ele>984</ele>
        <time>2009-07-10T08:56:05Z</time>
      </trkpt>
      <trkpt lat="43.79233" lon="7.12952">
        <ele>984</ele>
        <time>2009-07-10T08:56:06Z</time>
      </trkpt>
      <trkpt lat="43.79233" lon="7.12953">
        <ele>984</ele>
        <time>2009-07-10T08:56:08Z</time>
      </trkpt>
      <trkpt lat="43.79233" lon="7.12963">
        <ele>983</ele>
        <time>2009-07-10T08:56:13Z</time>
      </trkpt>
      <trkpt lat="43.7924" lon="7.12998">
        <ele>980</ele>
        <time>2009-07-10T08:56:28Z</time>
      </trkpt>
      <trkpt lat="43.79243" lon="7.13022">
        <ele>977</ele>
        <time>2009-07-10T08:56:37Z</time>
      </trkpt>
      <trkpt lat="43.79238" lon="7.13048">
        <ele>973</ele>
        <time>2009-07-10T08:56:47Z</time>
      </trkpt>
      <trkpt lat="43.79213" lon="7.13055">
        <ele>971</ele>
        <time>2009-07-10T08:56:58Z</time>
      </trkpt>
      <trkpt lat="43.792" lon="7.1306">
        <ele>967</ele>
        <time>2009-07-10T08:57:08Z</time>
      </trkpt>
      <trkpt lat="43.79185" lon="7.13065">
        <ele>964</ele>
        <time>2009-07-10T08:57:17Z</time>
      </trkpt>
      <trkpt lat="43.79182" lon="7.13068">
        <ele>963</ele>
        <time>2009-07-10T08:57:33Z</time>
      </trkpt>
      <trkpt lat="43.7918" lon="7.1307">
        <ele>963</ele>
        <time>2009-07-10T08:57:35Z</time>
      </trkpt>
      <trkpt lat="43.79163" lon="7.1308">
        <ele>960</ele>
        <time>2009-07-10T08:57:47Z</time>
      </trkpt>
      <trkpt lat="43.79145" lon="7.13083">
        <ele>956</ele>
        <time>2009-07-10T08:57:56Z</time>
      </trkpt>
      <trkpt lat="43.79137" lon="7.1308">
        <ele>955</ele>
        <time>2009-07-10T08:58:08Z</time>
      </trkpt>
      <trkpt lat="43.79138" lon="7.1308">
        <ele>954</ele>
        <time>2009-07-10T09:00:32Z</time>
      </trkpt>
      <trkpt lat="43.79123" lon="7.13123">
        <ele>952</ele>
        <time>2009-07-10T09:00:45Z</time>
      </trkpt>
      <trkpt lat="43.79113" lon="7.13175">
        <ele>949</ele>
        <time>2009-07-10T09:00:55Z</time>
      </trkpt>
      <trkpt lat="43.79098" lon="7.1322">
        <ele>948</ele>
        <time>2009-07-10T09:01:04Z</time>
      </trkpt>
      <trkpt lat="43.79093" lon="7.13238">
        <ele>947</ele>
        <time>2009-07-10T09:01:07Z</time>
      </trkpt>
      <trkpt lat="43.7908" lon="7.13273">
        <ele>948</ele>
        <time>2009-07-10T09:01:14Z</time>
      </trkpt>
      <trkpt lat="43.79073" lon="7.13302">
        <ele>946</ele>
        <time>2009-07-10T09:01:18Z</time>
      </trkpt>
      <trkpt lat="43.79063" lon="7.13333">
        <ele>947</ele>
        <time>2009-07-10T09:01:26Z</time>
      </trkpt>
      <trkpt lat="43.79057" lon="7.13347">
        <ele>949</ele>
        <time>2009-07-10T09:01:44Z</time>
      </trkpt>
      <trkpt lat="43.79055" lon="7.1336">
        <ele>952</ele>
        <time>2009-07-10T09:01:58Z</time>
      </trkpt>
      <trkpt lat="43.79053" lon="7.1338">
        <ele>954</ele>
        <time>2009-07-10T09:02:12Z</time>
      </trkpt>
      <trkpt lat="43.79048" lon="7.13393">
        <ele>955</ele>
        <time>2009-07-10T09:02:23Z</time>
      </trkpt>
      <trkpt lat="43.79037" lon="7.13428">
        <ele>957</ele>
        <time>2009-07-10T09:02:38Z</time>
      </trkpt>
      <trkpt lat="43.79027" lon="7.1346">
        <ele>958</ele>
        <time>2009-07-10T09:02:52Z</time>
      </trkpt>
      <trkpt lat="43.79017" lon="7.13488">
        <ele>960</ele>
        <time>2009-07-10T09:03:04Z</time>
      </trkpt>
      <trkpt lat="43.79007" lon="7.13528">
        <ele>961</ele>
        <time>2009-07-10T09:03:20Z</time>
      </trkpt>
      <trkpt lat="43.78993" lon="7.13562">
        <ele>962</ele>
        <time>2009-07-10T09:03:35Z</time>
      </trkpt>
      <trkpt lat="43.78988" lon="7.13582">
        <ele>962</ele>
        <time>2009-07-10T09:03:50Z</time>
      </trkpt>
      <trkpt lat="43.78978" lon="7.13613">
        <ele>960</ele>
        <time>2009-07-10T09:04:24Z</time>
      </trkpt>
      <trkpt lat="43.78975" lon="7.1363">
        <ele>958</ele>
        <time>2009-07-10T09:04:27Z</time>
      </trkpt>
      <trkpt lat="43.7897" lon="7.13647">
        <ele>956</ele>
        <time>2009-07-10T09:04:30Z</time>
      </trkpt>
      <trkpt lat="43.78963" lon="7.13665">
        <ele>955</ele>
        <time>2009-07-10T09:04:33Z</time>
      </trkpt>
      <trkpt lat="43.78962" lon="7.1367">
        <ele>955</ele>
        <time>2009-07-10T09:04:34Z</time>
      </trkpt>
      <trkpt lat="43.78957" lon="7.1369">
        <ele>954</ele>
        <time>2009-07-10T09:04:37Z</time>
      </trkpt>
      <trkpt lat="43.78952" lon="7.13708">
        <ele>954</ele>
        <time>2009-07-10T09:04:40Z</time>
      </trkpt>
      <trkpt lat="43.78933" lon="7.13775">
        <ele>954</ele>
        <time>2009-07-10T09:04:53Z</time>
      </trkpt>
      <trkpt lat="43.78932" lon="7.1378">
        <ele>954</ele>
        <time>2009-07-10T09:04:54Z</time>
      </trkpt>
      <trkpt lat="43.78915" lon="7.13832">
        <ele>953</ele>
        <time>2009-07-10T09:05:06Z</time>
      </trkpt>
      <trkpt lat="43.78905" lon="7.1387">
        <ele>950</ele>
        <time>2009-07-10T09:05:15Z</time>
      </trkpt>
      <trkpt lat="43.78892" lon="7.1391">
        <ele>947</ele>
        <time>2009-07-10T09:05:23Z</time>
      </trkpt>
      <trkpt lat="43.78883" lon="7.13935">
        <ele>944</ele>
        <time>2009-07-10T09:05:28Z</time>
      </trkpt>
      <trkpt lat="43.78878" lon="7.13955">
        <ele>940</ele>
        <time>2009-07-10T09:05:32Z</time>
      </trkpt>
      <trkpt lat="43.78873" lon="7.13975">
        <ele>937</ele>
        <time>2009-07-10T09:05:37Z</time>
      </trkpt>
      <trkpt lat="43.78873" lon="7.13977">
        <ele>936</ele>
        <time>2009-07-10T09:05:38Z</time>
      </trkpt>
      <trkpt lat="43.78872" lon="7.13985">
        <ele>936</ele>
        <time>2009-07-10T09:05:50Z</time>
      </trkpt>
      <trkpt lat="43.78872" lon="7.13985">
        <ele>935</ele>
        <time>2009-07-10T09:07:40Z</time>
      </trkpt>
      <trkpt lat="43.78857" lon="7.13995">
        <ele>932</ele>
        <time>2009-07-10T09:07:47Z</time>
      </trkpt>
      <trkpt lat="43.7884" lon="7.14013">
        <ele>928</ele>
        <time>2009-07-10T09:07:56Z</time>
      </trkpt>
      <trkpt lat="43.78823" lon="7.14022">
        <ele>925</ele>
        <time>2009-07-10T09:08:05Z</time>
      </trkpt>
      <trkpt lat="43.78823" lon="7.14023">
        <ele>925</ele>
        <time>2009-07-10T09:08:10Z</time>
      </trkpt>
      <trkpt lat="43.78827" lon="7.14037">
        <ele>923</ele>
        <time>2009-07-10T09:08:16Z</time>
      </trkpt>
      <trkpt lat="43.78842" lon="7.1407">
        <ele>920</ele>
        <time>2009-07-10T09:08:28Z</time>
      </trkpt>
      <trkpt lat="43.78838" lon="7.14112">
        <ele>917</ele>
        <time>2009-07-10T09:08:41Z</time>
      </trkpt>
      <trkpt lat="43.78825" lon="7.14153">
        <ele>915</ele>
        <time>2009-07-10T09:08:53Z</time>
      </trkpt>
      <trkpt lat="43.78812" lon="7.14205">
        <ele>912</ele>
        <time>2009-07-10T09:09:06Z</time>
      </trkpt>
      <trkpt lat="43.78795" lon="7.14257">
        <ele>909</ele>
        <time>2009-07-10T09:09:20Z</time>
      </trkpt>
      <trkpt lat="43.7879" lon="7.14277">
        <ele>906</ele>
        <time>2009-07-10T09:09:28Z</time>
      </trkpt>
      <trkpt lat="43.78788" lon="7.14283">
        <ele>905</ele>
        <time>2009-07-10T09:09:30Z</time>
      </trkpt>
      <trkpt lat="43.78777" lon="7.1432">
        <ele>901</ele>
        <time>2009-07-10T09:09:40Z</time>
      </trkpt>
      <trkpt lat="43.78775" lon="7.14333">
        <ele>901</ele>
        <time>2009-07-10T09:09:44Z</time>
      </trkpt>
      <trkpt lat="43.78772" lon="7.14335">
        <ele>901</ele>
        <time>2009-07-10T09:09:56Z</time>
      </trkpt>
      <trkpt lat="43.7875" lon="7.1433">
        <ele>899</ele>
        <time>2009-07-10T09:11:23Z</time>
      </trkpt>
      <trkpt lat="43.78713" lon="7.14313">
        <ele>897</ele>
        <time>2009-07-10T09:11:37Z</time>
      </trkpt>
      <trkpt lat="43.78685" lon="7.14307">
        <ele>894</ele>
        <time>2009-07-10T09:11:48Z</time>
      </trkpt>
      <trkpt lat="43.78665" lon="7.1432">
        <ele>891</ele>
        <time>2009-07-10T09:11:58Z</time>
      </trkpt>
      <trkpt lat="43.78663" lon="7.14325">
        <ele>890</ele>
        <time>2009-07-10T09:12:00Z</time>
      </trkpt>
      <trkpt lat="43.7865" lon="7.14343">
        <ele>887</ele>
        <time>2009-07-10T09:12:07Z</time>
      </trkpt>
      <trkpt lat="43.78635" lon="7.14348">
        <ele>884</ele>
        <time>2009-07-10T09:12:13Z</time>
      </trkpt>
      <trkpt lat="43.78628" lon="7.14348">
        <ele>883</ele>
        <time>2009-07-10T09:12:16Z</time>
      </trkpt>
      <trkpt lat="43.78602" lon="7.14328">
        <ele>880</ele>
        <time>2009-07-10T09:12:26Z</time>
      </trkpt>
      <trkpt lat="43.78575" lon="7.14308">
        <ele>878</ele>
        <time>2009-07-10T09:12:36Z</time>
      </trkpt>
      <trkpt lat="43.78545" lon="7.1429">
        <ele>875</ele>
        <time>2009-07-10T09:12:48Z</time>
      </trkpt>
      <trkpt lat="43.78523" lon="7.14287">
        <ele>872</ele>
        <time>2009-07-10T09:12:58Z</time>
      </trkpt>
      <trkpt lat="43.7852" lon="7.14288">
        <ele>872</ele>
        <time>2009-07-10T09:12:59Z</time>
      </trkpt>
      <trkpt lat="43.78513" lon="7.14283">
        <ele>870</ele>
        <time>2009-07-10T09:13:04Z</time>
      </trkpt>
      <trkpt lat="43.785" lon="7.14275">
        <ele>867</ele>
        <time>2009-07-10T09:13:16Z</time>
      </trkpt>
      <trkpt lat="43.78498" lon="7.14277">
        <ele>867</ele>
        <time>2009-07-10T09:13:21Z</time>
      </trkpt>
      <trkpt lat="43.78483" lon="7.14272">
        <ele>863</ele>
        <time>2009-07-10T09:13:30Z</time>
      </trkpt>
      <trkpt lat="43.78473" lon="7.14267">
        <ele>860</ele>
        <time>2009-07-10T09:13:36Z</time>
      </trkpt>
      <trkpt lat="43.78463" lon="7.14262">
        <ele>858</ele>
        <time>2009-07-10T09:13:45Z</time>
      </trkpt>
      <trkpt lat="43.7844" lon="7.14253">
        <ele>855</ele>
        <time>2009-07-10T09:13:54Z</time>
      </trkpt>
      <trkpt lat="43.78417" lon="7.1424">
        <ele>852</ele>
        <time>2009-07-10T09:14:05Z</time>
      </trkpt>
      <trkpt lat="43.78402" lon="7.1424">
        <ele>849</ele>
        <time>2009-07-10T09:14:16Z</time>
      </trkpt>
      <trkpt lat="43.78383" lon="7.14232">
        <ele>846</ele>
        <time>2009-07-10T09:14:26Z</time>
      </trkpt>
      <trkpt lat="43.78375" lon="7.14232">
        <ele>845</ele>
        <time>2009-07-10T09:14:40Z</time>
      </trkpt>
      <trkpt lat="43.78375" lon="7.14232">
        <ele>845</ele>
        <time>2009-07-10T09:16:07Z</time>
      </trkpt>
      <trkpt lat="43.78383" lon="7.14253">
        <ele>842</ele>
        <time>2009-07-10T09:16:14Z</time>
      </trkpt>
      <trkpt lat="43.78408" lon="7.14287">
        <ele>839</ele>
        <time>2009-07-10T09:16:25Z</time>
      </trkpt>
      <trkpt lat="43.78417" lon="7.14295">
        <ele>838</ele>
        <time>2009-07-10T09:16:28Z</time>
      </trkpt>
      <trkpt lat="43.78433" lon="7.14312">
        <ele>836</ele>
        <time>2009-07-10T09:16:33Z</time>
      </trkpt>
      <trkpt lat="43.7845" lon="7.14337">
        <ele>833</ele>
        <time>2009-07-10T09:16:39Z</time>
      </trkpt>
      <trkpt lat="43.78452" lon="7.1434">
        <ele>832</ele>
        <time>2009-07-10T09:16:40Z</time>
      </trkpt>
      <trkpt lat="43.78457" lon="7.1435">
        <ele>831</ele>
        <time>2009-07-10T09:16:43Z</time>
      </trkpt>
      <trkpt lat="43.78467" lon="7.14362">
        <ele>828</ele>
        <time>2009-07-10T09:16:47Z</time>
      </trkpt>
      <trkpt lat="43.78477" lon="7.14382">
        <ele>826</ele>
        <time>2009-07-10T09:16:51Z</time>
      </trkpt>
      <trkpt lat="43.78478" lon="7.14387">
        <ele>826</ele>
        <time>2009-07-10T09:16:52Z</time>
      </trkpt>
      <trkpt lat="43.78493" lon="7.144">
        <ele>825</ele>
        <time>2009-07-10T09:16:55Z</time>
      </trkpt>
      <trkpt lat="43.785" lon="7.14408">
        <ele>824</ele>
        <time>2009-07-10T09:16:57Z</time>
      </trkpt>
      <trkpt lat="43.7851" lon="7.14423">
        <ele>823</ele>
        <time>2009-07-10T09:17:00Z</time>
      </trkpt>
      <trkpt lat="43.78513" lon="7.14433">
        <ele>822</ele>
        <time>2009-07-10T09:17:02Z</time>
      </trkpt>
      <trkpt lat="43.78535" lon="7.14472">
        <ele>819</ele>
        <time>2009-07-10T09:17:10Z</time>
      </trkpt>
      <trkpt lat="43.78557" lon="7.14488">
        <ele>818</ele>
        <time>2009-07-10T09:17:15Z</time>
      </trkpt>
      <trkpt lat="43.78572" lon="7.14503">
        <ele>817</ele>
        <time>2009-07-10T09:17:19Z</time>
      </trkpt>
      <trkpt lat="43.78588" lon="7.1453">
        <ele>816</ele>
        <time>2009-07-10T09:17:25Z</time>
      </trkpt>
      <trkpt lat="43.78627" lon="7.14582">
        <ele>814</ele>
        <time>2009-07-10T09:17:38Z</time>
      </trkpt>
      <trkpt lat="43.78647" lon="7.14633">
        <ele>814</ele>
        <time>2009-07-10T09:17:50Z</time>
      </trkpt>
      <trkpt lat="43.78648" lon="7.1465">
        <ele>815</ele>
        <time>2009-07-10T09:18:25Z</time>
      </trkpt>
      <trkpt lat="43.78645" lon="7.14645">
        <ele>815</ele>
        <time>2009-07-10T09:18:27Z</time>
      </trkpt>
      <trkpt lat="43.7864" lon="7.14638">
        <ele>814</ele>
        <time>2009-07-10T09:18:39Z</time>
      </trkpt>
      <trkpt lat="43.78635" lon="7.14638">
        <ele>813</ele>
        <time>2009-07-10T09:18:43Z</time>
      </trkpt>
      <trkpt lat="43.78615" lon="7.14628">
        <ele>811</ele>
        <time>2009-07-10T09:18:54Z</time>
      </trkpt>
      <trkpt lat="43.786" lon="7.14632">
        <ele>811</ele>
        <time>2009-07-10T09:19:06Z</time>
      </trkpt>
      <trkpt lat="43.78578" lon="7.1463">
        <ele>812</ele>
        <time>2009-07-10T09:19:18Z</time>
      </trkpt>
      <trkpt lat="43.78553" lon="7.14617">
        <ele>813</ele>
        <time>2009-07-10T09:19:32Z</time>
      </trkpt>
      <trkpt lat="43.7854" lon="7.14603">
        <ele>813</ele>
        <time>2009-07-10T09:19:46Z</time>
      </trkpt>
      <trkpt lat="43.7853" lon="7.14598">
        <ele>814</ele>
        <time>2009-07-10T09:19:51Z</time>
      </trkpt>
      <trkpt lat="43.78518" lon="7.14588">
        <ele>814</ele>
        <time>2009-07-10T09:19:56Z</time>
      </trkpt>
      <trkpt lat="43.78483" lon="7.14547">
        <ele>814</ele>
        <time>2009-07-10T09:20:09Z</time>
      </trkpt>
      <trkpt lat="43.78453" lon="7.14515">
        <ele>815</ele>
        <time>2009-07-10T09:20:21Z</time>
      </trkpt>
      <trkpt lat="43.78435" lon="7.14495">
        <ele>816</ele>
        <time>2009-07-10T09:20:31Z</time>
      </trkpt>
      <trkpt lat="43.78425" lon="7.14463">
        <ele>815</ele>
        <time>2009-07-10T09:20:41Z</time>
      </trkpt>
      <trkpt lat="43.78402" lon="7.1444">
        <ele>817</ele>
        <time>2009-07-10T09:20:51Z</time>
      </trkpt>
      <trkpt lat="43.78398" lon="7.14438">
        <ele>816</ele>
        <time>2009-07-10T09:21:13Z</time>
      </trkpt>
      <trkpt lat="43.784" lon="7.14438">
        <ele>816</ele>
        <time>2009-07-10T09:22:47Z</time>
      </trkpt>
      <trkpt lat="43.78387" lon="7.14412">
        <ele>817</ele>
        <time>2009-07-10T09:22:57Z</time>
      </trkpt>
      <trkpt lat="43.78385" lon="7.14408">
        <ele>818</ele>
        <time>2009-07-10T09:22:59Z</time>
      </trkpt>
      <trkpt lat="43.78382" lon="7.144">
        <ele>820</ele>
        <time>2009-07-10T09:23:08Z</time>
      </trkpt>
      <trkpt lat="43.78368" lon="7.14388">
        <ele>821</ele>
        <time>2009-07-10T09:23:20Z</time>
      </trkpt>
      <trkpt lat="43.78367" lon="7.14385">
        <ele>821</ele>
        <time>2009-07-10T09:23:24Z</time>
      </trkpt>
      <trkpt lat="43.78357" lon="7.14382">
        <ele>822</ele>
        <time>2009-07-10T09:23:33Z</time>
      </trkpt>
      <trkpt lat="43.78348" lon="7.14373">
        <ele>824</ele>
        <time>2009-07-10T09:23:46Z</time>
      </trkpt>
      <trkpt lat="43.78342" lon="7.14363">
        <ele>825</ele>
        <time>2009-07-10T09:23:59Z</time>
      </trkpt>
      <trkpt lat="43.78335" lon="7.14357">
        <ele>825</ele>
        <time>2009-07-10T09:24:05Z</time>
      </trkpt>
      <trkpt lat="43.78327" lon="7.14357">
        <ele>826</ele>
        <time>2009-07-10T09:24:09Z</time>
      </trkpt>
      <trkpt lat="43.78293" lon="7.14358">
        <ele>826</ele>
        <time>2009-07-10T09:24:22Z</time>
      </trkpt>
      <trkpt lat="43.7828" lon="7.14367">
        <ele>826</ele>
        <time>2009-07-10T09:24:29Z</time>
      </trkpt>
      <trkpt lat="43.78275" lon="7.14367">
        <ele>827</ele>
        <time>2009-07-10T09:24:33Z</time>
      </trkpt>
      <trkpt lat="43.78273" lon="7.14368">
        <ele>827</ele>
        <time>2009-07-10T09:24:35Z</time>
      </trkpt>
      <trkpt lat="43.78262" lon="7.14367">
        <ele>828</ele>
        <time>2009-07-10T09:24:41Z</time>
      </trkpt>
      <trkpt lat="43.78245" lon="7.14337">
        <ele>828</ele>
        <time>2009-07-10T09:24:53Z</time>
      </trkpt>
      <trkpt lat="43.78228" lon="7.14322">
        <ele>830</ele>
        <time>2009-07-10T09:25:04Z</time>
      </trkpt>
      <trkpt lat="43.78223" lon="7.14322">
        <ele>832</ele>
        <time>2009-07-10T09:25:16Z</time>
      </trkpt>
      <trkpt lat="43.78215" lon="7.14323">
        <ele>833</ele>
        <time>2009-07-10T09:25:24Z</time>
      </trkpt>
      <trkpt lat="43.782" lon="7.14313">
        <ele>835</ele>
        <time>2009-07-10T09:25:39Z</time>
      </trkpt>
      <trkpt lat="43.7819" lon="7.143">
        <ele>836</ele>
        <time>2009-07-10T09:25:53Z</time>
      </trkpt>
      <trkpt lat="43.7818" lon="7.14292">
        <ele>837</ele>
        <time>2009-07-10T09:26:06Z</time>
      </trkpt>
      <trkpt lat="43.78173" lon="7.14283">
        <ele>837</ele>
        <time>2009-07-10T09:26:14Z</time>
      </trkpt>
      <trkpt lat="43.78162" lon="7.14272">
        <ele>838</ele>
        <time>2009-07-10T09:26:29Z</time>
      </trkpt>
      <trkpt lat="43.7815" lon="7.14265">
        <ele>838</ele>
        <time>2009-07-10T09:26:42Z</time>
      </trkpt>
      <trkpt lat="43.78135" lon="7.14257">
        <ele>840</ele>
        <time>2009-07-10T09:26:58Z</time>
      </trkpt>
      <trkpt lat="43.78135" lon="7.14257">
        <ele>840</ele>
        <time>2009-07-10T09:26:59Z</time>
      </trkpt>
      <trkpt lat="43.7813" lon="7.14255">
        <ele>840</ele>
        <time>2009-07-10T09:27:03Z</time>
      </trkpt>
      <trkpt lat="43.7812" lon="7.14245">
        <ele>841</ele>
        <time>2009-07-10T09:27:17Z</time>
      </trkpt>
      <trkpt lat="43.781" lon="7.14232">
        <ele>841</ele>
        <time>2009-07-10T09:27:31Z</time>
      </trkpt>
      <trkpt lat="43.78073" lon="7.14235">
        <ele>842</ele>
        <time>2009-07-10T09:27:45Z</time>
      </trkpt>
      <trkpt lat="43.78062" lon="7.14242">
        <ele>843</ele>
        <time>2009-07-10T09:27:58Z</time>
      </trkpt>
      <trkpt lat="43.78047" lon="7.1425">
        <ele>845</ele>
        <time>2009-07-10T09:28:15Z</time>
      </trkpt>
      <trkpt lat="43.78045" lon="7.14253">
        <ele>844</ele>
        <time>2009-07-10T09:28:40Z</time>
      </trkpt>
      <trkpt lat="43.78045" lon="7.14253">
        <ele>844</ele>
        <time>2009-07-10T09:29:54Z</time>
      </trkpt>
      <trkpt lat="43.78037" lon="7.1425">
        <ele>844</ele>
        <time>2009-07-10T09:29:58Z</time>
      </trkpt>
      <trkpt lat="43.78018" lon="7.1425">
        <ele>843</ele>
        <time>2009-07-10T09:30:11Z</time>
      </trkpt>
      <trkpt lat="43.78012" lon="7.14248">
        <ele>844</ele>
        <time>2009-07-10T09:30:17Z</time>
      </trkpt>
      <trkpt lat="43.78" lon="7.14255">
        <ele>845</ele>
        <time>2009-07-10T09:30:29Z</time>
      </trkpt>
      <trkpt lat="43.77982" lon="7.14255">
        <ele>846</ele>
        <time>2009-07-10T09:30:43Z</time>
      </trkpt>
      <trkpt lat="43.7796" lon="7.14248">
        <ele>848</ele>
        <time>2009-07-10T09:30:59Z</time>
      </trkpt>
      <trkpt lat="43.77958" lon="7.14247">
        <ele>849</ele>
        <time>2009-07-10T09:31:01Z</time>
      </trkpt>
      <trkpt lat="43.77948" lon="7.14257">
        <ele>849</ele>
        <time>2009-07-10T09:31:15Z</time>
      </trkpt>
      <trkpt lat="43.77947" lon="7.14258">
        <ele>849</ele>
        <time>2009-07-10T09:31:17Z</time>
      </trkpt>
      <trkpt lat="43.77942" lon="7.14257">
        <ele>849</ele>
        <time>2009-07-10T09:31:39Z</time>
      </trkpt>
      <trkpt lat="43.77917" lon="7.14248">
        <ele>849</ele>
        <time>2009-07-10T09:32:02Z</time>
      </trkpt>
      <trkpt lat="43.77875" lon="7.14247">
        <ele>848</ele>
        <time>2009-07-10T09:32:14Z</time>
      </trkpt>
      <trkpt lat="43.77843" lon="7.14218">
        <ele>848</ele>
        <time>2009-07-10T09:32:25Z</time>
      </trkpt>
      <trkpt lat="43.77825" lon="7.14203">
        <ele>848</ele>
        <time>2009-07-10T09:32:35Z</time>
      </trkpt>
      <trkpt lat="43.77818" lon="7.14198">
        <ele>849</ele>
        <time>2009-07-10T09:32:39Z</time>
      </trkpt>
      <trkpt lat="43.77802" lon="7.14203">
        <ele>850</ele>
        <time>2009-07-10T09:32:50Z</time>
      </trkpt>
      <trkpt lat="43.77792" lon="7.14202">
        <ele>851</ele>
        <time>2009-07-10T09:33:05Z</time>
      </trkpt>
      <trkpt lat="43.77787" lon="7.14193">
        <ele>851</ele>
        <time>2009-07-10T09:33:17Z</time>
      </trkpt>
      <trkpt lat="43.77777" lon="7.1419">
        <ele>850</ele>
        <time>2009-07-10T09:33:23Z</time>
      </trkpt>
      <trkpt lat="43.77752" lon="7.14182">
        <ele>849</ele>
        <time>2009-07-10T09:33:35Z</time>
      </trkpt>
      <trkpt lat="43.77743" lon="7.14177">
        <ele>848</ele>
        <time>2009-07-10T09:33:39Z</time>
      </trkpt>
      <trkpt lat="43.77737" lon="7.14175">
        <ele>848</ele>
        <time>2009-07-10T09:33:45Z</time>
      </trkpt>
      <trkpt lat="43.7773" lon="7.14175">
        <ele>846</ele>
        <time>2009-07-10T09:33:50Z</time>
      </trkpt>
      <trkpt lat="43.77715" lon="7.14163">
        <ele>844</ele>
        <time>2009-07-10T09:34:00Z</time>
      </trkpt>
      <trkpt lat="43.77712" lon="7.14157">
        <ele>843</ele>
        <time>2009-07-10T09:34:04Z</time>
      </trkpt>
      <trkpt lat="43.777" lon="7.14152">
        <ele>841</ele>
        <time>2009-07-10T09:34:12Z</time>
      </trkpt>
      <trkpt lat="43.77688" lon="7.1414">
        <ele>839</ele>
        <time>2009-07-10T09:34:20Z</time>
      </trkpt>
      <trkpt lat="43.7768" lon="7.14127">
        <ele>837</ele>
        <time>2009-07-10T09:34:32Z</time>
      </trkpt>
      <trkpt lat="43.77678" lon="7.14118">
        <ele>837</ele>
        <time>2009-07-10T09:34:37Z</time>
      </trkpt>
      <trkpt lat="43.77652" lon="7.14093">
        <ele>835</ele>
        <time>2009-07-10T09:34:49Z</time>
      </trkpt>
      <trkpt lat="43.77645" lon="7.14087">
        <ele>834</ele>
        <time>2009-07-10T09:34:58Z</time>
      </trkpt>
      <trkpt lat="43.77642" lon="7.1408">
        <ele>834</ele>
        <time>2009-07-10T09:35:12Z</time>
      </trkpt>
      <trkpt lat="43.77635" lon="7.1407">
        <ele>834</ele>
        <time>2009-07-10T09:36:41Z</time>
      </trkpt>
      <trkpt lat="43.77635" lon="7.14068">
        <ele>834</ele>
        <time>2009-07-10T09:36:42Z</time>
      </trkpt>
      <trkpt lat="43.77625" lon="7.14062">
        <ele>832</ele>
        <time>2009-07-10T09:36:55Z</time>
      </trkpt>
      <trkpt lat="43.77617" lon="7.14057">
        <ele>831</ele>
        <time>2009-07-10T09:37:05Z</time>
      </trkpt>
      <trkpt lat="43.776" lon="7.14047">
        <ele>830</ele>
        <time>2009-07-10T09:37:22Z</time>
      </trkpt>
      <trkpt lat="43.77595" lon="7.14055">
        <ele>827</ele>
        <time>2009-07-10T09:37:31Z</time>
      </trkpt>
      <trkpt lat="43.77595" lon="7.14063">
        <ele>827</ele>
        <time>2009-07-10T09:37:37Z</time>
      </trkpt>
      <trkpt lat="43.77588" lon="7.14065">
        <ele>826</ele>
        <time>2009-07-10T09:37:41Z</time>
      </trkpt>
      <trkpt lat="43.77585" lon="7.14058">
        <ele>825</ele>
        <time>2009-07-10T09:37:44Z</time>
      </trkpt>
      <trkpt lat="43.7758" lon="7.14052">
        <ele>824</ele>
        <time>2009-07-10T09:37:50Z</time>
      </trkpt>
      <trkpt lat="43.77575" lon="7.14053">
        <ele>824</ele>
        <time>2009-07-10T09:37:52Z</time>
      </trkpt>
      <trkpt lat="43.77565" lon="7.14032">
        <ele>823</ele>
        <time>2009-07-10T09:38:03Z</time>
      </trkpt>
      <trkpt lat="43.77552" lon="7.14035">
        <ele>820</ele>
        <time>2009-07-10T09:38:19Z</time>
      </trkpt>
      <trkpt lat="43.77542" lon="7.14035">
        <ele>817</ele>
        <time>2009-07-10T09:38:35Z</time>
      </trkpt>
      <trkpt lat="43.77535" lon="7.14025">
        <ele>815</ele>
        <time>2009-07-10T09:38:50Z</time>
      </trkpt>
      <trkpt lat="43.77537" lon="7.14008">
        <ele>814</ele>
        <time>2009-07-10T09:39:04Z</time>
      </trkpt>
      <trkpt lat="43.77528" lon="7.14005">
        <ele>811</ele>
        <time>2009-07-10T09:39:18Z</time>
      </trkpt>
      <trkpt lat="43.7752" lon="7.13995">
        <ele>808</ele>
        <time>2009-07-10T09:39:35Z</time>
      </trkpt>
      <trkpt lat="43.77508" lon="7.13987">
        <ele>805</ele>
        <time>2009-07-10T09:39:50Z</time>
      </trkpt>
      <trkpt lat="43.775" lon="7.13978">
        <ele>802</ele>
        <time>2009-07-10T09:40:05Z</time>
      </trkpt>
      <trkpt lat="43.77498" lon="7.1398">
        <ele>802</ele>
        <time>2009-07-10T09:40:06Z</time>
      </trkpt>
      <trkpt lat="43.77492" lon="7.13975">
        <ele>801</ele>
        <time>2009-07-10T09:40:10Z</time>
      </trkpt>
      <trkpt lat="43.77483" lon="7.13973">
        <ele>800</ele>
        <time>2009-07-10T09:40:18Z</time>
      </trkpt>
      <trkpt lat="43.7748" lon="7.1398">
        <ele>799</ele>
        <time>2009-07-10T09:40:33Z</time>
      </trkpt>
      <trkpt lat="43.77462" lon="7.13988">
        <ele>797</ele>
        <time>2009-07-10T09:41:05Z</time>
      </trkpt>
      <trkpt lat="43.77442" lon="7.14">
        <ele>795</ele>
        <time>2009-07-10T09:41:11Z</time>
      </trkpt>
      <trkpt lat="43.77427" lon="7.1401">
        <ele>794</ele>
        <time>2009-07-10T09:41:15Z</time>
      </trkpt>
      <trkpt lat="43.77387" lon="7.14038">
        <ele>793</ele>
        <time>2009-07-10T09:41:27Z</time>
      </trkpt>
      <trkpt lat="43.77367" lon="7.14058">
        <ele>792</ele>
        <time>2009-07-10T09:41:38Z</time>
      </trkpt>
      <trkpt lat="43.77345" lon="7.14087">
        <ele>790</ele>
        <time>2009-07-10T09:41:50Z</time>
      </trkpt>
      <trkpt lat="43.77323" lon="7.1411">
        <ele>787</ele>
        <time>2009-07-10T09:41:59Z</time>
      </trkpt>
      <trkpt lat="43.77312" lon="7.1414">
        <ele>784</ele>
        <time>2009-07-10T09:42:10Z</time>
      </trkpt>
      <trkpt lat="43.77308" lon="7.14148">
        <ele>783</ele>
        <time>2009-07-10T09:42:13Z</time>
      </trkpt>
      <trkpt lat="43.77303" lon="7.14165">
        <ele>781</ele>
        <time>2009-07-10T09:42:18Z</time>
      </trkpt>
      <trkpt lat="43.7729" lon="7.14187">
        <ele>778</ele>
        <time>2009-07-10T09:42:29Z</time>
      </trkpt>
      <trkpt lat="43.77288" lon="7.14187">
        <ele>777</ele>
        <time>2009-07-10T09:42:30Z</time>
      </trkpt>
      <trkpt lat="43.77282" lon="7.14193">
        <ele>776</ele>
        <time>2009-07-10T09:42:34Z</time>
      </trkpt>
      <trkpt lat="43.77268" lon="7.14217">
        <ele>772</ele>
        <time>2009-07-10T09:42:44Z</time>
      </trkpt>
      <trkpt lat="43.77257" lon="7.14247">
        <ele>769</ele>
        <time>2009-07-10T09:42:55Z</time>
      </trkpt>
      <trkpt lat="43.77253" lon="7.1426">
        <ele>768</ele>
        <time>2009-07-10T09:42:59Z</time>
      </trkpt>
      <trkpt lat="43.77252" lon="7.14262">
        <ele>768</ele>
        <time>2009-07-10T09:43:01Z</time>
      </trkpt>
      <trkpt lat="43.77225" lon="7.14253">
        <ele>765</ele>
        <time>2009-07-10T09:43:11Z</time>
      </trkpt>
      <trkpt lat="43.77192" lon="7.14275">
        <ele>763</ele>
        <time>2009-07-10T09:43:21Z</time>
      </trkpt>
      <trkpt lat="43.7717" lon="7.143">
        <ele>763</ele>
        <time>2009-07-10T09:43:31Z</time>
      </trkpt>
      <trkpt lat="43.77137" lon="7.14343">
        <ele>762</ele>
        <time>2009-07-10T09:43:45Z</time>
      </trkpt>
      <trkpt lat="43.77103" lon="7.14387">
        <ele>760</ele>
        <time>2009-07-10T09:43:56Z</time>
      </trkpt>
      <trkpt lat="43.77062" lon="7.14413">
        <ele>757</ele>
        <time>2009-07-10T09:44:08Z</time>
      </trkpt>
      <trkpt lat="43.77022" lon="7.14447">
        <ele>755</ele>
        <time>2009-07-10T09:44:21Z</time>
      </trkpt>
      <trkpt lat="43.77" lon="7.14462">
        <ele>753</ele>
        <time>2009-07-10T09:44:30Z</time>
      </trkpt>
      <trkpt lat="43.76993" lon="7.14467">
        <ele>752</ele>
        <time>2009-07-10T09:44:32Z</time>
      </trkpt>
      <trkpt lat="43.76987" lon="7.14472">
        <ele>751</ele>
        <time>2009-07-10T09:44:35Z</time>
      </trkpt>
      <trkpt lat="43.76953" lon="7.14475">
        <ele>750</ele>
        <time>2009-07-10T09:44:47Z</time>
      </trkpt>
      <trkpt lat="43.76927" lon="7.1448">
        <ele>747</ele>
        <time>2009-07-10T09:44:54Z</time>
      </trkpt>
      <trkpt lat="43.76887" lon="7.14485">
        <ele>744</ele>
        <time>2009-07-10T09:45:05Z</time>
      </trkpt>
      <trkpt lat="43.76853" lon="7.14482">
        <ele>741</ele>
        <time>2009-07-10T09:45:16Z</time>
      </trkpt>
      <trkpt lat="43.76828" lon="7.14477">
        <ele>738</ele>
        <time>2009-07-10T09:45:26Z</time>
      </trkpt>
      <trkpt lat="43.7681" lon="7.14477">
        <ele>735</ele>
        <time>2009-07-10T09:45:34Z</time>
      </trkpt>
      <trkpt lat="43.76783" lon="7.14468">
        <ele>732</ele>
        <time>2009-07-10T09:45:43Z</time>
      </trkpt>
      <trkpt lat="43.76762" lon="7.14455">
        <ele>729</ele>
        <time>2009-07-10T09:45:51Z</time>
      </trkpt>
      <trkpt lat="43.7675" lon="7.14463">
        <ele>726</ele>
        <time>2009-07-10T09:45:57Z</time>
      </trkpt>
      <trkpt lat="43.76737" lon="7.1446">
        <ele>726</ele>
        <time>2009-07-10T09:46:03Z</time>
      </trkpt>
      <trkpt lat="43.76708" lon="7.14442">
        <ele>722</ele>
        <time>2009-07-10T09:46:15Z</time>
      </trkpt>
      <trkpt lat="43.76702" lon="7.14437">
        <ele>721</ele>
        <time>2009-07-10T09:46:18Z</time>
      </trkpt>
      <trkpt lat="43.7668" lon="7.14433">
        <ele>717</ele>
        <time>2009-07-10T09:46:26Z</time>
      </trkpt>
      <trkpt lat="43.76662" lon="7.14425">
        <ele>714</ele>
        <time>2009-07-10T09:46:34Z</time>
      </trkpt>
      <trkpt lat="43.76637" lon="7.14423">
        <ele>712</ele>
        <time>2009-07-10T09:46:44Z</time>
      </trkpt>
      <trkpt lat="43.7661" lon="7.14425">
        <ele>708</ele>
        <time>2009-07-10T09:46:55Z</time>
      </trkpt>
      <trkpt lat="43.7657" lon="7.14433">
        <ele>705</ele>
        <time>2009-07-10T09:47:07Z</time>
      </trkpt>
      <trkpt lat="43.76533" lon="7.14435">
        <ele>703</ele>
        <time>2009-07-10T09:47:19Z</time>
      </trkpt>
      <trkpt lat="43.7651" lon="7.14445">
        <ele>700</ele>
        <time>2009-07-10T09:47:28Z</time>
      </trkpt>
      <trkpt lat="43.7649" lon="7.14455">
        <ele>696</ele>
        <time>2009-07-10T09:47:34Z</time>
      </trkpt>
      <trkpt lat="43.76478" lon="7.14458">
        <ele>695</ele>
        <time>2009-07-10T09:47:37Z</time>
      </trkpt>
      <trkpt lat="43.76467" lon="7.14458">
        <ele>694</ele>
        <time>2009-07-10T09:47:40Z</time>
      </trkpt>
      <trkpt lat="43.76458" lon="7.14458">
        <ele>693</ele>
        <time>2009-07-10T09:47:42Z</time>
      </trkpt>
      <trkpt lat="43.76427" lon="7.14447">
        <ele>689</ele>
        <time>2009-07-10T09:47:52Z</time>
      </trkpt>
      <trkpt lat="43.764" lon="7.14447">
        <ele>687</ele>
        <time>2009-07-10T09:48:02Z</time>
      </trkpt>
      <trkpt lat="43.76375" lon="7.14443">
        <ele>685</ele>
        <time>2009-07-10T09:48:09Z</time>
      </trkpt>
      <trkpt lat="43.76367" lon="7.14442">
        <ele>684</ele>
        <time>2009-07-10T09:48:11Z</time>
      </trkpt>
      <trkpt lat="43.76358" lon="7.14445">
        <ele>684</ele>
        <time>2009-07-10T09:48:13Z</time>
      </trkpt>
      <trkpt lat="43.76313" lon="7.1445">
        <ele>682</ele>
        <time>2009-07-10T09:48:25Z</time>
      </trkpt>
      <trkpt lat="43.76308" lon="7.1445">
        <ele>682</ele>
        <time>2009-07-10T09:48:36Z</time>
      </trkpt>
      <trkpt lat="43.76305" lon="7.1445">
        <ele>682</ele>
        <time>2009-07-10T09:48:56Z</time>
      </trkpt>
      <trkpt lat="43.76283" lon="7.14438">
        <ele>680</ele>
        <time>2009-07-10T09:49:48Z</time>
      </trkpt>
      <trkpt lat="43.76275" lon="7.14437">
        <ele>679</ele>
        <time>2009-07-10T09:49:50Z</time>
      </trkpt>
      <trkpt lat="43.76223" lon="7.1442">
        <ele>677</ele>
        <time>2009-07-10T09:50:03Z</time>
      </trkpt>
      <trkpt lat="43.76183" lon="7.14408">
        <ele>675</ele>
        <time>2009-07-10T09:50:14Z</time>
      </trkpt>
      <trkpt lat="43.76145" lon="7.14393">
        <ele>673</ele>
        <time>2009-07-10T09:50:26Z</time>
      </trkpt>
      <trkpt lat="43.76135" lon="7.14385">
        <ele>671</ele>
        <time>2009-07-10T09:50:29Z</time>
      </trkpt>
      <trkpt lat="43.76127" lon="7.1438">
        <ele>671</ele>
        <time>2009-07-10T09:50:31Z</time>
      </trkpt>
      <trkpt lat="43.76108" lon="7.14372">
        <ele>670</ele>
        <time>2009-07-10T09:50:36Z</time>
      </trkpt>
      <trkpt lat="43.76067" lon="7.14338">
        <ele>666</ele>
        <time>2009-07-10T09:50:47Z</time>
      </trkpt>
      <trkpt lat="43.76052" lon="7.14328">
        <ele>665</ele>
        <time>2009-07-10T09:50:51Z</time>
      </trkpt>
      <trkpt lat="43.76025" lon="7.14308">
        <ele>664</ele>
        <time>2009-07-10T09:50:57Z</time>
      </trkpt>
      <trkpt lat="43.75982" lon="7.14303">
        <ele>661</ele>
        <time>2009-07-10T09:51:08Z</time>
      </trkpt>
      <trkpt lat="43.75953" lon="7.14303">
        <ele>658</ele>
        <time>2009-07-10T09:51:18Z</time>
      </trkpt>
      <trkpt lat="43.75925" lon="7.143">
        <ele>655</ele>
        <time>2009-07-10T09:51:29Z</time>
      </trkpt>
      <trkpt lat="43.75913" lon="7.14295">
        <ele>654</ele>
        <time>2009-07-10T09:51:34Z</time>
      </trkpt>
      <trkpt lat="43.75898" lon="7.14298">
        <ele>651</ele>
        <time>2009-07-10T09:51:42Z</time>
      </trkpt>
      <trkpt lat="43.75888" lon="7.14288">
        <ele>652</ele>
        <time>2009-07-10T09:51:52Z</time>
      </trkpt>
      <trkpt lat="43.7588" lon="7.1429">
        <ele>652</ele>
        <time>2009-07-10T09:52:00Z</time>
      </trkpt>
      <trkpt lat="43.7587" lon="7.14292">
        <ele>652</ele>
        <time>2009-07-10T09:52:06Z</time>
      </trkpt>
      <trkpt lat="43.75852" lon="7.14295">
        <ele>650</ele>
        <time>2009-07-10T09:52:10Z</time>
      </trkpt>
      <trkpt lat="43.75817" lon="7.14307">
        <ele>648</ele>
        <time>2009-07-10T09:52:16Z</time>
      </trkpt>
      <trkpt lat="43.75812" lon="7.1431">
        <ele>648</ele>
        <time>2009-07-10T09:52:17Z</time>
      </trkpt>
      <trkpt lat="43.75793" lon="7.1432">
        <ele>647</ele>
        <time>2009-07-10T09:52:20Z</time>
      </trkpt>
      <trkpt lat="43.75783" lon="7.14325">
        <ele>646</ele>
        <time>2009-07-10T09:52:22Z</time>
      </trkpt>
      <trkpt lat="43.75757" lon="7.14327">
        <ele>644</ele>
        <time>2009-07-10T09:52:28Z</time>
      </trkpt>
      <trkpt lat="43.75718" lon="7.14313">
        <ele>641</ele>
        <time>2009-07-10T09:52:39Z</time>
      </trkpt>
      <trkpt lat="43.75713" lon="7.14312">
        <ele>641</ele>
        <time>2009-07-10T09:52:40Z</time>
      </trkpt>
      <trkpt lat="43.75695" lon="7.14307">
        <ele>638</ele>
        <time>2009-07-10T09:52:49Z</time>
      </trkpt>
      <trkpt lat="43.75675" lon="7.14312">
        <ele>635</ele>
        <time>2009-07-10T09:52:59Z</time>
      </trkpt>
      <trkpt lat="43.75657" lon="7.14312">
        <ele>632</ele>
        <time>2009-07-10T09:53:09Z</time>
      </trkpt>
      <trkpt lat="43.75643" lon="7.14313">
        <ele>629</ele>
        <time>2009-07-10T09:53:17Z</time>
      </trkpt>
      <trkpt lat="43.75627" lon="7.14318">
        <ele>626</ele>
        <time>2009-07-10T09:53:26Z</time>
      </trkpt>
      <trkpt lat="43.75625" lon="7.14318">
        <ele>625</ele>
        <time>2009-07-10T09:53:27Z</time>
      </trkpt>
      <trkpt lat="43.75607" lon="7.14323">
        <ele>622</ele>
        <time>2009-07-10T09:53:36Z</time>
      </trkpt>
      <trkpt lat="43.75602" lon="7.14325">
        <ele>621</ele>
        <time>2009-07-10T09:53:38Z</time>
      </trkpt>
      <trkpt lat="43.75592" lon="7.14327">
        <ele>619</ele>
        <time>2009-07-10T09:53:43Z</time>
      </trkpt>
      <trkpt lat="43.7557" lon="7.14327">
        <ele>616</ele>
        <time>2009-07-10T09:53:53Z</time>
      </trkpt>
      <trkpt lat="43.75565" lon="7.14327">
        <ele>615</ele>
        <time>2009-07-10T09:53:56Z</time>
      </trkpt>
      <trkpt lat="43.75548" lon="7.14323">
        <ele>613</ele>
        <time>2009-07-10T09:54:04Z</time>
      </trkpt>
      <trkpt lat="43.75532" lon="7.14327">
        <ele>610</ele>
        <time>2009-07-10T09:54:13Z</time>
      </trkpt>
      <trkpt lat="43.75532" lon="7.14327">
        <ele>610</ele>
        <time>2009-07-10T09:54:25Z</time>
      </trkpt>
      <trkpt lat="43.7553" lon="7.14328">
        <ele>609</ele>
        <time>2009-07-10T09:55:24Z</time>
      </trkpt>
      <trkpt lat="43.75525" lon="7.14328">
        <ele>607</ele>
        <time>2009-07-10T09:55:46Z</time>
      </trkpt>
      <trkpt lat="43.75505" lon="7.14325">
        <ele>604</ele>
        <time>2009-07-10T09:55:55Z</time>
      </trkpt>
      <trkpt lat="43.75493" lon="7.14318">
        <ele>603</ele>
        <time>2009-07-10T09:56:00Z</time>
      </trkpt>
      <trkpt lat="43.7547" lon="7.1431">
        <ele>600</ele>
        <time>2009-07-10T09:56:10Z</time>
      </trkpt>
      <trkpt lat="43.75438" lon="7.14287">
        <ele>596</ele>
        <time>2009-07-10T09:56:22Z</time>
      </trkpt>
      <trkpt lat="43.75422" lon="7.14275">
        <ele>593</ele>
        <time>2009-07-10T09:56:31Z</time>
      </trkpt>
      <trkpt lat="43.75397" lon="7.1426">
        <ele>590</ele>
        <time>2009-07-10T09:56:43Z</time>
      </trkpt>
      <trkpt lat="43.75387" lon="7.1426">
        <ele>588</ele>
        <time>2009-07-10T09:56:48Z</time>
      </trkpt>
      <trkpt lat="43.75377" lon="7.14257">
        <ele>586</ele>
        <time>2009-07-10T09:56:52Z</time>
      </trkpt>
      <trkpt lat="43.75372" lon="7.14255">
        <ele>585</ele>
        <time>2009-07-10T09:56:55Z</time>
      </trkpt>
      <trkpt lat="43.75362" lon="7.14253">
        <ele>583</ele>
        <time>2009-07-10T09:57:00Z</time>
      </trkpt>
      <trkpt lat="43.75357" lon="7.14258">
        <ele>581</ele>
        <time>2009-07-10T09:57:12Z</time>
      </trkpt>
      <trkpt lat="43.75358" lon="7.1426">
        <ele>581</ele>
        <time>2009-07-10T09:59:18Z</time>
      </trkpt>
      <trkpt lat="43.75363" lon="7.1427">
        <ele>579</ele>
        <time>2009-07-10T09:59:23Z</time>
      </trkpt>
      <trkpt lat="43.7538" lon="7.14285">
        <ele>575</ele>
        <time>2009-07-10T09:59:31Z</time>
      </trkpt>
      <trkpt lat="43.7539" lon="7.14292">
        <ele>574</ele>
        <time>2009-07-10T09:59:36Z</time>
      </trkpt>
      <trkpt lat="43.7539" lon="7.14298">
        <ele>573</ele>
        <time>2009-07-10T09:59:40Z</time>
      </trkpt>
      <trkpt lat="43.75373" lon="7.1429">
        <ele>570</ele>
        <time>2009-07-10T09:59:49Z</time>
      </trkpt>
      <trkpt lat="43.75353" lon="7.1428">
        <ele>566</ele>
        <time>2009-07-10T09:59:59Z</time>
      </trkpt>
      <trkpt lat="43.75343" lon="7.14275">
        <ele>564</ele>
        <time>2009-07-10T10:00:04Z</time>
      </trkpt>
      <trkpt lat="43.75317" lon="7.14268">
        <ele>561</ele>
        <time>2009-07-10T10:00:15Z</time>
      </trkpt>
      <trkpt lat="43.75288" lon="7.14242">
        <ele>558</ele>
        <time>2009-07-10T10:00:28Z</time>
      </trkpt>
      <trkpt lat="43.75278" lon="7.14242">
        <ele>556</ele>
        <time>2009-07-10T10:00:32Z</time>
      </trkpt>
      <trkpt lat="43.75263" lon="7.14242">
        <ele>553</ele>
        <time>2009-07-10T10:00:39Z</time>
      </trkpt>
      <trkpt lat="43.75247" lon="7.1424">
        <ele>550</ele>
        <time>2009-07-10T10:00:45Z</time>
      </trkpt>
      <trkpt lat="43.75225" lon="7.14233">
        <ele>546</ele>
        <time>2009-07-10T10:00:53Z</time>
      </trkpt>
      <trkpt lat="43.75222" lon="7.14233">
        <ele>546</ele>
        <time>2009-07-10T10:00:55Z</time>
      </trkpt>
      <trkpt lat="43.75218" lon="7.14232">
        <ele>545</ele>
        <time>2009-07-10T10:00:56Z</time>
      </trkpt>
      <trkpt lat="43.75192" lon="7.14207">
        <ele>542</ele>
        <time>2009-07-10T10:01:05Z</time>
      </trkpt>
      <trkpt lat="43.75177" lon="7.14207">
        <ele>540</ele>
        <time>2009-07-10T10:01:10Z</time>
      </trkpt>
      <trkpt lat="43.75163" lon="7.14198">
        <ele>538</ele>
        <time>2009-07-10T10:01:14Z</time>
      </trkpt>
      <trkpt lat="43.75127" lon="7.14178">
        <ele>535</ele>
        <time>2009-07-10T10:01:25Z</time>
      </trkpt>
      <trkpt lat="43.75107" lon="7.14173">
        <ele>532</ele>
        <time>2009-07-10T10:01:32Z</time>
      </trkpt>
      <trkpt lat="43.75098" lon="7.14172">
        <ele>530</ele>
        <time>2009-07-10T10:01:35Z</time>
      </trkpt>
      <trkpt lat="43.75083" lon="7.14167">
        <ele>528</ele>
        <time>2009-07-10T10:01:39Z</time>
      </trkpt>
      <trkpt lat="43.75065" lon="7.14165">
        <ele>525</ele>
        <time>2009-07-10T10:01:45Z</time>
      </trkpt>
      <trkpt lat="43.7505" lon="7.14162">
        <ele>523</ele>
        <time>2009-07-10T10:01:50Z</time>
      </trkpt>
      <trkpt lat="43.75047" lon="7.1416">
        <ele>522</ele>
        <time>2009-07-10T10:01:59Z</time>
      </trkpt>
      <trkpt lat="43.75043" lon="7.14158">
        <ele>521</ele>
        <time>2009-07-10T10:02:38Z</time>
      </trkpt>
      <trkpt lat="43.75043" lon="7.14158">
        <ele>519</ele>
        <time>2009-07-10T10:09:21Z</time>
      </trkpt>
      <trkpt lat="43.75035" lon="7.14152">
        <ele>518</ele>
        <time>2009-07-10T10:09:25Z</time>
      </trkpt>
      <trkpt lat="43.75017" lon="7.14152">
        <ele>515</ele>
        <time>2009-07-10T10:09:30Z</time>
      </trkpt>
      <trkpt lat="43.75002" lon="7.14152">
        <ele>512</ele>
        <time>2009-07-10T10:09:34Z</time>
      </trkpt>
      <trkpt lat="43.74997" lon="7.1415">
        <ele>511</ele>
        <time>2009-07-10T10:09:35Z</time>
      </trkpt>
      <trkpt lat="43.74978" lon="7.14153">
        <ele>508</ele>
        <time>2009-07-10T10:09:39Z</time>
      </trkpt>
      <trkpt lat="43.7497" lon="7.14155">
        <ele>506</ele>
        <time>2009-07-10T10:09:41Z</time>
      </trkpt>
      <trkpt lat="43.7496" lon="7.1415">
        <ele>503</ele>
        <time>2009-07-10T10:09:45Z</time>
      </trkpt>
      <trkpt lat="43.74945" lon="7.14162">
        <ele>501</ele>
        <time>2009-07-10T10:09:51Z</time>
      </trkpt>
      <trkpt lat="43.7494" lon="7.1417">
        <ele>498</ele>
        <time>2009-07-10T10:09:56Z</time>
      </trkpt>
      <trkpt lat="43.74938" lon="7.14178">
        <ele>496</ele>
        <time>2009-07-10T10:10:01Z</time>
      </trkpt>
      <trkpt lat="43.74938" lon="7.1418">
        <ele>496</ele>
        <time>2009-07-10T10:10:02Z</time>
      </trkpt>
      <trkpt lat="43.74928" lon="7.1419">
        <ele>492</ele>
        <time>2009-07-10T10:10:09Z</time>
      </trkpt>
      <trkpt lat="43.74922" lon="7.14193">
        <ele>490</ele>
        <time>2009-07-10T10:10:17Z</time>
      </trkpt>
      <trkpt lat="43.74932" lon="7.142">
        <ele>488</ele>
        <time>2009-07-10T10:10:26Z</time>
      </trkpt>
      <trkpt lat="43.74912" lon="7.14198">
        <ele>485</ele>
        <time>2009-07-10T10:10:34Z</time>
      </trkpt>
      <trkpt lat="43.74908" lon="7.14198">
        <ele>484</ele>
        <time>2009-07-10T10:10:36Z</time>
      </trkpt>
      <trkpt lat="43.74903" lon="7.14198">
        <ele>483</ele>
        <time>2009-07-10T10:10:39Z</time>
      </trkpt>
      <trkpt lat="43.74902" lon="7.1421">
        <ele>480</ele>
        <time>2009-07-10T10:10:44Z</time>
      </trkpt>
      <trkpt lat="43.74902" lon="7.14218">
        <ele>476</ele>
        <time>2009-07-10T10:10:50Z</time>
      </trkpt>
      <trkpt lat="43.74893" lon="7.14218">
        <ele>475</ele>
        <time>2009-07-10T10:10:52Z</time>
      </trkpt>
      <trkpt lat="43.74872" lon="7.14222">
        <ele>471</ele>
        <time>2009-07-10T10:10:56Z</time>
      </trkpt>
      <trkpt lat="43.74865" lon="7.14222">
        <ele>469</ele>
        <time>2009-07-10T10:10:57Z</time>
      </trkpt>
      <trkpt lat="43.74847" lon="7.14222">
        <ele>466</ele>
        <time>2009-07-10T10:11:01Z</time>
      </trkpt>
      <trkpt lat="43.74838" lon="7.14223">
        <ele>464</ele>
        <time>2009-07-10T10:11:03Z</time>
      </trkpt>
      <trkpt lat="43.74817" lon="7.14225">
        <ele>461</ele>
        <time>2009-07-10T10:11:08Z</time>
      </trkpt>
      <trkpt lat="43.74802" lon="7.1423">
        <ele>458</ele>
        <time>2009-07-10T10:11:13Z</time>
      </trkpt>
      <trkpt lat="43.74793" lon="7.14232">
        <ele>457</ele>
        <time>2009-07-10T10:11:16Z</time>
      </trkpt>
      <trkpt lat="43.74778" lon="7.14252">
        <ele>454</ele>
        <time>2009-07-10T10:11:23Z</time>
      </trkpt>
      <trkpt lat="43.74765" lon="7.14267">
        <ele>452</ele>
        <time>2009-07-10T10:11:37Z</time>
      </trkpt>
      <trkpt lat="43.74767" lon="7.14268">
        <ele>451</ele>
        <time>2009-07-10T10:12:36Z</time>
      </trkpt>
      <trkpt lat="43.74788" lon="7.14298">
        <ele>449</ele>
        <time>2009-07-10T10:12:48Z</time>
      </trkpt>
      <trkpt lat="43.74797" lon="7.14317">
        <ele>446</ele>
        <time>2009-07-10T10:13:01Z</time>
      </trkpt>
      <trkpt lat="43.74798" lon="7.14325">
        <ele>446</ele>
        <time>2009-07-10T10:13:08Z</time>
      </trkpt>
      <trkpt lat="43.74787" lon="7.14328">
        <ele>446</ele>
        <time>2009-07-10T10:13:22Z</time>
      </trkpt>
      <trkpt lat="43.74788" lon="7.1433">
        <ele>445</ele>
        <time>2009-07-10T10:14:11Z</time>
      </trkpt>
      <trkpt lat="43.74822" lon="7.14332">
        <ele>444</ele>
        <time>2009-07-10T10:14:25Z</time>
      </trkpt>
      <trkpt lat="43.7484" lon="7.14358">
        <ele>444</ele>
        <time>2009-07-10T10:14:36Z</time>
      </trkpt>
      <trkpt lat="43.74848" lon="7.14365">
        <ele>444</ele>
        <time>2009-07-10T10:14:44Z</time>
      </trkpt>
      <trkpt lat="43.74855" lon="7.14373">
        <ele>443</ele>
        <time>2009-07-10T10:14:57Z</time>
      </trkpt>
      <trkpt lat="43.74857" lon="7.14375">
        <ele>443</ele>
        <time>2009-07-10T10:16:31Z</time>
      </trkpt>
      <trkpt lat="43.74862" lon="7.14363">
        <ele>443</ele>
        <time>2009-07-10T10:16:35Z</time>
      </trkpt>
      <trkpt lat="43.74888" lon="7.14368">
        <ele>442</ele>
        <time>2009-07-10T10:16:46Z</time>
      </trkpt>
      <trkpt lat="43.74915" lon="7.14378">
        <ele>441</ele>
        <time>2009-07-10T10:16:52Z</time>
      </trkpt>
      <trkpt lat="43.74935" lon="7.14387">
        <ele>440</ele>
        <time>2009-07-10T10:16:56Z</time>
      </trkpt>
      <trkpt lat="43.74947" lon="7.14392">
        <ele>440</ele>
        <time>2009-07-10T10:16:58Z</time>
      </trkpt>
      <trkpt lat="43.7498" lon="7.1441">
        <ele>439</ele>
        <time>2009-07-10T10:17:04Z</time>
      </trkpt>
      <trkpt lat="43.75017" lon="7.14425">
        <ele>437</ele>
        <time>2009-07-10T10:17:10Z</time>
      </trkpt>
      <trkpt lat="43.75025" lon="7.14447">
        <ele>434</ele>
        <time>2009-07-10T10:17:18Z</time>
      </trkpt>
      <trkpt lat="43.75022" lon="7.14445">
        <ele>433</ele>
        <time>2009-07-10T10:17:21Z</time>
      </trkpt>
      <trkpt lat="43.75002" lon="7.14433">
        <ele>431</ele>
        <time>2009-07-10T10:17:36Z</time>
      </trkpt>
      <trkpt lat="43.74993" lon="7.14437">
        <ele>429</ele>
        <time>2009-07-10T10:17:40Z</time>
      </trkpt>
      <trkpt lat="43.7499" lon="7.14448">
        <ele>427</ele>
        <time>2009-07-10T10:17:43Z</time>
      </trkpt>
      <trkpt lat="43.74975" lon="7.145">
        <ele>426</ele>
        <time>2009-07-10T10:17:53Z</time>
      </trkpt>
      <trkpt lat="43.74975" lon="7.14507">
        <ele>426</ele>
        <time>2009-07-10T10:17:55Z</time>
      </trkpt>
      <trkpt lat="43.74967" lon="7.14515">
        <ele>427</ele>
        <time>2009-07-10T10:18:01Z</time>
      </trkpt>
      <trkpt lat="43.74963" lon="7.14537">
        <ele>426</ele>
        <time>2009-07-10T10:18:07Z</time>
      </trkpt>
      <trkpt lat="43.7496" lon="7.14567">
        <ele>424</ele>
        <time>2009-07-10T10:18:11Z</time>
      </trkpt>
      <trkpt lat="43.74948" lon="7.14628">
        <ele>420</ele>
        <time>2009-07-10T10:18:18Z</time>
      </trkpt>
      <trkpt lat="43.74932" lon="7.14682">
        <ele>417</ele>
        <time>2009-07-10T10:18:23Z</time>
      </trkpt>
      <trkpt lat="43.74912" lon="7.1474">
        <ele>414</ele>
        <time>2009-07-10T10:18:28Z</time>
      </trkpt>
      <trkpt lat="43.74898" lon="7.14798">
        <ele>410</ele>
        <time>2009-07-10T10:18:33Z</time>
      </trkpt>
      <trkpt lat="43.7489" lon="7.1482">
        <ele>409</ele>
        <time>2009-07-10T10:18:35Z</time>
      </trkpt>
      <trkpt lat="43.74863" lon="7.14855">
        <ele>406</ele>
        <time>2009-07-10T10:18:39Z</time>
      </trkpt>
      <trkpt lat="43.74825" lon="7.14887">
        <ele>403</ele>
        <time>2009-07-10T10:18:43Z</time>
      </trkpt>
      <trkpt lat="43.74797" lon="7.14943">
        <ele>399</ele>
        <time>2009-07-10T10:18:48Z</time>
      </trkpt>
      <trkpt lat="43.74793" lon="7.14957">
        <ele>398</ele>
        <time>2009-07-10T10:18:49Z</time>
      </trkpt>
      <trkpt lat="43.74798" lon="7.15017">
        <ele>394</ele>
        <time>2009-07-10T10:18:54Z</time>
      </trkpt>
      <trkpt lat="43.74818" lon="7.15055">
        <ele>392</ele>
        <time>2009-07-10T10:18:57Z</time>
      </trkpt>
      <trkpt lat="43.74842" lon="7.15103">
        <ele>389</ele>
        <time>2009-07-10T10:19:01Z</time>
      </trkpt>
      <trkpt lat="43.74853" lon="7.15142">
        <ele>386</ele>
        <time>2009-07-10T10:19:04Z</time>
      </trkpt>
      <trkpt lat="43.74855" lon="7.15215">
        <ele>383</ele>
        <time>2009-07-10T10:19:10Z</time>
      </trkpt>
      <trkpt lat="43.7488" lon="7.15308">
        <ele>384</ele>
        <time>2009-07-10T10:20:31Z</time>
      </trkpt>
      <trkpt lat="43.74893" lon="7.15338">
        <ele>386</ele>
        <time>2009-07-10T10:20:45Z</time>
      </trkpt>
      <trkpt lat="43.74897" lon="7.15345">
        <ele>387</ele>
        <time>2009-07-10T10:20:50Z</time>
      </trkpt>
      <trkpt lat="43.74898" lon="7.15357">
        <ele>388</ele>
        <time>2009-07-10T10:20:59Z</time>
      </trkpt>
      <trkpt lat="43.74905" lon="7.15372">
        <ele>388</ele>
        <time>2009-07-10T10:21:06Z</time>
      </trkpt>
      <trkpt lat="43.74913" lon="7.15407">
        <ele>389</ele>
        <time>2009-07-10T10:21:22Z</time>
      </trkpt>
      <trkpt lat="43.74927" lon="7.15452">
        <ele>390</ele>
        <time>2009-07-10T10:21:37Z</time>
      </trkpt>
      <trkpt lat="43.74945" lon="7.15483">
        <ele>392</ele>
        <time>2009-07-10T10:21:50Z</time>
      </trkpt>
      <trkpt lat="43.74962" lon="7.15523">
        <ele>391</ele>
        <time>2009-07-10T10:22:04Z</time>
      </trkpt>
      <trkpt lat="43.74985" lon="7.1556">
        <ele>394</ele>
        <time>2009-07-10T10:22:19Z</time>
      </trkpt>
      <trkpt lat="43.74998" lon="7.15597">
        <ele>396</ele>
        <time>2009-07-10T10:22:32Z</time>
      </trkpt>
      <trkpt lat="43.75012" lon="7.15637">
        <ele>397</ele>
        <time>2009-07-10T10:22:46Z</time>
      </trkpt>
      <trkpt lat="43.7502" lon="7.15672">
        <ele>395</ele>
        <time>2009-07-10T10:22:58Z</time>
      </trkpt>
      <trkpt lat="43.75023" lon="7.157">
        <ele>392</ele>
        <time>2009-07-10T10:23:04Z</time>
      </trkpt>
      <trkpt lat="43.75023" lon="7.15707">
        <ele>391</ele>
        <time>2009-07-10T10:23:05Z</time>
      </trkpt>
      <trkpt lat="43.75032" lon="7.15735">
        <ele>388</ele>
        <time>2009-07-10T10:23:09Z</time>
      </trkpt>
      <trkpt lat="43.75048" lon="7.1576">
        <ele>386</ele>
        <time>2009-07-10T10:23:13Z</time>
      </trkpt>
      <trkpt lat="43.75062" lon="7.15777">
        <ele>384</ele>
        <time>2009-07-10T10:23:19Z</time>
      </trkpt>
      <trkpt lat="43.7509" lon="7.15805">
        <ele>383</ele>
        <time>2009-07-10T10:23:31Z</time>
      </trkpt>
      <trkpt lat="43.75107" lon="7.15815">
        <ele>382</ele>
        <time>2009-07-10T10:23:35Z</time>
      </trkpt>
      <trkpt lat="43.75123" lon="7.15825">
        <ele>382</ele>
        <time>2009-07-10T10:23:39Z</time>
      </trkpt>
      <trkpt lat="43.75148" lon="7.15847">
        <ele>381</ele>
        <time>2009-07-10T10:23:46Z</time>
      </trkpt>
      <trkpt lat="43.75195" lon="7.15907">
        <ele>380</ele>
        <time>2009-07-10T10:23:59Z</time>
      </trkpt>
      <trkpt lat="43.75207" lon="7.15933">
        <ele>380</ele>
        <time>2009-07-10T10:24:03Z</time>
      </trkpt>
      <trkpt lat="43.75258" lon="7.16018">
        <ele>380</ele>
        <time>2009-07-10T10:24:19Z</time>
      </trkpt>
      <trkpt lat="43.75292" lon="7.16075">
        <ele>381</ele>
        <time>2009-07-10T10:24:31Z</time>
      </trkpt>
      <trkpt lat="43.75325" lon="7.16118">
        <ele>383</ele>
        <time>2009-07-10T10:24:44Z</time>
      </trkpt>
      <trkpt lat="43.7537" lon="7.16153">
        <ele>384</ele>
        <time>2009-07-10T10:24:58Z</time>
      </trkpt>
      <trkpt lat="43.7539" lon="7.16172">
        <ele>385</ele>
        <time>2009-07-10T10:25:07Z</time>
      </trkpt>
      <trkpt lat="43.75418" lon="7.16188">
        <ele>385</ele>
        <time>2009-07-10T10:25:20Z</time>
      </trkpt>
      <trkpt lat="43.7545" lon="7.16247">
        <ele>386</ele>
        <time>2009-07-10T10:25:36Z</time>
      </trkpt>
      <trkpt lat="43.75485" lon="7.1631">
        <ele>387</ele>
        <time>2009-07-10T10:25:54Z</time>
      </trkpt>
      <trkpt lat="43.75517" lon="7.16343">
        <ele>389</ele>
        <time>2009-07-10T10:26:08Z</time>
      </trkpt>
      <trkpt lat="43.75547" lon="7.16368">
        <ele>390</ele>
        <time>2009-07-10T10:26:20Z</time>
      </trkpt>
      <trkpt lat="43.75585" lon="7.16395">
        <ele>392</ele>
        <time>2009-07-10T10:26:35Z</time>
      </trkpt>
      <trkpt lat="43.75613" lon="7.16433">
        <ele>393</ele>
        <time>2009-07-10T10:26:48Z</time>
      </trkpt>
      <trkpt lat="43.75645" lon="7.1647">
        <ele>395</ele>
        <time>2009-07-10T10:27:04Z</time>
      </trkpt>
      <trkpt lat="43.7567" lon="7.16488">
        <ele>398</ele>
        <time>2009-07-10T10:27:15Z</time>
      </trkpt>
      <trkpt lat="43.75688" lon="7.16502">
        <ele>399</ele>
        <time>2009-07-10T10:27:22Z</time>
      </trkpt>
      <trkpt lat="43.75715" lon="7.16533">
        <ele>402</ele>
        <time>2009-07-10T10:27:36Z</time>
      </trkpt>
      <trkpt lat="43.75752" lon="7.16562">
        <ele>405</ele>
        <time>2009-07-10T10:27:52Z</time>
      </trkpt>
      <trkpt lat="43.75785" lon="7.16588">
        <ele>407</ele>
        <time>2009-07-10T10:28:07Z</time>
      </trkpt>
      <trkpt lat="43.75792" lon="7.16592">
        <ele>408</ele>
        <time>2009-07-10T10:28:10Z</time>
      </trkpt>
      <trkpt lat="43.75802" lon="7.166">
        <ele>409</ele>
        <time>2009-07-10T10:28:15Z</time>
      </trkpt>
      <trkpt lat="43.7583" lon="7.16618">
        <ele>411</ele>
        <time>2009-07-10T10:28:28Z</time>
      </trkpt>
      <trkpt lat="43.75858" lon="7.16622">
        <ele>413</ele>
        <time>2009-07-10T10:28:39Z</time>
      </trkpt>
      <trkpt lat="43.75897" lon="7.16623">
        <ele>414</ele>
        <time>2009-07-10T10:28:52Z</time>
      </trkpt>
      <trkpt lat="43.7594" lon="7.16643">
        <ele>414</ele>
        <time>2009-07-10T10:29:07Z</time>
      </trkpt>
      <trkpt lat="43.75975" lon="7.16698">
        <ele>415</ele>
        <time>2009-07-10T10:29:24Z</time>
      </trkpt>
      <trkpt lat="43.75992" lon="7.16728">
        <ele>415</ele>
        <time>2009-07-10T10:29:38Z</time>
      </trkpt>
      <trkpt lat="43.75987" lon="7.1674">
        <ele>410</ele>
        <time>2009-07-10T10:32:04Z</time>
      </trkpt>
      <trkpt lat="43.75982" lon="7.16742">
        <ele>408</ele>
        <time>2009-07-10T10:32:08Z</time>
      </trkpt>
      <trkpt lat="43.75968" lon="7.1672">
        <ele>404</ele>
        <time>2009-07-10T10:32:20Z</time>
      </trkpt>
      <trkpt lat="43.75965" lon="7.16715">
        <ele>402</ele>
        <time>2009-07-10T10:32:31Z</time>
      </trkpt>
      <trkpt lat="43.75962" lon="7.16717">
        <ele>401</ele>
        <time>2009-07-10T10:32:37Z</time>
      </trkpt>
      <trkpt lat="43.7595" lon="7.16732">
        <ele>397</ele>
        <time>2009-07-10T10:32:51Z</time>
      </trkpt>
      <trkpt lat="43.75943" lon="7.16748">
        <ele>394</ele>
        <time>2009-07-10T10:33:01Z</time>
      </trkpt>
      <trkpt lat="43.7595" lon="7.1678">
        <ele>394</ele>
        <time>2009-07-10T10:33:12Z</time>
      </trkpt>
      <trkpt lat="43.75953" lon="7.16787">
        <ele>394</ele>
        <time>2009-07-10T10:33:16Z</time>
      </trkpt>
      <trkpt lat="43.75958" lon="7.16795">
        <ele>394</ele>
        <time>2009-07-10T10:33:23Z</time>
      </trkpt>
      <trkpt lat="43.75965" lon="7.16822">
        <ele>392</ele>
        <time>2009-07-10T10:33:37Z</time>
      </trkpt>
      <trkpt lat="43.75967" lon="7.16835">
        <ele>390</ele>
        <time>2009-07-10T10:33:46Z</time>
      </trkpt>
      <trkpt lat="43.75973" lon="7.16842">
        <ele>388</ele>
        <time>2009-07-10T10:34:02Z</time>
      </trkpt>
      <trkpt lat="43.75975" lon="7.16853">
        <ele>387</ele>
        <time>2009-07-10T10:34:18Z</time>
      </trkpt>
      <trkpt lat="43.75975" lon="7.1687">
        <ele>385</ele>
        <time>2009-07-10T10:34:36Z</time>
      </trkpt>
      <trkpt lat="43.75973" lon="7.16877">
        <ele>382</ele>
        <time>2009-07-10T10:34:45Z</time>
      </trkpt>
      <trkpt lat="43.75972" lon="7.16883">
        <ele>381</ele>
        <time>2009-07-10T10:34:49Z</time>
      </trkpt>
      <trkpt lat="43.7597" lon="7.16897">
        <ele>378</ele>
        <time>2009-07-10T10:35:00Z</time>
      </trkpt>
      <trkpt lat="43.75975" lon="7.16933">
        <ele>375</ele>
        <time>2009-07-10T10:35:10Z</time>
      </trkpt>
      <trkpt lat="43.7598" lon="7.16953">
        <ele>373</ele>
        <time>2009-07-10T10:35:15Z</time>
      </trkpt>
      <trkpt lat="43.75992" lon="7.1698">
        <ele>369</ele>
        <time>2009-07-10T10:35:25Z</time>
      </trkpt>
      <trkpt lat="43.75992" lon="7.17013">
        <ele>367</ele>
        <time>2009-07-10T10:35:35Z</time>
      </trkpt>
      <trkpt lat="43.75992" lon="7.17038">
        <ele>365</ele>
        <time>2009-07-10T10:35:46Z</time>
      </trkpt>
      <trkpt lat="43.75993" lon="7.17042">
        <ele>364</ele>
        <time>2009-07-10T10:38:46Z</time>
      </trkpt>
      <trkpt lat="43.75993" lon="7.17055">
        <ele>364</ele>
        <time>2009-07-10T10:38:50Z</time>
      </trkpt>
      <trkpt lat="43.7599" lon="7.17095">
        <ele>360</ele>
        <time>2009-07-10T10:38:57Z</time>
      </trkpt>
      <trkpt lat="43.75988" lon="7.17115">
        <ele>358</ele>
        <time>2009-07-10T10:39:00Z</time>
      </trkpt>
      <trkpt lat="43.75983" lon="7.1714">
        <ele>354</ele>
        <time>2009-07-10T10:39:04Z</time>
      </trkpt>
      <trkpt lat="43.75982" lon="7.17147">
        <ele>353</ele>
        <time>2009-07-10T10:39:05Z</time>
      </trkpt>
      <trkpt lat="43.75967" lon="7.17183">
        <ele>349</ele>
        <time>2009-07-10T10:39:10Z</time>
      </trkpt>
      <trkpt lat="43.75955" lon="7.17212">
        <ele>345</ele>
        <time>2009-07-10T10:39:14Z</time>
      </trkpt>
      <trkpt lat="43.75953" lon="7.17217">
        <ele>345</ele>
        <time>2009-07-10T10:39:15Z</time>
      </trkpt>
      <trkpt lat="43.75952" lon="7.17248">
        <ele>342</ele>
        <time>2009-07-10T10:39:19Z</time>
      </trkpt>
      <trkpt lat="43.75952" lon="7.17283">
        <ele>338</ele>
        <time>2009-07-10T10:39:24Z</time>
      </trkpt>
      <trkpt lat="43.75945" lon="7.17315">
        <ele>333</ele>
        <time>2009-07-10T10:39:28Z</time>
      </trkpt>
      <trkpt lat="43.75942" lon="7.1733">
        <ele>329</ele>
        <time>2009-07-10T10:39:30Z</time>
      </trkpt>
      <trkpt lat="43.75938" lon="7.17345">
        <ele>327</ele>
        <time>2009-07-10T10:39:32Z</time>
      </trkpt>
      <trkpt lat="43.75918" lon="7.17362">
        <ele>322</ele>
        <time>2009-07-10T10:39:37Z</time>
      </trkpt>
      <trkpt lat="43.75922" lon="7.17388">
        <ele>319</ele>
        <time>2009-07-10T10:39:42Z</time>
      </trkpt>
      <trkpt lat="43.7593" lon="7.17393">
        <ele>318</ele>
        <time>2009-07-10T10:39:45Z</time>
      </trkpt>
      <trkpt lat="43.7594" lon="7.17388">
        <ele>316</ele>
        <time>2009-07-10T10:39:58Z</time>
      </trkpt>
      <trkpt lat="43.75955" lon="7.17377">
        <ele>313</ele>
        <time>2009-07-10T10:40:05Z</time>
      </trkpt>
      <trkpt lat="43.7597" lon="7.1737">
        <ele>310</ele>
        <time>2009-07-10T10:40:10Z</time>
      </trkpt>
      <trkpt lat="43.75993" lon="7.17355">
        <ele>308</ele>
        <time>2009-07-10T10:40:20Z</time>
      </trkpt>
      <trkpt lat="43.76022" lon="7.17317">
        <ele>307</ele>
        <time>2009-07-10T10:40:32Z</time>
      </trkpt>
      <trkpt lat="43.76023" lon="7.17313">
        <ele>307</ele>
        <time>2009-07-10T10:40:33Z</time>
      </trkpt>
      <trkpt lat="43.7605" lon="7.1732">
        <ele>303</ele>
        <time>2009-07-10T10:40:39Z</time>
      </trkpt>
      <trkpt lat="43.76047" lon="7.17347">
        <ele>301</ele>
        <time>2009-07-10T10:40:43Z</time>
      </trkpt>
      <trkpt lat="43.76008" lon="7.17408">
        <ele>301</ele>
        <time>2009-07-10T10:40:54Z</time>
      </trkpt>
      <trkpt lat="43.75963" lon="7.17457">
        <ele>298</ele>
        <time>2009-07-10T10:41:08Z</time>
      </trkpt>
      <trkpt lat="43.75965" lon="7.17478">
        <ele>296</ele>
        <time>2009-07-10T10:41:12Z</time>
      </trkpt>
      <trkpt lat="43.75968" lon="7.17487">
        <ele>295</ele>
        <time>2009-07-10T10:41:14Z</time>
      </trkpt>
      <trkpt lat="43.76" lon="7.17498">
        <ele>291</ele>
        <time>2009-07-10T10:41:21Z</time>
      </trkpt>
      <trkpt lat="43.76025" lon="7.17478">
        <ele>287</ele>
        <time>2009-07-10T10:41:26Z</time>
      </trkpt>
      <trkpt lat="43.76043" lon="7.17453">
        <ele>284</ele>
        <time>2009-07-10T10:41:30Z</time>
      </trkpt>
      <trkpt lat="43.7606" lon="7.17437">
        <ele>280</ele>
        <time>2009-07-10T10:41:35Z</time>
      </trkpt>
      <trkpt lat="43.76063" lon="7.1744">
        <ele>279</ele>
        <time>2009-07-10T10:41:37Z</time>
      </trkpt>
      <trkpt lat="43.76058" lon="7.1747">
        <ele>278</ele>
        <time>2009-07-10T10:41:44Z</time>
      </trkpt>
      <trkpt lat="43.76032" lon="7.17542">
        <ele>277</ele>
        <time>2009-07-10T10:41:59Z</time>
      </trkpt>
      <trkpt lat="43.76002" lon="7.17588">
        <ele>275</ele>
        <time>2009-07-10T10:42:12Z</time>
      </trkpt>
      <trkpt lat="43.76002" lon="7.17612">
        <ele>275</ele>
        <time>2009-07-10T10:42:23Z</time>
      </trkpt>
      <trkpt lat="43.75992" lon="7.17603">
        <ele>273</ele>
        <time>2009-07-10T10:49:34Z</time>
      </trkpt>
      <trkpt lat="43.76007" lon="7.1761">
        <ele>273</ele>
        <time>2009-07-10T10:50:29Z</time>
      </trkpt>
      <trkpt lat="43.76002" lon="7.17608">
        <ele>273</ele>
        <time>2009-07-10T10:52:09Z</time>
      </trkpt>
      <trkpt lat="43.76008" lon="7.17613">
        <ele>273</ele>
        <time>2009-07-10T10:52:46Z</time>
      </trkpt>
      <trkpt lat="43.76002" lon="7.1761">
        <ele>273</ele>
        <time>2009-07-10T10:53:57Z</time>
      </trkpt>
      <trkpt lat="43.7601" lon="7.17617">
        <ele>273</ele>
        <time>2009-07-10T10:56:00Z</time>
      </trkpt>
      <trkpt lat="43.76012" lon="7.17618">
        <ele>272</ele>
        <time>2009-07-10T10:58:20Z</time>
      </trkpt>
      <trkpt lat="43.76025" lon="7.17608">
        <ele>272</ele>
        <time>2009-07-10T10:58:31Z</time>
      </trkpt>
      <trkpt lat="43.76048" lon="7.1758">
        <ele>271</ele>
        <time>2009-07-10T10:58:45Z</time>
      </trkpt>
      <trkpt lat="43.76065" lon="7.1755">
        <ele>269</ele>
        <time>2009-07-10T10:58:55Z</time>
      </trkpt>
      <trkpt lat="43.76085" lon="7.17515">
        <ele>266</ele>
        <time>2009-07-10T10:59:09Z</time>
      </trkpt>
      <trkpt lat="43.76088" lon="7.17508">
        <ele>266</ele>
        <time>2009-07-10T10:59:40Z</time>
      </trkpt>
      <trkpt lat="43.76088" lon="7.17508">
        <ele>265</ele>
        <time>2009-07-10T11:00:16Z</time>
      </trkpt>
      <trkpt lat="43.76122" lon="7.17507">
        <ele>264</ele>
        <time>2009-07-10T11:00:28Z</time>
      </trkpt>
      <trkpt lat="43.7614" lon="7.17513">
        <ele>263</ele>
        <time>2009-07-10T11:00:34Z</time>
      </trkpt>
      <trkpt lat="43.76175" lon="7.17542">
        <ele>261</ele>
        <time>2009-07-10T11:00:42Z</time>
      </trkpt>
      <trkpt lat="43.76215" lon="7.17558">
        <ele>258</ele>
        <time>2009-07-10T11:00:49Z</time>
      </trkpt>
      <trkpt lat="43.76235" lon="7.17558">
        <ele>257</ele>
        <time>2009-07-10T11:00:52Z</time>
      </trkpt>
      <trkpt lat="43.76248" lon="7.17567">
        <ele>256</ele>
        <time>2009-07-10T11:00:54Z</time>
      </trkpt>
      <trkpt lat="43.76302" lon="7.17615">
        <ele>253</ele>
        <time>2009-07-10T11:01:02Z</time>
      </trkpt>
      <trkpt lat="43.76325" lon="7.17628">
        <ele>252</ele>
        <time>2009-07-10T11:01:05Z</time>
      </trkpt>
      <trkpt lat="43.76353" lon="7.17657">
        <ele>251</ele>
        <time>2009-07-10T11:01:09Z</time>
      </trkpt>
      <trkpt lat="43.76375" lon="7.17675">
        <ele>250</ele>
        <time>2009-07-10T11:01:12Z</time>
      </trkpt>
      <trkpt lat="43.76383" lon="7.1768">
        <ele>249</ele>
        <time>2009-07-10T11:01:13Z</time>
      </trkpt>
      <trkpt lat="43.76403" lon="7.17705">
        <ele>248</ele>
        <time>2009-07-10T11:01:16Z</time>
      </trkpt>
      <trkpt lat="43.7642" lon="7.17733">
        <ele>246</ele>
        <time>2009-07-10T11:01:19Z</time>
      </trkpt>
      <trkpt lat="43.76448" lon="7.17758">
        <ele>244</ele>
        <time>2009-07-10T11:01:23Z</time>
      </trkpt>
      <trkpt lat="43.76482" lon="7.1778">
        <ele>242</ele>
        <time>2009-07-10T11:01:27Z</time>
      </trkpt>
      <trkpt lat="43.7652" lon="7.1779">
        <ele>240</ele>
        <time>2009-07-10T11:01:31Z</time>
      </trkpt>
      <trkpt lat="43.7656" lon="7.1782">
        <ele>238</ele>
        <time>2009-07-10T11:01:36Z</time>
      </trkpt>
      <trkpt lat="43.76582" lon="7.1784">
        <ele>237</ele>
        <time>2009-07-10T11:01:39Z</time>
      </trkpt>
      <trkpt lat="43.76602" lon="7.1788">
        <ele>235</ele>
        <time>2009-07-10T11:01:43Z</time>
      </trkpt>
      <trkpt lat="43.7665" lon="7.17947">
        <ele>230</ele>
        <time>2009-07-10T11:01:51Z</time>
      </trkpt>
      <trkpt lat="43.76698" lon="7.1793">
        <ele>228</ele>
        <time>2009-07-10T11:01:56Z</time>
      </trkpt>
      <trkpt lat="43.76715" lon="7.17913">
        <ele>227</ele>
        <time>2009-07-10T11:01:58Z</time>
      </trkpt>
      <trkpt lat="43.7677" lon="7.17883">
        <ele>224</ele>
        <time>2009-07-10T11:02:04Z</time>
      </trkpt>
      <trkpt lat="43.76813" lon="7.17855">
        <ele>221</ele>
        <time>2009-07-10T11:02:09Z</time>
      </trkpt>
      <trkpt lat="43.76835" lon="7.17802">
        <ele>219</ele>
        <time>2009-07-10T11:02:14Z</time>
      </trkpt>
      <trkpt lat="43.76837" lon="7.17747">
        <ele>216</ele>
        <time>2009-07-10T11:02:18Z</time>
      </trkpt>
      <trkpt lat="43.76855" lon="7.17717">
        <ele>215</ele>
        <time>2009-07-10T11:02:23Z</time>
      </trkpt>
      <trkpt lat="43.76862" lon="7.17742">
        <ele>213</ele>
        <time>2009-07-10T11:02:26Z</time>
      </trkpt>
      <trkpt lat="43.76883" lon="7.17848">
        <ele>209</ele>
        <time>2009-07-10T11:02:36Z</time>
      </trkpt>
      <trkpt lat="43.76888" lon="7.17872">
        <ele>208</ele>
        <time>2009-07-10T11:02:38Z</time>
      </trkpt>
      <trkpt lat="43.76887" lon="7.17972">
        <ele>204</ele>
        <time>2009-07-10T11:02:47Z</time>
      </trkpt>
      <trkpt lat="43.76915" lon="7.18025">
        <ele>202</ele>
        <time>2009-07-10T11:02:53Z</time>
      </trkpt>
      <trkpt lat="43.76923" lon="7.18027">
        <ele>201</ele>
        <time>2009-07-10T11:02:54Z</time>
      </trkpt>
      <trkpt lat="43.76952" lon="7.1803">
        <ele>199</ele>
        <time>2009-07-10T11:02:57Z</time>
      </trkpt>
      <trkpt lat="43.76978" lon="7.18067">
        <ele>197</ele>
        <time>2009-07-10T11:03:03Z</time>
      </trkpt>
      <trkpt lat="43.76968" lon="7.18117">
        <ele>194</ele>
        <time>2009-07-10T11:03:08Z</time>
      </trkpt>
      <trkpt lat="43.76972" lon="7.18128">
        <ele>194</ele>
        <time>2009-07-10T11:03:09Z</time>
      </trkpt>
      <trkpt lat="43.7701" lon="7.18177">
        <ele>191</ele>
        <time>2009-07-10T11:03:15Z</time>
      </trkpt>
      <trkpt lat="43.77018" lon="7.1818">
        <ele>190</ele>
        <time>2009-07-10T11:03:16Z</time>
      </trkpt>
      <trkpt lat="43.77038" lon="7.18187">
        <ele>189</ele>
        <time>2009-07-10T11:03:18Z</time>
      </trkpt>
      <trkpt lat="43.77057" lon="7.18193">
        <ele>188</ele>
        <time>2009-07-10T11:03:20Z</time>
      </trkpt>
      <trkpt lat="43.77093" lon="7.18227">
        <ele>186</ele>
        <time>2009-07-10T11:03:25Z</time>
      </trkpt>
      <trkpt lat="43.77088" lon="7.1828">
        <ele>183</ele>
        <time>2009-07-10T11:03:30Z</time>
      </trkpt>
      <trkpt lat="43.77082" lon="7.18288">
        <ele>183</ele>
        <time>2009-07-10T11:03:31Z</time>
      </trkpt>
      <trkpt lat="43.77072" lon="7.1836">
        <ele>179</ele>
        <time>2009-07-10T11:03:38Z</time>
      </trkpt>
      <trkpt lat="43.771" lon="7.1839">
        <ele>177</ele>
        <time>2009-07-10T11:03:42Z</time>
      </trkpt>
      <trkpt lat="43.7711" lon="7.1841">
        <ele>176</ele>
        <time>2009-07-10T11:03:44Z</time>
      </trkpt>
      <trkpt lat="43.77118" lon="7.18437">
        <ele>175</ele>
        <time>2009-07-10T11:03:46Z</time>
      </trkpt>
      <trkpt lat="43.77122" lon="7.18448">
        <ele>174</ele>
        <time>2009-07-10T11:03:47Z</time>
      </trkpt>
      <trkpt lat="43.7714" lon="7.18478">
        <ele>173</ele>
        <time>2009-07-10T11:03:50Z</time>
      </trkpt>
      <trkpt lat="43.77147" lon="7.18487">
        <ele>172</ele>
        <time>2009-07-10T11:03:51Z</time>
      </trkpt>
      <trkpt lat="43.77157" lon="7.18515">
        <ele>171</ele>
        <time>2009-07-10T11:03:54Z</time>
      </trkpt>
      <trkpt lat="43.77155" lon="7.18527">
        <ele>170</ele>
        <time>2009-07-10T11:03:55Z</time>
      </trkpt>
      <trkpt lat="43.77177" lon="7.1858">
        <ele>168</ele>
        <time>2009-07-10T11:04:01Z</time>
      </trkpt>
      <trkpt lat="43.77217" lon="7.18583">
        <ele>165</ele>
        <time>2009-07-10T11:04:06Z</time>
      </trkpt>
      <trkpt lat="43.7722" lon="7.18593">
        <ele>165</ele>
        <time>2009-07-10T11:04:07Z</time>
      </trkpt>
      <trkpt lat="43.77222" lon="7.18605">
        <ele>164</ele>
        <time>2009-07-10T11:04:08Z</time>
      </trkpt>
      <trkpt lat="43.77248" lon="7.18643">
        <ele>162</ele>
        <time>2009-07-10T11:04:13Z</time>
      </trkpt>
      <trkpt lat="43.77267" lon="7.18642">
        <ele>160</ele>
        <time>2009-07-10T11:04:15Z</time>
      </trkpt>
      <trkpt lat="43.77313" lon="7.1863">
        <ele>157</ele>
        <time>2009-07-10T11:04:20Z</time>
      </trkpt>
      <trkpt lat="43.77333" lon="7.18668">
        <ele>155</ele>
        <time>2009-07-10T11:04:25Z</time>
      </trkpt>
      <trkpt lat="43.77303" lon="7.18693">
        <ele>153</ele>
        <time>2009-07-10T11:04:29Z</time>
      </trkpt>
      <trkpt lat="43.7725" lon="7.1871">
        <ele>150</ele>
        <time>2009-07-10T11:04:35Z</time>
      </trkpt>
      <trkpt lat="43.77197" lon="7.18735">
        <ele>147</ele>
        <time>2009-07-10T11:04:41Z</time>
      </trkpt>
      <trkpt lat="43.77162" lon="7.18753">
        <ele>145</ele>
        <time>2009-07-10T11:04:45Z</time>
      </trkpt>
      <trkpt lat="43.77143" lon="7.18763">
        <ele>144</ele>
        <time>2009-07-10T11:04:47Z</time>
      </trkpt>
      <trkpt lat="43.77095" lon="7.18812">
        <ele>140</ele>
        <time>2009-07-10T11:04:53Z</time>
      </trkpt>
      <trkpt lat="43.7707" lon="7.18825">
        <ele>139</ele>
        <time>2009-07-10T11:04:56Z</time>
      </trkpt>
      <trkpt lat="43.77035" lon="7.1884">
        <ele>137</ele>
        <time>2009-07-10T11:05:01Z</time>
      </trkpt>
      <trkpt lat="43.77012" lon="7.18842">
        <ele>136</ele>
        <time>2009-07-10T11:05:04Z</time>
      </trkpt>
      <trkpt lat="43.76993" lon="7.18845">
        <ele>135</ele>
        <time>2009-07-10T11:05:06Z</time>
      </trkpt>
      <trkpt lat="43.76975" lon="7.18848">
        <ele>134</ele>
        <time>2009-07-10T11:05:08Z</time>
      </trkpt>
      <trkpt lat="43.76958" lon="7.18853">
        <ele>133</ele>
        <time>2009-07-10T11:05:10Z</time>
      </trkpt>
      <trkpt lat="43.76938" lon="7.18897">
        <ele>130</ele>
        <time>2009-07-10T11:05:16Z</time>
      </trkpt>
      <trkpt lat="43.7696" lon="7.1891">
        <ele>128</ele>
        <time>2009-07-10T11:05:19Z</time>
      </trkpt>
      <trkpt lat="43.77002" lon="7.18912">
        <ele>126</ele>
        <time>2009-07-10T11:05:24Z</time>
      </trkpt>
      <trkpt lat="43.77058" lon="7.1891">
        <ele>124</ele>
        <time>2009-07-10T11:05:30Z</time>
      </trkpt>
      <trkpt lat="43.77102" lon="7.18893">
        <ele>121</ele>
        <time>2009-07-10T11:05:35Z</time>
      </trkpt>
      <trkpt lat="43.7712" lon="7.18913">
        <ele>119</ele>
        <time>2009-07-10T11:05:41Z</time>
      </trkpt>
      <trkpt lat="43.77115" lon="7.1892">
        <ele>119</ele>
        <time>2009-07-10T11:05:42Z</time>
      </trkpt>
      <trkpt lat="43.77107" lon="7.18932">
        <ele>118</ele>
        <time>2009-07-10T11:05:44Z</time>
      </trkpt>
      <trkpt lat="43.77077" lon="7.18962">
        <ele>117</ele>
        <time>2009-07-10T11:05:50Z</time>
      </trkpt>
      <trkpt lat="43.7704" lon="7.18983">
        <ele>115</ele>
        <time>2009-07-10T11:05:56Z</time>
      </trkpt>
      <trkpt lat="43.77013" lon="7.18985">
        <ele>115</ele>
        <time>2009-07-10T11:06:00Z</time>
      </trkpt>
      <trkpt lat="43.76982" lon="7.18997">
        <ele>113</ele>
        <time>2009-07-10T11:06:05Z</time>
      </trkpt>
      <trkpt lat="43.76955" lon="7.18993">
        <ele>112</ele>
        <time>2009-07-10T11:06:09Z</time>
      </trkpt>
      <trkpt lat="43.7691" lon="7.18997">
        <ele>110</ele>
        <time>2009-07-10T11:06:15Z</time>
      </trkpt>
      <trkpt lat="43.7688" lon="7.18992">
        <ele>109</ele>
        <time>2009-07-10T11:06:19Z</time>
      </trkpt>
      <trkpt lat="43.76865" lon="7.18983">
        <ele>109</ele>
        <time>2009-07-10T11:06:21Z</time>
      </trkpt>
      <trkpt lat="43.7685" lon="7.1898">
        <ele>108</ele>
        <time>2009-07-10T11:06:23Z</time>
      </trkpt>
      <trkpt lat="43.76808" lon="7.18973">
        <ele>106</ele>
        <time>2009-07-10T11:06:28Z</time>
      </trkpt>
      <trkpt lat="43.76778" lon="7.18977">
        <ele>106</ele>
        <time>2009-07-10T11:06:32Z</time>
      </trkpt>
      <trkpt lat="43.767" lon="7.19012">
        <ele>102</ele>
        <time>2009-07-10T11:06:43Z</time>
      </trkpt>
      <trkpt lat="43.7668" lon="7.19015">
        <ele>102</ele>
        <time>2009-07-10T11:06:46Z</time>
      </trkpt>
      <trkpt lat="43.76653" lon="7.1904">
        <ele>102</ele>
        <time>2009-07-10T11:06:51Z</time>
      </trkpt>
      <trkpt lat="43.76627" lon="7.1908">
        <ele>101</ele>
        <time>2009-07-10T11:06:57Z</time>
      </trkpt>
      <trkpt lat="43.76595" lon="7.19215">
        <ele>100</ele>
        <time>2009-07-10T11:07:13Z</time>
      </trkpt>
      <trkpt lat="43.76595" lon="7.19233">
        <ele>99</ele>
        <time>2009-07-10T11:07:15Z</time>
      </trkpt>
      <trkpt lat="43.76637" lon="7.19343">
        <ele>96</ele>
        <time>2009-07-10T11:07:29Z</time>
      </trkpt>
      <trkpt lat="43.7667" lon="7.19422">
        <ele>94</ele>
        <time>2009-07-10T11:07:39Z</time>
      </trkpt>
      <trkpt lat="43.76685" lon="7.19565">
        <ele>92</ele>
        <time>2009-07-10T11:07:55Z</time>
      </trkpt>
      <trkpt lat="43.76687" lon="7.19592">
        <ele>91</ele>
        <time>2009-07-10T11:07:58Z</time>
      </trkpt>
      <trkpt lat="43.76678" lon="7.19662">
        <ele>90</ele>
        <time>2009-07-10T11:08:05Z</time>
      </trkpt>
      <trkpt lat="43.76692" lon="7.19748">
        <ele>86</ele>
        <time>2009-07-10T11:08:14Z</time>
      </trkpt>
      <trkpt lat="43.76693" lon="7.19757">
        <ele>86</ele>
        <time>2009-07-10T11:08:15Z</time>
      </trkpt>
      <trkpt lat="43.767" lon="7.19773">
        <ele>85</ele>
        <time>2009-07-10T11:08:17Z</time>
      </trkpt>
      <trkpt lat="43.76715" lon="7.19802">
        <ele>83</ele>
        <time>2009-07-10T11:08:27Z</time>
      </trkpt>
      <trkpt lat="43.7673" lon="7.19832">
        <ele>81</ele>
        <time>2009-07-10T11:09:27Z</time>
      </trkpt>
      <trkpt lat="43.76737" lon="7.19855">
        <ele>79</ele>
        <time>2009-07-10T11:09:31Z</time>
      </trkpt>
      <trkpt lat="43.76723" lon="7.19883">
        <ele>78</ele>
        <time>2009-07-10T11:09:39Z</time>
      </trkpt>
      <trkpt lat="43.7671" lon="7.19878">
        <ele>78</ele>
        <time>2009-07-10T11:09:43Z</time>
      </trkpt>
      <trkpt lat="43.76708" lon="7.19822">
        <ele>75</ele>
        <time>2009-07-10T11:09:53Z</time>
      </trkpt>
      <trkpt lat="43.7669" lon="7.19813">
        <ele>74</ele>
        <time>2009-07-10T11:09:58Z</time>
      </trkpt>
      <trkpt lat="43.76675" lon="7.19845">
        <ele>73</ele>
        <time>2009-07-10T11:10:07Z</time>
      </trkpt>
      <trkpt lat="43.76692" lon="7.19885">
        <ele>72</ele>
        <time>2009-07-10T11:10:15Z</time>
      </trkpt>
      <trkpt lat="43.76688" lon="7.1996">
        <ele>73</ele>
        <time>2009-07-10T11:10:29Z</time>
      </trkpt>
      <trkpt lat="43.76673" lon="7.20005">
        <ele>75</ele>
        <time>2009-07-10T11:10:40Z</time>
      </trkpt>
      <trkpt lat="43.76638" lon="7.20042">
        <ele>76</ele>
        <time>2009-07-10T11:10:54Z</time>
      </trkpt>
      <trkpt lat="43.7662" lon="7.20072">
        <ele>76</ele>
        <time>2009-07-10T11:11:06Z</time>
      </trkpt>
      <trkpt lat="43.76598" lon="7.20103">
        <ele>75</ele>
        <time>2009-07-10T11:11:15Z</time>
      </trkpt>
      <trkpt lat="43.76587" lon="7.20165">
        <ele>75</ele>
        <time>2009-07-10T11:11:28Z</time>
      </trkpt>
      <trkpt lat="43.76575" lon="7.20185">
        <ele>75</ele>
        <time>2009-07-10T11:11:39Z</time>
      </trkpt>
      <trkpt lat="43.76563" lon="7.20212">
        <ele>74</ele>
        <time>2009-07-10T11:13:37Z</time>
      </trkpt>
      <trkpt lat="43.76525" lon="7.20287">
        <ele>75</ele>
        <time>2009-07-10T11:13:53Z</time>
      </trkpt>
      <trkpt lat="43.76483" lon="7.20363">
        <ele>75</ele>
        <time>2009-07-10T11:14:09Z</time>
      </trkpt>
      <trkpt lat="43.7644" lon="7.20438">
        <ele>75</ele>
        <time>2009-07-10T11:14:25Z</time>
      </trkpt>
      <trkpt lat="43.76413" lon="7.2049">
        <ele>74</ele>
        <time>2009-07-10T11:14:37Z</time>
      </trkpt>
      <trkpt lat="43.76405" lon="7.20493">
        <ele>74</ele>
        <time>2009-07-10T11:14:40Z</time>
      </trkpt>
      <trkpt lat="43.76398" lon="7.20508">
        <ele>74</ele>
        <time>2009-07-10T11:14:47Z</time>
      </trkpt>
      <trkpt lat="43.76393" lon="7.20523">
        <ele>74</ele>
        <time>2009-07-10T11:14:54Z</time>
      </trkpt>
      <trkpt lat="43.764" lon="7.20545">
        <ele>74</ele>
        <time>2009-07-10T11:15:01Z</time>
      </trkpt>
      <trkpt lat="43.76405" lon="7.20558">
        <ele>74</ele>
        <time>2009-07-10T11:15:07Z</time>
      </trkpt>
      <trkpt lat="43.76413" lon="7.20562">
        <ele>74</ele>
        <time>2009-07-10T11:15:23Z</time>
      </trkpt>
      <trkpt lat="43.76408" lon="7.2056">
        <ele>74</ele>
        <time>2009-07-10T11:15:46Z</time>
      </trkpt>
      <trkpt lat="43.76402" lon="7.2056">
        <ele>74</ele>
        <time>2009-07-10T11:16:36Z</time>
      </trkpt>
      <trkpt lat="43.764" lon="7.2056">
        <ele>74</ele>
        <time>2009-07-10T11:17:44Z</time>
      </trkpt>
      <trkpt lat="43.7639" lon="7.20572">
        <ele>75</ele>
        <time>2009-07-10T11:17:52Z</time>
      </trkpt>
      <trkpt lat="43.76373" lon="7.20605">
        <ele>78</ele>
        <time>2009-07-10T11:18:06Z</time>
      </trkpt>
      <trkpt lat="43.76342" lon="7.20632">
        <ele>78</ele>
        <time>2009-07-10T11:18:21Z</time>
      </trkpt>
      <trkpt lat="43.76297" lon="7.20647">
        <ele>77</ele>
        <time>2009-07-10T11:18:34Z</time>
      </trkpt>
      <trkpt lat="43.76282" lon="7.20652">
        <ele>76</ele>
        <time>2009-07-10T11:18:38Z</time>
      </trkpt>
      <trkpt lat="43.76287" lon="7.20675">
        <ele>76</ele>
        <time>2009-07-10T11:18:44Z</time>
      </trkpt>
      <trkpt lat="43.7632" lon="7.20695">
        <ele>77</ele>
        <time>2009-07-10T11:18:56Z</time>
      </trkpt>
      <trkpt lat="43.7635" lon="7.20728">
        <ele>78</ele>
        <time>2009-07-10T11:19:08Z</time>
      </trkpt>
      <trkpt lat="43.76378" lon="7.20772">
        <ele>78</ele>
        <time>2009-07-10T11:19:21Z</time>
      </trkpt>
      <trkpt lat="43.76415" lon="7.20815">
        <ele>79</ele>
        <time>2009-07-10T11:19:36Z</time>
      </trkpt>
      <trkpt lat="43.76437" lon="7.20827">
        <ele>79</ele>
        <time>2009-07-10T11:19:43Z</time>
      </trkpt>
      <trkpt lat="43.76452" lon="7.2084">
        <ele>79</ele>
        <time>2009-07-10T11:19:48Z</time>
      </trkpt>
      <trkpt lat="43.7646" lon="7.20842">
        <ele>79</ele>
        <time>2009-07-10T11:19:50Z</time>
      </trkpt>
      <trkpt lat="43.76465" lon="7.20855">
        <ele>79</ele>
        <time>2009-07-10T11:19:54Z</time>
      </trkpt>
      <trkpt lat="43.76497" lon="7.20865">
        <ele>79</ele>
        <time>2009-07-10T11:20:04Z</time>
      </trkpt>
      <trkpt lat="43.76532" lon="7.20872">
        <ele>79</ele>
        <time>2009-07-10T11:20:16Z</time>
      </trkpt>
      <trkpt lat="43.76592" lon="7.20873">
        <ele>79</ele>
        <time>2009-07-10T11:20:32Z</time>
      </trkpt>
      <trkpt lat="43.76653" lon="7.20883">
        <ele>77</ele>
        <time>2009-07-10T11:20:46Z</time>
      </trkpt>
      <trkpt lat="43.76723" lon="7.20903">
        <ele>75</ele>
        <time>2009-07-10T11:20:58Z</time>
      </trkpt>
      <trkpt lat="43.76728" lon="7.20903">
        <ele>75</ele>
        <time>2009-07-10T11:20:59Z</time>
      </trkpt>
      <trkpt lat="43.76755" lon="7.20918">
        <ele>75</ele>
        <time>2009-07-10T11:21:06Z</time>
      </trkpt>
      <trkpt lat="43.76822" lon="7.20993">
        <ele>75</ele>
        <time>2009-07-10T11:21:25Z</time>
      </trkpt>
      <trkpt lat="43.7689" lon="7.21063">
        <ele>75</ele>
        <time>2009-07-10T11:21:43Z</time>
      </trkpt>
      <trkpt lat="43.76947" lon="7.21122">
        <ele>76</ele>
        <time>2009-07-10T11:21:58Z</time>
      </trkpt>
      <trkpt lat="43.77013" lon="7.21192">
        <ele>76</ele>
        <time>2009-07-10T11:22:16Z</time>
      </trkpt>
      <trkpt lat="43.77083" lon="7.21265">
        <ele>77</ele>
        <time>2009-07-10T11:22:35Z</time>
      </trkpt>
      <trkpt lat="43.77148" lon="7.21332">
        <ele>78</ele>
        <time>2009-07-10T11:22:53Z</time>
      </trkpt>
      <trkpt lat="43.7717" lon="7.21353">
        <ele>78</ele>
        <time>2009-07-10T11:22:59Z</time>
      </trkpt>
      <trkpt lat="43.77172" lon="7.2136">
        <ele>78</ele>
        <time>2009-07-10T11:23:00Z</time>
      </trkpt>
      <trkpt lat="43.77172" lon="7.21365">
        <ele>78</ele>
        <time>2009-07-10T11:23:01Z</time>
      </trkpt>
      <trkpt lat="43.77167" lon="7.21382">
        <ele>78</ele>
        <time>2009-07-10T11:23:04Z</time>
      </trkpt>
      <trkpt lat="43.77142" lon="7.21462">
        <ele>78</ele>
        <time>2009-07-10T11:23:20Z</time>
      </trkpt>
      <trkpt lat="43.77123" lon="7.21523">
        <ele>80</ele>
        <time>2009-07-10T11:23:33Z</time>
      </trkpt>
      <trkpt lat="43.77148" lon="7.21587">
        <ele>81</ele>
        <time>2009-07-10T11:23:47Z</time>
      </trkpt>
      <trkpt lat="43.77165" lon="7.21667">
        <ele>82</ele>
        <time>2009-07-10T11:24:03Z</time>
      </trkpt>
      <trkpt lat="43.77178" lon="7.21747">
        <ele>85</ele>
        <time>2009-07-10T11:24:21Z</time>
      </trkpt>
      <trkpt lat="43.7718" lon="7.21802">
        <ele>87</ele>
        <time>2009-07-10T11:24:35Z</time>
      </trkpt>
      <trkpt lat="43.77177" lon="7.21868">
        <ele>90</ele>
        <time>2009-07-10T11:24:52Z</time>
      </trkpt>
      <trkpt lat="43.77177" lon="7.21927">
        <ele>92</ele>
        <time>2009-07-10T11:25:07Z</time>
      </trkpt>
      <trkpt lat="43.7718" lon="7.21982">
        <ele>94</ele>
        <time>2009-07-10T11:25:21Z</time>
      </trkpt>
      <trkpt lat="43.77193" lon="7.2205">
        <ele>97</ele>
        <time>2009-07-10T11:25:39Z</time>
      </trkpt>
      <trkpt lat="43.77208" lon="7.22118">
        <ele>99</ele>
        <time>2009-07-10T11:25:57Z</time>
      </trkpt>
      <trkpt lat="43.77222" lon="7.2219">
        <ele>101</ele>
        <time>2009-07-10T11:26:15Z</time>
      </trkpt>
      <trkpt lat="43.7721" lon="7.22238">
        <ele>103</ele>
        <time>2009-07-10T11:26:27Z</time>
      </trkpt>
      <trkpt lat="43.77198" lon="7.22292">
        <ele>105</ele>
        <time>2009-07-10T11:26:42Z</time>
      </trkpt>
      <trkpt lat="43.7721" lon="7.22333">
        <ele>107</ele>
        <time>2009-07-10T11:26:55Z</time>
      </trkpt>
      <trkpt lat="43.77218" lon="7.22365">
        <ele>110</ele>
        <time>2009-07-10T11:27:09Z</time>
      </trkpt>
      <trkpt lat="43.77235" lon="7.22373">
        <ele>112</ele>
        <time>2009-07-10T11:27:20Z</time>
      </trkpt>
      <trkpt lat="43.77253" lon="7.22377">
        <ele>115</ele>
        <time>2009-07-10T11:27:32Z</time>
      </trkpt>
      <trkpt lat="43.77257" lon="7.2238">
        <ele>116</ele>
        <time>2009-07-10T11:27:34Z</time>
      </trkpt>
      <trkpt lat="43.77263" lon="7.22382">
        <ele>117</ele>
        <time>2009-07-10T11:27:38Z</time>
      </trkpt>
      <trkpt lat="43.77268" lon="7.22385">
        <ele>118</ele>
        <time>2009-07-10T11:27:43Z</time>
      </trkpt>
      <trkpt lat="43.77287" lon="7.224">
        <ele>122</ele>
        <time>2009-07-10T11:27:56Z</time>
      </trkpt>
      <trkpt lat="43.7729" lon="7.22403">
        <ele>122</ele>
        <time>2009-07-10T11:27:59Z</time>
      </trkpt>
      <trkpt lat="43.77293" lon="7.22405">
        <ele>123</ele>
        <time>2009-07-10T11:28:01Z</time>
      </trkpt>
      <trkpt lat="43.77308" lon="7.22413">
        <ele>126</ele>
        <time>2009-07-10T11:28:13Z</time>
      </trkpt>
      <trkpt lat="43.77328" lon="7.22423">
        <ele>128</ele>
        <time>2009-07-10T11:28:26Z</time>
      </trkpt>
      <trkpt lat="43.7735" lon="7.22427">
        <ele>132</ele>
        <time>2009-07-10T11:28:39Z</time>
      </trkpt>
      <trkpt lat="43.77358" lon="7.22437">
        <ele>133</ele>
        <time>2009-07-10T11:28:47Z</time>
      </trkpt>
      <trkpt lat="43.7735" lon="7.22445">
        <ele>133</ele>
        <time>2009-07-10T11:28:52Z</time>
      </trkpt>
      <trkpt lat="43.7732" lon="7.22437">
        <ele>137</ele>
        <time>2009-07-10T11:29:07Z</time>
      </trkpt>
      <trkpt lat="43.77305" lon="7.22438">
        <ele>140</ele>
        <time>2009-07-10T11:29:18Z</time>
      </trkpt>
      <trkpt lat="43.77293" lon="7.22438">
        <ele>141</ele>
        <time>2009-07-10T11:29:25Z</time>
      </trkpt>
      <trkpt lat="43.7728" lon="7.2246">
        <ele>144</ele>
        <time>2009-07-10T11:29:39Z</time>
      </trkpt>
      <trkpt lat="43.77282" lon="7.22475">
        <ele>146</ele>
        <time>2009-07-10T11:29:49Z</time>
      </trkpt>
      <trkpt lat="43.77285" lon="7.22475">
        <ele>147</ele>
        <time>2009-07-10T11:29:51Z</time>
      </trkpt>
      <trkpt lat="43.77305" lon="7.22463">
        <ele>149</ele>
        <time>2009-07-10T11:30:06Z</time>
      </trkpt>
      <trkpt lat="43.77307" lon="7.22463">
        <ele>150</ele>
        <time>2009-07-10T11:30:07Z</time>
      </trkpt>
      <trkpt lat="43.77313" lon="7.22463">
        <ele>151</ele>
        <time>2009-07-10T11:30:11Z</time>
      </trkpt>
      <trkpt lat="43.7732" lon="7.2247">
        <ele>152</ele>
        <time>2009-07-10T11:30:17Z</time>
      </trkpt>
      <trkpt lat="43.77305" lon="7.22487">
        <ele>155</ele>
        <time>2009-07-10T11:30:29Z</time>
      </trkpt>
      <trkpt lat="43.77298" lon="7.22502">
        <ele>157</ele>
        <time>2009-07-10T11:30:40Z</time>
      </trkpt>
      <trkpt lat="43.77305" lon="7.2251">
        <ele>159</ele>
        <time>2009-07-10T11:30:48Z</time>
      </trkpt>
      <trkpt lat="43.77312" lon="7.22508">
        <ele>160</ele>
        <time>2009-07-10T11:30:52Z</time>
      </trkpt>
      <trkpt lat="43.77317" lon="7.22507">
        <ele>161</ele>
        <time>2009-07-10T11:30:55Z</time>
      </trkpt>
      <trkpt lat="43.77323" lon="7.22512">
        <ele>162</ele>
        <time>2009-07-10T11:31:01Z</time>
      </trkpt>
      <trkpt lat="43.77307" lon="7.2253">
        <ele>165</ele>
        <time>2009-07-10T11:31:18Z</time>
      </trkpt>
      <trkpt lat="43.773" lon="7.22537">
        <ele>167</ele>
        <time>2009-07-10T11:31:23Z</time>
      </trkpt>
      <trkpt lat="43.77298" lon="7.22542">
        <ele>167</ele>
        <time>2009-07-10T11:31:26Z</time>
      </trkpt>
      <trkpt lat="43.77308" lon="7.22553">
        <ele>169</ele>
        <time>2009-07-10T11:31:39Z</time>
      </trkpt>
      <trkpt lat="43.7733" lon="7.22555">
        <ele>172</ele>
        <time>2009-07-10T11:31:54Z</time>
      </trkpt>
      <trkpt lat="43.77332" lon="7.2256">
        <ele>173</ele>
        <time>2009-07-10T11:31:56Z</time>
      </trkpt>
      <trkpt lat="43.77315" lon="7.2257">
        <ele>175</ele>
        <time>2009-07-10T11:32:08Z</time>
      </trkpt>
      <trkpt lat="43.77307" lon="7.22582">
        <ele>177</ele>
        <time>2009-07-10T11:32:17Z</time>
      </trkpt>
      <trkpt lat="43.77308" lon="7.22595">
        <ele>178</ele>
        <time>2009-07-10T11:33:31Z</time>
      </trkpt>
      <trkpt lat="43.77297" lon="7.22592">
        <ele>177</ele>
        <time>2009-07-10T11:33:44Z</time>
      </trkpt>
      <trkpt lat="43.77293" lon="7.22587">
        <ele>177</ele>
        <time>2009-07-10T11:37:26Z</time>
      </trkpt>
      <trkpt lat="43.77278" lon="7.22595">
        <ele>178</ele>
        <time>2009-07-10T11:38:38Z</time>
      </trkpt>
      <trkpt lat="43.77268" lon="7.2261">
        <ele>179</ele>
        <time>2009-07-10T11:38:48Z</time>
      </trkpt>
      <trkpt lat="43.77253" lon="7.22632">
        <ele>183</ele>
        <time>2009-07-10T11:39:04Z</time>
      </trkpt>
      <trkpt lat="43.77245" lon="7.22638">
        <ele>184</ele>
        <time>2009-07-10T11:39:12Z</time>
      </trkpt>
      <trkpt lat="43.77242" lon="7.22647">
        <ele>186</ele>
        <time>2009-07-10T11:39:18Z</time>
      </trkpt>
      <trkpt lat="43.7724" lon="7.22657">
        <ele>187</ele>
        <time>2009-07-10T11:39:23Z</time>
      </trkpt>
      <trkpt lat="43.77235" lon="7.22672">
        <ele>188</ele>
        <time>2009-07-10T11:39:31Z</time>
      </trkpt>
      <trkpt lat="43.77227" lon="7.22668">
        <ele>189</ele>
        <time>2009-07-10T11:39:39Z</time>
      </trkpt>
      <trkpt lat="43.77205" lon="7.22663">
        <ele>191</ele>
        <time>2009-07-10T11:39:53Z</time>
      </trkpt>
      <trkpt lat="43.77185" lon="7.22662">
        <ele>193</ele>
        <time>2009-07-10T11:40:06Z</time>
      </trkpt>
      <trkpt lat="43.77183" lon="7.22655">
        <ele>194</ele>
        <time>2009-07-10T11:40:10Z</time>
      </trkpt>
      <trkpt lat="43.77185" lon="7.2264">
        <ele>195</ele>
        <time>2009-07-10T11:40:16Z</time>
      </trkpt>
      <trkpt lat="43.77193" lon="7.22605">
        <ele>197</ele>
        <time>2009-07-10T11:40:32Z</time>
      </trkpt>
      <trkpt lat="43.77192" lon="7.22593">
        <ele>198</ele>
        <time>2009-07-10T11:40:37Z</time>
      </trkpt>
      <trkpt lat="43.77183" lon="7.2259">
        <ele>199</ele>
        <time>2009-07-10T11:40:43Z</time>
      </trkpt>
      <trkpt lat="43.77177" lon="7.22622">
        <ele>202</ele>
        <time>2009-07-10T11:40:58Z</time>
      </trkpt>
      <trkpt lat="43.7716" lon="7.22655">
        <ele>203</ele>
        <time>2009-07-10T11:41:16Z</time>
      </trkpt>
      <trkpt lat="43.77157" lon="7.22665">
        <ele>204</ele>
        <time>2009-07-10T11:41:21Z</time>
      </trkpt>
      <trkpt lat="43.77162" lon="7.2269">
        <ele>207</ele>
        <time>2009-07-10T11:41:32Z</time>
      </trkpt>
      <trkpt lat="43.77175" lon="7.22707">
        <ele>210</ele>
        <time>2009-07-10T11:41:43Z</time>
      </trkpt>
      <trkpt lat="43.77198" lon="7.22713">
        <ele>214</ele>
        <time>2009-07-10T11:41:56Z</time>
      </trkpt>
      <trkpt lat="43.77215" lon="7.22728">
        <ele>216</ele>
        <time>2009-07-10T11:42:09Z</time>
      </trkpt>
      <trkpt lat="43.7724" lon="7.22743">
        <ele>219</ele>
        <time>2009-07-10T11:42:26Z</time>
      </trkpt>
      <trkpt lat="43.77258" lon="7.22735">
        <ele>221</ele>
        <time>2009-07-10T11:42:38Z</time>
      </trkpt>
      <trkpt lat="43.77273" lon="7.22737">
        <ele>223</ele>
        <time>2009-07-10T11:42:49Z</time>
      </trkpt>
      <trkpt lat="43.77272" lon="7.2277">
        <ele>226</ele>
        <time>2009-07-10T11:43:04Z</time>
      </trkpt>
      <trkpt lat="43.77258" lon="7.22798">
        <ele>229</ele>
        <time>2009-07-10T11:43:19Z</time>
      </trkpt>
      <trkpt lat="43.77245" lon="7.22823">
        <ele>232</ele>
        <time>2009-07-10T11:43:34Z</time>
      </trkpt>
      <trkpt lat="43.7724" lon="7.2281">
        <ele>233</ele>
        <time>2009-07-10T11:43:43Z</time>
      </trkpt>
      <trkpt lat="43.77242" lon="7.22785">
        <ele>237</ele>
        <time>2009-07-10T11:43:56Z</time>
      </trkpt>
      <trkpt lat="43.7723" lon="7.22785">
        <ele>238</ele>
        <time>2009-07-10T11:44:03Z</time>
      </trkpt>
      <trkpt lat="43.77223" lon="7.22782">
        <ele>239</ele>
        <time>2009-07-10T11:44:07Z</time>
      </trkpt>
      <trkpt lat="43.77218" lon="7.2278">
        <ele>240</ele>
        <time>2009-07-10T11:44:11Z</time>
      </trkpt>
      <trkpt lat="43.7718" lon="7.22785">
        <ele>241</ele>
        <time>2009-07-10T11:44:28Z</time>
      </trkpt>
      <trkpt lat="43.77158" lon="7.22807">
        <ele>241</ele>
        <time>2009-07-10T11:44:38Z</time>
      </trkpt>
      <trkpt lat="43.77132" lon="7.22852">
        <ele>243</ele>
        <time>2009-07-10T11:44:53Z</time>
      </trkpt>
      <trkpt lat="43.7711" lon="7.22887">
        <ele>245</ele>
        <time>2009-07-10T11:45:07Z</time>
      </trkpt>
      <trkpt lat="43.7711" lon="7.22922">
        <ele>246</ele>
        <time>2009-07-10T11:45:19Z</time>
      </trkpt>
      <trkpt lat="43.77112" lon="7.22963">
        <ele>246</ele>
        <time>2009-07-10T11:45:30Z</time>
      </trkpt>
      <trkpt lat="43.77092" lon="7.22997">
        <ele>248</ele>
        <time>2009-07-10T11:45:43Z</time>
      </trkpt>
      <trkpt lat="43.77077" lon="7.23013">
        <ele>251</ele>
        <time>2009-07-10T11:45:55Z</time>
      </trkpt>
      <trkpt lat="43.77075" lon="7.23042">
        <ele>254</ele>
        <time>2009-07-10T11:46:08Z</time>
      </trkpt>
      <trkpt lat="43.77078" lon="7.23052">
        <ele>256</ele>
        <time>2009-07-10T11:46:15Z</time>
      </trkpt>
      <trkpt lat="43.77082" lon="7.2307">
        <ele>259</ele>
        <time>2009-07-10T11:46:37Z</time>
      </trkpt>
      <trkpt lat="43.77085" lon="7.23075">
        <ele>260</ele>
        <time>2009-07-10T11:46:53Z</time>
      </trkpt>
      <trkpt lat="43.77092" lon="7.231">
        <ele>263</ele>
        <time>2009-07-10T11:47:04Z</time>
      </trkpt>
      <trkpt lat="43.77085" lon="7.23127">
        <ele>266</ele>
        <time>2009-07-10T11:47:16Z</time>
      </trkpt>
      <trkpt lat="43.7707" lon="7.23142">
        <ele>269</ele>
        <time>2009-07-10T11:47:29Z</time>
      </trkpt>
      <trkpt lat="43.77055" lon="7.23148">
        <ele>272</ele>
        <time>2009-07-10T11:47:40Z</time>
      </trkpt>
      <trkpt lat="43.77053" lon="7.23155">
        <ele>273</ele>
        <time>2009-07-10T11:47:43Z</time>
      </trkpt>
      <trkpt lat="43.7705" lon="7.23157">
        <ele>274</ele>
        <time>2009-07-10T11:47:47Z</time>
      </trkpt>
      <trkpt lat="43.77048" lon="7.23162">
        <ele>275</ele>
        <time>2009-07-10T11:47:50Z</time>
      </trkpt>
      <trkpt lat="43.7705" lon="7.23197">
        <ele>277</ele>
        <time>2009-07-10T11:48:05Z</time>
      </trkpt>
      <trkpt lat="43.7705" lon="7.23222">
        <ele>278</ele>
        <time>2009-07-10T11:48:14Z</time>
      </trkpt>
      <trkpt lat="43.77052" lon="7.23225">
        <ele>279</ele>
        <time>2009-07-10T11:48:16Z</time>
      </trkpt>
      <trkpt lat="43.77053" lon="7.23248">
        <ele>282</ele>
        <time>2009-07-10T11:48:31Z</time>
      </trkpt>
      <trkpt lat="43.77053" lon="7.23257">
        <ele>284</ele>
        <time>2009-07-10T11:48:37Z</time>
      </trkpt>
      <trkpt lat="43.77045" lon="7.23285">
        <ele>287</ele>
        <time>2009-07-10T11:48:52Z</time>
      </trkpt>
      <trkpt lat="43.77038" lon="7.23293">
        <ele>289</ele>
        <time>2009-07-10T11:49:01Z</time>
      </trkpt>
      <trkpt lat="43.77035" lon="7.23315">
        <ele>291</ele>
        <time>2009-07-10T11:49:13Z</time>
      </trkpt>
      <trkpt lat="43.77035" lon="7.23317">
        <ele>291</ele>
        <time>2009-07-10T11:49:14Z</time>
      </trkpt>
      <trkpt lat="43.77035" lon="7.23323">
        <ele>292</ele>
        <time>2009-07-10T11:49:17Z</time>
      </trkpt>
      <trkpt lat="43.77032" lon="7.23328">
        <ele>293</ele>
        <time>2009-07-10T11:49:21Z</time>
      </trkpt>
      <trkpt lat="43.77025" lon="7.23325">
        <ele>294</ele>
        <time>2009-07-10T11:49:25Z</time>
      </trkpt>
      <trkpt lat="43.77018" lon="7.23313">
        <ele>295</ele>
        <time>2009-07-10T11:49:34Z</time>
      </trkpt>
      <trkpt lat="43.77015" lon="7.23308">
        <ele>296</ele>
        <time>2009-07-10T11:49:38Z</time>
      </trkpt>
      <trkpt lat="43.77" lon="7.23322">
        <ele>300</ele>
        <time>2009-07-10T11:49:53Z</time>
      </trkpt>
      <trkpt lat="43.77" lon="7.23327">
        <ele>300</ele>
        <time>2009-07-10T11:49:56Z</time>
      </trkpt>
      <trkpt lat="43.77002" lon="7.23337">
        <ele>301</ele>
        <time>2009-07-10T11:50:01Z</time>
      </trkpt>
      <trkpt lat="43.77002" lon="7.23368">
        <ele>304</ele>
        <time>2009-07-10T11:50:16Z</time>
      </trkpt>
      <trkpt lat="43.77002" lon="7.2337">
        <ele>304</ele>
        <time>2009-07-10T11:50:17Z</time>
      </trkpt>
      <trkpt lat="43.77" lon="7.23393">
        <ele>307</ele>
        <time>2009-07-10T11:50:30Z</time>
      </trkpt>
      <trkpt lat="43.76997" lon="7.23398">
        <ele>308</ele>
        <time>2009-07-10T11:50:34Z</time>
      </trkpt>
      <trkpt lat="43.76997" lon="7.23407">
        <ele>309</ele>
        <time>2009-07-10T11:50:39Z</time>
      </trkpt>
      <trkpt lat="43.76997" lon="7.23418">
        <ele>310</ele>
        <time>2009-07-10T11:50:44Z</time>
      </trkpt>
      <trkpt lat="43.76998" lon="7.23447">
        <ele>313</ele>
        <time>2009-07-10T11:50:59Z</time>
      </trkpt>
      <trkpt lat="43.76997" lon="7.2347">
        <ele>316</ele>
        <time>2009-07-10T11:51:13Z</time>
      </trkpt>
      <trkpt lat="43.77002" lon="7.23493">
        <ele>319</ele>
        <time>2009-07-10T11:51:27Z</time>
      </trkpt>
      <trkpt lat="43.77005" lon="7.23503">
        <ele>320</ele>
        <time>2009-07-10T11:51:34Z</time>
      </trkpt>
      <trkpt lat="43.76998" lon="7.2351">
        <ele>322</ele>
        <time>2009-07-10T11:51:41Z</time>
      </trkpt>
      <trkpt lat="43.76978" lon="7.23492">
        <ele>325</ele>
        <time>2009-07-10T11:51:57Z</time>
      </trkpt>
      <trkpt lat="43.76973" lon="7.23483">
        <ele>326</ele>
        <time>2009-07-10T11:52:01Z</time>
      </trkpt>
      <trkpt lat="43.76972" lon="7.23473">
        <ele>327</ele>
        <time>2009-07-10T11:52:05Z</time>
      </trkpt>
      <trkpt lat="43.76963" lon="7.23477">
        <ele>328</ele>
        <time>2009-07-10T11:52:15Z</time>
      </trkpt>
      <trkpt lat="43.76965" lon="7.2349">
        <ele>330</ele>
        <time>2009-07-10T11:52:22Z</time>
      </trkpt>
      <trkpt lat="43.7697" lon="7.23513">
        <ele>334</ele>
        <time>2009-07-10T11:52:35Z</time>
      </trkpt>
      <trkpt lat="43.76985" lon="7.23542">
        <ele>337</ele>
        <time>2009-07-10T11:52:51Z</time>
      </trkpt>
      <trkpt lat="43.76998" lon="7.2356">
        <ele>340</ele>
        <time>2009-07-10T11:53:02Z</time>
      </trkpt>
      <trkpt lat="43.77012" lon="7.23587">
        <ele>343</ele>
        <time>2009-07-10T11:53:14Z</time>
      </trkpt>
      <trkpt lat="43.77035" lon="7.23595">
        <ele>345</ele>
        <time>2009-07-10T11:53:26Z</time>
      </trkpt>
      <trkpt lat="43.7706" lon="7.23587">
        <ele>348</ele>
        <time>2009-07-10T11:53:39Z</time>
      </trkpt>
      <trkpt lat="43.7708" lon="7.23597">
        <ele>352</ele>
        <time>2009-07-10T11:53:50Z</time>
      </trkpt>
      <trkpt lat="43.77087" lon="7.236">
        <ele>353</ele>
        <time>2009-07-10T11:53:54Z</time>
      </trkpt>
      <trkpt lat="43.77087" lon="7.23608">
        <ele>354</ele>
        <time>2009-07-10T11:54:00Z</time>
      </trkpt>
      <trkpt lat="43.77075" lon="7.23605">
        <ele>355</ele>
        <time>2009-07-10T11:54:08Z</time>
      </trkpt>
      <trkpt lat="43.77052" lon="7.23617">
        <ele>357</ele>
        <time>2009-07-10T11:54:22Z</time>
      </trkpt>
      <trkpt lat="43.77028" lon="7.23627">
        <ele>360</ele>
        <time>2009-07-10T11:54:35Z</time>
      </trkpt>
      <trkpt lat="43.77008" lon="7.2363">
        <ele>361</ele>
        <time>2009-07-10T11:54:50Z</time>
      </trkpt>
      <trkpt lat="43.76998" lon="7.23635">
        <ele>362</ele>
        <time>2009-07-10T11:55:06Z</time>
      </trkpt>
      <trkpt lat="43.77007" lon="7.23638">
        <ele>363</ele>
        <time>2009-07-10T11:55:22Z</time>
      </trkpt>
      <trkpt lat="43.77008" lon="7.23637">
        <ele>365</ele>
        <time>2009-07-10T12:15:03Z</time>
      </trkpt>
      <trkpt lat="43.77037" lon="7.23633">
        <ele>366</ele>
        <time>2009-07-10T12:15:19Z</time>
      </trkpt>
      <trkpt lat="43.77058" lon="7.2363">
        <ele>368</ele>
        <time>2009-07-10T12:15:33Z</time>
      </trkpt>
      <trkpt lat="43.7707" lon="7.2363">
        <ele>370</ele>
        <time>2009-07-10T12:15:39Z</time>
      </trkpt>
      <trkpt lat="43.77087" lon="7.23637">
        <ele>372</ele>
        <time>2009-07-10T12:15:53Z</time>
      </trkpt>
      <trkpt lat="43.77103" lon="7.23647">
        <ele>375</ele>
        <time>2009-07-10T12:16:07Z</time>
      </trkpt>
      <trkpt lat="43.77117" lon="7.23652">
        <ele>377</ele>
        <time>2009-07-10T12:16:19Z</time>
      </trkpt>
      <trkpt lat="43.7714" lon="7.23652">
        <ele>379</ele>
        <time>2009-07-10T12:16:34Z</time>
      </trkpt>
      <trkpt lat="43.77165" lon="7.23678">
        <ele>378</ele>
        <time>2009-07-10T12:16:47Z</time>
      </trkpt>
      <trkpt lat="43.77187" lon="7.2369">
        <ele>378</ele>
        <time>2009-07-10T12:17:00Z</time>
      </trkpt>
      <trkpt lat="43.77217" lon="7.23695">
        <ele>380</ele>
        <time>2009-07-10T12:17:13Z</time>
      </trkpt>
      <trkpt lat="43.77243" lon="7.23697">
        <ele>382</ele>
        <time>2009-07-10T12:17:27Z</time>
      </trkpt>
      <trkpt lat="43.77265" lon="7.2371">
        <ele>384</ele>
        <time>2009-07-10T12:17:40Z</time>
      </trkpt>
      <trkpt lat="43.77288" lon="7.23717">
        <ele>386</ele>
        <time>2009-07-10T12:17:56Z</time>
      </trkpt>
      <trkpt lat="43.77308" lon="7.23708">
        <ele>389</ele>
        <time>2009-07-10T12:18:11Z</time>
      </trkpt>
      <trkpt lat="43.77322" lon="7.23697">
        <ele>391</ele>
        <time>2009-07-10T12:18:23Z</time>
      </trkpt>
      <trkpt lat="43.7734" lon="7.23693">
        <ele>394</ele>
        <time>2009-07-10T12:18:37Z</time>
      </trkpt>
      <trkpt lat="43.7736" lon="7.237">
        <ele>397</ele>
        <time>2009-07-10T12:18:52Z</time>
      </trkpt>
      <trkpt lat="43.77377" lon="7.23707">
        <ele>399</ele>
        <time>2009-07-10T12:19:04Z</time>
      </trkpt>
      <trkpt lat="43.77397" lon="7.23723">
        <ele>400</ele>
        <time>2009-07-10T12:19:18Z</time>
      </trkpt>
      <trkpt lat="43.77402" lon="7.23737">
        <ele>400</ele>
        <time>2009-07-10T12:19:31Z</time>
      </trkpt>
      <trkpt lat="43.77403" lon="7.23738">
        <ele>400</ele>
        <time>2009-07-10T12:19:37Z</time>
      </trkpt>
      <trkpt lat="43.77413" lon="7.23738">
        <ele>401</ele>
        <time>2009-07-10T12:19:45Z</time>
      </trkpt>
      <trkpt lat="43.77435" lon="7.23742">
        <ele>405</ele>
        <time>2009-07-10T12:19:57Z</time>
      </trkpt>
      <trkpt lat="43.77442" lon="7.2374">
        <ele>406</ele>
        <time>2009-07-10T12:20:00Z</time>
      </trkpt>
      <trkpt lat="43.77458" lon="7.23735">
        <ele>408</ele>
        <time>2009-07-10T12:20:10Z</time>
      </trkpt>
      <trkpt lat="43.7748" lon="7.23737">
        <ele>411</ele>
        <time>2009-07-10T12:20:25Z</time>
      </trkpt>
      <trkpt lat="43.775" lon="7.23753">
        <ele>414</ele>
        <time>2009-07-10T12:20:40Z</time>
      </trkpt>
      <trkpt lat="43.77512" lon="7.23767">
        <ele>417</ele>
        <time>2009-07-10T12:20:50Z</time>
      </trkpt>
      <trkpt lat="43.77527" lon="7.23783">
        <ele>419</ele>
        <time>2009-07-10T12:21:02Z</time>
      </trkpt>
      <trkpt lat="43.77535" lon="7.2379">
        <ele>420</ele>
        <time>2009-07-10T12:21:07Z</time>
      </trkpt>
      <trkpt lat="43.77563" lon="7.23808">
        <ele>421</ele>
        <time>2009-07-10T12:21:23Z</time>
      </trkpt>
      <trkpt lat="43.77593" lon="7.23803">
        <ele>421</ele>
        <time>2009-07-10T12:21:34Z</time>
      </trkpt>
      <trkpt lat="43.7763" lon="7.23812">
        <ele>423</ele>
        <time>2009-07-10T12:21:46Z</time>
      </trkpt>
      <trkpt lat="43.77648" lon="7.2381">
        <ele>426</ele>
        <time>2009-07-10T12:21:57Z</time>
      </trkpt>
      <trkpt lat="43.77667" lon="7.2381">
        <ele>429</ele>
        <time>2009-07-10T12:22:08Z</time>
      </trkpt>
      <trkpt lat="43.77687" lon="7.23807">
        <ele>432</ele>
        <time>2009-07-10T12:22:22Z</time>
      </trkpt>
      <trkpt lat="43.777" lon="7.23805">
        <ele>433</ele>
        <time>2009-07-10T12:22:31Z</time>
      </trkpt>
      <trkpt lat="43.77708" lon="7.23805">
        <ele>433</ele>
        <time>2009-07-10T12:22:36Z</time>
      </trkpt>
      <trkpt lat="43.7773" lon="7.2382">
        <ele>432</ele>
        <time>2009-07-10T12:22:47Z</time>
      </trkpt>
      <trkpt lat="43.77752" lon="7.23853">
        <ele>429</ele>
        <time>2009-07-10T12:22:53Z</time>
      </trkpt>
      <trkpt lat="43.77788" lon="7.2391">
        <ele>426</ele>
        <time>2009-07-10T12:23:00Z</time>
      </trkpt>
      <trkpt lat="43.77813" lon="7.23925">
        <ele>426</ele>
        <time>2009-07-10T12:23:05Z</time>
      </trkpt>
      <trkpt lat="43.77845" lon="7.23942">
        <ele>428</ele>
        <time>2009-07-10T12:23:17Z</time>
      </trkpt>
      <trkpt lat="43.77878" lon="7.2395">
        <ele>430</ele>
        <time>2009-07-10T12:23:32Z</time>
      </trkpt>
      <trkpt lat="43.77913" lon="7.23965">
        <ele>432</ele>
        <time>2009-07-10T12:23:47Z</time>
      </trkpt>
      <trkpt lat="43.77945" lon="7.23987">
        <ele>436</ele>
        <time>2009-07-10T12:24:03Z</time>
      </trkpt>
      <trkpt lat="43.77985" lon="7.2399">
        <ele>438</ele>
        <time>2009-07-10T12:24:20Z</time>
      </trkpt>
      <trkpt lat="43.78017" lon="7.23993">
        <ele>441</ele>
        <time>2009-07-10T12:24:35Z</time>
      </trkpt>
      <trkpt lat="43.78042" lon="7.24002">
        <ele>443</ele>
        <time>2009-07-10T12:24:47Z</time>
      </trkpt>
      <trkpt lat="43.78065" lon="7.24023">
        <ele>446</ele>
        <time>2009-07-10T12:25:02Z</time>
      </trkpt>
      <trkpt lat="43.78083" lon="7.24038">
        <ele>448</ele>
        <time>2009-07-10T12:25:13Z</time>
      </trkpt>
      <trkpt lat="43.78107" lon="7.24045">
        <ele>450</ele>
        <time>2009-07-10T12:25:24Z</time>
      </trkpt>
      <trkpt lat="43.7814" lon="7.24048">
        <ele>452</ele>
        <time>2009-07-10T12:25:38Z</time>
      </trkpt>
      <trkpt lat="43.78178" lon="7.24053">
        <ele>455</ele>
        <time>2009-07-10T12:25:54Z</time>
      </trkpt>
      <trkpt lat="43.78208" lon="7.24047">
        <ele>458</ele>
        <time>2009-07-10T12:26:06Z</time>
      </trkpt>
      <trkpt lat="43.78247" lon="7.24055">
        <ele>459</ele>
        <time>2009-07-10T12:26:20Z</time>
      </trkpt>
      <trkpt lat="43.7827" lon="7.2407">
        <ele>462</ele>
        <time>2009-07-10T12:26:32Z</time>
      </trkpt>
      <trkpt lat="43.78278" lon="7.2409">
        <ele>463</ele>
        <time>2009-07-10T12:26:40Z</time>
      </trkpt>
      <trkpt lat="43.7829" lon="7.2411">
        <ele>467</ele>
        <time>2009-07-10T12:26:50Z</time>
      </trkpt>
      <trkpt lat="43.78292" lon="7.24113">
        <ele>467</ele>
        <time>2009-07-10T12:26:51Z</time>
      </trkpt>
      <trkpt lat="43.78295" lon="7.24117">
        <ele>468</ele>
        <time>2009-07-10T12:26:53Z</time>
      </trkpt>
      <trkpt lat="43.78308" lon="7.24118">
        <ele>471</ele>
        <time>2009-07-10T12:27:00Z</time>
      </trkpt>
      <trkpt lat="43.78313" lon="7.24148">
        <ele>475</ele>
        <time>2009-07-10T12:27:10Z</time>
      </trkpt>
      <trkpt lat="43.78315" lon="7.2416">
        <ele>476</ele>
        <time>2009-07-10T12:27:14Z</time>
      </trkpt>
      <trkpt lat="43.78333" lon="7.24192">
        <ele>479</ele>
        <time>2009-07-10T12:27:27Z</time>
      </trkpt>
      <trkpt lat="43.78352" lon="7.24223">
        <ele>482</ele>
        <time>2009-07-10T12:27:41Z</time>
      </trkpt>
      <trkpt lat="43.78368" lon="7.24252">
        <ele>485</ele>
        <time>2009-07-10T12:27:53Z</time>
      </trkpt>
      <trkpt lat="43.78375" lon="7.24278">
        <ele>488</ele>
        <time>2009-07-10T12:28:04Z</time>
      </trkpt>
      <trkpt lat="43.78385" lon="7.24303">
        <ele>492</ele>
        <time>2009-07-10T12:28:14Z</time>
      </trkpt>
      <trkpt lat="43.78395" lon="7.24317">
        <ele>495</ele>
        <time>2009-07-10T12:28:19Z</time>
      </trkpt>
      <trkpt lat="43.78398" lon="7.24323">
        <ele>496</ele>
        <time>2009-07-10T12:28:21Z</time>
      </trkpt>
      <trkpt lat="43.78418" lon="7.24338">
        <ele>496</ele>
        <time>2009-07-10T12:28:31Z</time>
      </trkpt>
      <trkpt lat="43.7842" lon="7.24342">
        <ele>496</ele>
        <time>2009-07-10T12:28:33Z</time>
      </trkpt>
      <trkpt lat="43.78423" lon="7.24365">
        <ele>495</ele>
        <time>2009-07-10T12:28:47Z</time>
      </trkpt>
      <trkpt lat="43.78427" lon="7.24365">
        <ele>495</ele>
        <time>2009-07-10T12:28:57Z</time>
      </trkpt>
      <trkpt lat="43.78428" lon="7.24355">
        <ele>495</ele>
        <time>2009-07-10T12:29:03Z</time>
      </trkpt>
      <trkpt lat="43.78435" lon="7.24338">
        <ele>495</ele>
        <time>2009-07-10T12:29:15Z</time>
      </trkpt>
      <trkpt lat="43.78433" lon="7.24338">
        <ele>495</ele>
        <time>2009-07-10T12:29:17Z</time>
      </trkpt>
      <trkpt lat="43.78427" lon="7.24355">
        <ele>496</ele>
        <time>2009-07-10T12:29:26Z</time>
      </trkpt>
      <trkpt lat="43.78428" lon="7.24357">
        <ele>495</ele>
        <time>2009-07-10T12:29:28Z</time>
      </trkpt>
      <trkpt lat="43.78432" lon="7.24348">
        <ele>496</ele>
        <time>2009-07-10T12:29:32Z</time>
      </trkpt>
      <trkpt lat="43.7845" lon="7.24345">
        <ele>496</ele>
        <time>2009-07-10T12:29:44Z</time>
      </trkpt>
      <trkpt lat="43.78452" lon="7.24348">
        <ele>496</ele>
        <time>2009-07-10T12:29:59Z</time>
      </trkpt>
      <trkpt lat="43.78452" lon="7.2434">
        <ele>499</ele>
        <time>2009-07-10T12:37:15Z</time>
      </trkpt>
      <trkpt lat="43.78447" lon="7.24343">
        <ele>499</ele>
        <time>2009-07-10T12:38:37Z</time>
      </trkpt>
      <trkpt lat="43.78435" lon="7.24342">
        <ele>499</ele>
        <time>2009-07-10T12:38:43Z</time>
      </trkpt>
      <trkpt lat="43.78433" lon="7.2437">
        <ele>499</ele>
        <time>2009-07-10T12:38:54Z</time>
      </trkpt>
      <trkpt lat="43.78445" lon="7.24378">
        <ele>498</ele>
        <time>2009-07-10T12:39:00Z</time>
      </trkpt>
      <trkpt lat="43.78472" lon="7.24422">
        <ele>496</ele>
        <time>2009-07-10T12:39:11Z</time>
      </trkpt>
      <trkpt lat="43.7848" lon="7.24465">
        <ele>495</ele>
        <time>2009-07-10T12:39:19Z</time>
      </trkpt>
      <trkpt lat="43.78487" lon="7.24482">
        <ele>495</ele>
        <time>2009-07-10T12:39:24Z</time>
      </trkpt>
      <trkpt lat="43.7847" lon="7.2451">
        <ele>497</ele>
        <time>2009-07-10T12:39:36Z</time>
      </trkpt>
      <trkpt lat="43.7845" lon="7.24555">
        <ele>499</ele>
        <time>2009-07-10T12:39:52Z</time>
      </trkpt>
      <trkpt lat="43.78443" lon="7.24592">
        <ele>501</ele>
        <time>2009-07-10T12:40:05Z</time>
      </trkpt>
      <trkpt lat="43.78442" lon="7.24625">
        <ele>502</ele>
        <time>2009-07-10T12:40:16Z</time>
      </trkpt>
      <trkpt lat="43.78418" lon="7.24657">
        <ele>505</ele>
        <time>2009-07-10T12:40:31Z</time>
      </trkpt>
      <trkpt lat="43.78417" lon="7.24662">
        <ele>505</ele>
        <time>2009-07-10T12:40:33Z</time>
      </trkpt>
      <trkpt lat="43.7841" lon="7.2467">
        <ele>506</ele>
        <time>2009-07-10T12:40:39Z</time>
      </trkpt>
      <trkpt lat="43.78405" lon="7.24678">
        <ele>506</ele>
        <time>2009-07-10T12:40:43Z</time>
      </trkpt>
      <trkpt lat="43.78393" lon="7.24712">
        <ele>508</ele>
        <time>2009-07-10T12:40:57Z</time>
      </trkpt>
      <trkpt lat="43.7839" lon="7.24728">
        <ele>509</ele>
        <time>2009-07-10T12:41:04Z</time>
      </trkpt>
      <trkpt lat="43.78388" lon="7.24733">
        <ele>510</ele>
        <time>2009-07-10T12:41:08Z</time>
      </trkpt>
      <trkpt lat="43.78387" lon="7.2475">
        <ele>510</ele>
        <time>2009-07-10T12:41:14Z</time>
      </trkpt>
      <trkpt lat="43.78377" lon="7.2479">
        <ele>512</ele>
        <time>2009-07-10T12:41:28Z</time>
      </trkpt>
      <trkpt lat="43.78375" lon="7.24803">
        <ele>512</ele>
        <time>2009-07-10T12:41:34Z</time>
      </trkpt>
      <trkpt lat="43.78367" lon="7.24833">
        <ele>513</ele>
        <time>2009-07-10T12:41:43Z</time>
      </trkpt>
      <trkpt lat="43.78362" lon="7.24873">
        <ele>514</ele>
        <time>2009-07-10T12:41:56Z</time>
      </trkpt>
      <trkpt lat="43.7836" lon="7.24923">
        <ele>515</ele>
        <time>2009-07-10T12:42:12Z</time>
      </trkpt>
      <trkpt lat="43.7835" lon="7.2497">
        <ele>516</ele>
        <time>2009-07-10T12:42:27Z</time>
      </trkpt>
      <trkpt lat="43.7834" lon="7.25013">
        <ele>518</ele>
        <time>2009-07-10T12:42:39Z</time>
      </trkpt>
      <trkpt lat="43.78327" lon="7.25055">
        <ele>520</ele>
        <time>2009-07-10T12:42:52Z</time>
      </trkpt>
      <trkpt lat="43.78303" lon="7.25097">
        <ele>522</ele>
        <time>2009-07-10T12:43:08Z</time>
      </trkpt>
      <trkpt lat="43.7828" lon="7.25138">
        <ele>524</ele>
        <time>2009-07-10T12:43:24Z</time>
      </trkpt>
      <trkpt lat="43.78255" lon="7.25177">
        <ele>526</ele>
        <time>2009-07-10T12:43:39Z</time>
      </trkpt>
      <trkpt lat="43.78252" lon="7.25188">
        <ele>526</ele>
        <time>2009-07-10T12:43:43Z</time>
      </trkpt>
      <trkpt lat="43.78233" lon="7.25222">
        <ele>527</ele>
        <time>2009-07-10T12:43:55Z</time>
      </trkpt>
      <trkpt lat="43.78225" lon="7.25232">
        <ele>528</ele>
        <time>2009-07-10T12:43:59Z</time>
      </trkpt>
      <trkpt lat="43.782" lon="7.25275">
        <ele>529</ele>
        <time>2009-07-10T12:44:15Z</time>
      </trkpt>
      <trkpt lat="43.78197" lon="7.25285">
        <ele>529</ele>
        <time>2009-07-10T12:44:19Z</time>
      </trkpt>
      <trkpt lat="43.7819" lon="7.25283">
        <ele>530</ele>
        <time>2009-07-10T12:44:24Z</time>
      </trkpt>
      <trkpt lat="43.78163" lon="7.25253">
        <ele>532</ele>
        <time>2009-07-10T12:44:38Z</time>
      </trkpt>
      <trkpt lat="43.78162" lon="7.25248">
        <ele>533</ele>
        <time>2009-07-10T12:44:41Z</time>
      </trkpt>
      <trkpt lat="43.78152" lon="7.25237">
        <ele>536</ele>
        <time>2009-07-10T12:44:52Z</time>
      </trkpt>
      <trkpt lat="43.78138" lon="7.25252">
        <ele>539</ele>
        <time>2009-07-10T12:45:04Z</time>
      </trkpt>
      <trkpt lat="43.78123" lon="7.25265">
        <ele>542</ele>
        <time>2009-07-10T12:45:18Z</time>
      </trkpt>
      <trkpt lat="43.78108" lon="7.25277">
        <ele>545</ele>
        <time>2009-07-10T12:45:31Z</time>
      </trkpt>
      <trkpt lat="43.78095" lon="7.25288">
        <ele>546</ele>
        <time>2009-07-10T12:45:41Z</time>
      </trkpt>
      <trkpt lat="43.7808" lon="7.253">
        <ele>547</ele>
        <time>2009-07-10T12:45:52Z</time>
      </trkpt>
      <trkpt lat="43.7806" lon="7.2531">
        <ele>550</ele>
        <time>2009-07-10T12:46:04Z</time>
      </trkpt>
      <trkpt lat="43.78048" lon="7.2532">
        <ele>553</ele>
        <time>2009-07-10T12:46:14Z</time>
      </trkpt>
      <trkpt lat="43.78035" lon="7.25332">
        <ele>557</ele>
        <time>2009-07-10T12:46:25Z</time>
      </trkpt>
      <trkpt lat="43.78025" lon="7.25338">
        <ele>560</ele>
        <time>2009-07-10T12:46:34Z</time>
      </trkpt>
      <trkpt lat="43.78023" lon="7.25342">
        <ele>560</ele>
        <time>2009-07-10T12:46:36Z</time>
      </trkpt>
      <trkpt lat="43.78015" lon="7.25355">
        <ele>561</ele>
        <time>2009-07-10T12:46:43Z</time>
      </trkpt>
      <trkpt lat="43.78002" lon="7.25372">
        <ele>563</ele>
        <time>2009-07-10T12:46:55Z</time>
      </trkpt>
      <trkpt lat="43.77987" lon="7.25397">
        <ele>563</ele>
        <time>2009-07-10T12:47:06Z</time>
      </trkpt>
      <trkpt lat="43.77967" lon="7.25412">
        <ele>564</ele>
        <time>2009-07-10T12:47:19Z</time>
      </trkpt>
      <trkpt lat="43.77953" lon="7.25425">
        <ele>566</ele>
        <time>2009-07-10T12:47:31Z</time>
      </trkpt>
      <trkpt lat="43.7794" lon="7.25432">
        <ele>568</ele>
        <time>2009-07-10T12:47:42Z</time>
      </trkpt>
      <trkpt lat="43.77942" lon="7.25448">
        <ele>569</ele>
        <time>2009-07-10T12:47:48Z</time>
      </trkpt>
      <trkpt lat="43.77932" lon="7.25478">
        <ele>571</ele>
        <time>2009-07-10T12:47:58Z</time>
      </trkpt>
      <trkpt lat="43.77927" lon="7.2549">
        <ele>574</ele>
        <time>2009-07-10T12:48:06Z</time>
      </trkpt>
      <trkpt lat="43.7792" lon="7.25497">
        <ele>575</ele>
        <time>2009-07-10T12:48:11Z</time>
      </trkpt>
      <trkpt lat="43.77907" lon="7.2551">
        <ele>577</ele>
        <time>2009-07-10T12:48:23Z</time>
      </trkpt>
      <trkpt lat="43.779" lon="7.25522">
        <ele>581</ele>
        <time>2009-07-10T12:48:33Z</time>
      </trkpt>
      <trkpt lat="43.7789" lon="7.25538">
        <ele>584</ele>
        <time>2009-07-10T12:48:43Z</time>
      </trkpt>
      <trkpt lat="43.77885" lon="7.25553">
        <ele>587</ele>
        <time>2009-07-10T12:49:00Z</time>
      </trkpt>
      <trkpt lat="43.77883" lon="7.25563">
        <ele>589</ele>
        <time>2009-07-10T12:49:17Z</time>
      </trkpt>
      <trkpt lat="43.7788" lon="7.25577">
        <ele>592</ele>
        <time>2009-07-10T12:49:34Z</time>
      </trkpt>
      <trkpt lat="43.77875" lon="7.25585">
        <ele>595</ele>
        <time>2009-07-10T12:49:49Z</time>
      </trkpt>
      <trkpt lat="43.77875" lon="7.25587">
        <ele>596</ele>
        <time>2009-07-10T12:50:03Z</time>
      </trkpt>
      <trkpt lat="43.77877" lon="7.25588">
        <ele>598</ele>
        <time>2009-07-10T12:53:42Z</time>
      </trkpt>
      <trkpt lat="43.77877" lon="7.25597">
        <ele>600</ele>
        <time>2009-07-10T12:53:56Z</time>
      </trkpt>
      <trkpt lat="43.7787" lon="7.25592">
        <ele>602</ele>
        <time>2009-07-10T12:54:11Z</time>
      </trkpt>
      <trkpt lat="43.77865" lon="7.25593">
        <ele>605</ele>
        <time>2009-07-10T12:54:26Z</time>
      </trkpt>
      <trkpt lat="43.77867" lon="7.25612">
        <ele>608</ele>
        <time>2009-07-10T12:54:46Z</time>
      </trkpt>
      <trkpt lat="43.77865" lon="7.25623">
        <ele>610</ele>
        <time>2009-07-10T12:55:02Z</time>
      </trkpt>
      <trkpt lat="43.77865" lon="7.2563">
        <ele>613</ele>
        <time>2009-07-10T12:55:20Z</time>
      </trkpt>
      <trkpt lat="43.77858" lon="7.25628">
        <ele>616</ele>
        <time>2009-07-10T12:55:38Z</time>
      </trkpt>
      <trkpt lat="43.7785" lon="7.25625">
        <ele>618</ele>
        <time>2009-07-10T12:55:53Z</time>
      </trkpt>
      <trkpt lat="43.77838" lon="7.25627">
        <ele>620</ele>
        <time>2009-07-10T12:56:08Z</time>
      </trkpt>
      <trkpt lat="43.7783" lon="7.25627">
        <ele>624</ele>
        <time>2009-07-10T12:56:26Z</time>
      </trkpt>
      <trkpt lat="43.77823" lon="7.2562">
        <ele>626</ele>
        <time>2009-07-10T12:56:42Z</time>
      </trkpt>
      <trkpt lat="43.77812" lon="7.2562">
        <ele>630</ele>
        <time>2009-07-10T12:57:00Z</time>
      </trkpt>
      <trkpt lat="43.77803" lon="7.25622">
        <ele>633</ele>
        <time>2009-07-10T12:57:18Z</time>
      </trkpt>
      <trkpt lat="43.778" lon="7.25602">
        <ele>636</ele>
        <time>2009-07-10T12:57:38Z</time>
      </trkpt>
      <trkpt lat="43.7779" lon="7.2562">
        <ele>638</ele>
        <time>2009-07-10T12:57:53Z</time>
      </trkpt>
      <trkpt lat="43.77787" lon="7.25625">
        <ele>641</ele>
        <time>2009-07-10T12:58:13Z</time>
      </trkpt>
      <trkpt lat="43.77785" lon="7.25627">
        <ele>643</ele>
        <time>2009-07-10T12:58:28Z</time>
      </trkpt>
      <trkpt lat="43.7778" lon="7.25625">
        <ele>646</ele>
        <time>2009-07-10T12:58:44Z</time>
      </trkpt>
      <trkpt lat="43.77772" lon="7.25637">
        <ele>649</ele>
        <time>2009-07-10T12:59:03Z</time>
      </trkpt>
      <trkpt lat="43.77763" lon="7.25645">
        <ele>652</ele>
        <time>2009-07-10T12:59:21Z</time>
      </trkpt>
      <trkpt lat="43.77757" lon="7.25653">
        <ele>655</ele>
        <time>2009-07-10T12:59:39Z</time>
      </trkpt>
      <trkpt lat="43.77748" lon="7.25662">
        <ele>659</ele>
        <time>2009-07-10T12:59:55Z</time>
      </trkpt>
      <trkpt lat="43.77747" lon="7.25665">
        <ele>660</ele>
        <time>2009-07-10T13:00:01Z</time>
      </trkpt>
      <trkpt lat="43.77743" lon="7.25667">
        <ele>660</ele>
        <time>2009-07-10T13:00:23Z</time>
      </trkpt>
      <trkpt lat="43.77747" lon="7.25668">
        <ele>663</ele>
        <time>2009-07-10T13:03:53Z</time>
      </trkpt>
      <trkpt lat="43.77743" lon="7.25678">
        <ele>666</ele>
        <time>2009-07-10T13:04:27Z</time>
      </trkpt>
      <trkpt lat="43.77738" lon="7.2569">
        <ele>668</ele>
        <time>2009-07-10T13:04:44Z</time>
      </trkpt>
      <trkpt lat="43.77732" lon="7.25705">
        <ele>671</ele>
        <time>2009-07-10T13:05:04Z</time>
      </trkpt>
      <trkpt lat="43.77728" lon="7.25725">
        <ele>674</ele>
        <time>2009-07-10T13:05:27Z</time>
      </trkpt>
      <trkpt lat="43.77725" lon="7.25747">
        <ele>676</ele>
        <time>2009-07-10T13:05:49Z</time>
      </trkpt>
      <trkpt lat="43.77727" lon="7.2576">
        <ele>677</ele>
        <time>2009-07-10T13:06:01Z</time>
      </trkpt>
      <trkpt lat="43.77725" lon="7.2578">
        <ele>680</ele>
        <time>2009-07-10T13:06:21Z</time>
      </trkpt>
      <trkpt lat="43.77723" lon="7.25782">
        <ele>680</ele>
        <time>2009-07-10T13:06:36Z</time>
      </trkpt>
      <trkpt lat="43.77717" lon="7.25795">
        <ele>682</ele>
        <time>2009-07-10T13:06:45Z</time>
      </trkpt>
      <trkpt lat="43.77715" lon="7.25798">
        <ele>683</ele>
        <time>2009-07-10T13:06:48Z</time>
      </trkpt>
      <trkpt lat="43.77707" lon="7.2582">
        <ele>685</ele>
        <time>2009-07-10T13:07:01Z</time>
      </trkpt>
      <trkpt lat="43.77702" lon="7.25825">
        <ele>685</ele>
        <time>2009-07-10T13:07:06Z</time>
      </trkpt>
      <trkpt lat="43.77687" lon="7.25843">
        <ele>687</ele>
        <time>2009-07-10T13:07:23Z</time>
      </trkpt>
      <trkpt lat="43.77675" lon="7.2586">
        <ele>690</ele>
        <time>2009-07-10T13:07:37Z</time>
      </trkpt>
      <trkpt lat="43.77672" lon="7.25863">
        <ele>691</ele>
        <time>2009-07-10T13:07:40Z</time>
      </trkpt>
      <trkpt lat="43.77662" lon="7.25875">
        <ele>693</ele>
        <time>2009-07-10T13:07:53Z</time>
      </trkpt>
      <trkpt lat="43.7765" lon="7.25893">
        <ele>697</ele>
        <time>2009-07-10T13:08:09Z</time>
      </trkpt>
      <trkpt lat="43.77643" lon="7.25908">
        <ele>699</ele>
        <time>2009-07-10T13:08:23Z</time>
      </trkpt>
      <trkpt lat="43.77632" lon="7.25923">
        <ele>702</ele>
        <time>2009-07-10T13:08:36Z</time>
      </trkpt>
      <trkpt lat="43.77628" lon="7.25928">
        <ele>703</ele>
        <time>2009-07-10T13:08:42Z</time>
      </trkpt>
      <trkpt lat="43.77617" lon="7.25942">
        <ele>705</ele>
        <time>2009-07-10T13:08:57Z</time>
      </trkpt>
      <trkpt lat="43.7761" lon="7.25948">
        <ele>707</ele>
        <time>2009-07-10T13:09:06Z</time>
      </trkpt>
      <trkpt lat="43.77605" lon="7.25955">
        <ele>708</ele>
        <time>2009-07-10T13:09:12Z</time>
      </trkpt>
      <trkpt lat="43.77595" lon="7.25967">
        <ele>712</ele>
        <time>2009-07-10T13:09:25Z</time>
      </trkpt>
      <trkpt lat="43.77588" lon="7.25975">
        <ele>713</ele>
        <time>2009-07-10T13:09:33Z</time>
      </trkpt>
      <trkpt lat="43.77587" lon="7.25975">
        <ele>714</ele>
        <time>2009-07-10T13:09:35Z</time>
      </trkpt>
      <trkpt lat="43.77578" lon="7.25983">
        <ele>715</ele>
        <time>2009-07-10T13:09:43Z</time>
      </trkpt>
      <trkpt lat="43.77577" lon="7.25987">
        <ele>716</ele>
        <time>2009-07-10T13:09:46Z</time>
      </trkpt>
      <trkpt lat="43.77572" lon="7.25992">
        <ele>716</ele>
        <time>2009-07-10T13:09:51Z</time>
      </trkpt>
      <trkpt lat="43.77552" lon="7.26005">
        <ele>718</ele>
        <time>2009-07-10T13:10:07Z</time>
      </trkpt>
      <trkpt lat="43.77537" lon="7.26018">
        <ele>720</ele>
        <time>2009-07-10T13:10:20Z</time>
      </trkpt>
      <trkpt lat="43.77532" lon="7.26027">
        <ele>721</ele>
        <time>2009-07-10T13:10:27Z</time>
      </trkpt>
      <trkpt lat="43.77517" lon="7.26043">
        <ele>723</ele>
        <time>2009-07-10T13:10:42Z</time>
      </trkpt>
      <trkpt lat="43.77517" lon="7.26043">
        <ele>723</ele>
        <time>2009-07-10T13:11:48Z</time>
      </trkpt>
      <trkpt lat="43.77517" lon="7.26045">
        <ele>723</ele>
        <time>2009-07-10T13:17:31Z</time>
      </trkpt>
      <trkpt lat="43.77525" lon="7.26017">
        <ele>723</ele>
        <time>2009-07-10T13:17:45Z</time>
      </trkpt>
      <trkpt lat="43.77525" lon="7.26015">
        <ele>723</ele>
        <time>2009-07-10T13:17:46Z</time>
      </trkpt>
      <trkpt lat="43.7753" lon="7.26003">
        <ele>724</ele>
        <time>2009-07-10T13:17:51Z</time>
      </trkpt>
      <trkpt lat="43.77548" lon="7.25958">
        <ele>724</ele>
        <time>2009-07-10T13:18:06Z</time>
      </trkpt>
      <trkpt lat="43.77563" lon="7.25928">
        <ele>725</ele>
        <time>2009-07-10T13:18:19Z</time>
      </trkpt>
      <trkpt lat="43.77568" lon="7.25918">
        <ele>725</ele>
        <time>2009-07-10T13:18:23Z</time>
      </trkpt>
      <trkpt lat="43.77572" lon="7.25905">
        <ele>725</ele>
        <time>2009-07-10T13:18:29Z</time>
      </trkpt>
      <trkpt lat="43.77573" lon="7.25888">
        <ele>726</ele>
        <time>2009-07-10T13:18:37Z</time>
      </trkpt>
      <trkpt lat="43.77578" lon="7.25847">
        <ele>726</ele>
        <time>2009-07-10T13:18:50Z</time>
      </trkpt>
      <trkpt lat="43.77578" lon="7.25817">
        <ele>728</ele>
        <time>2009-07-10T13:19:01Z</time>
      </trkpt>
      <trkpt lat="43.77575" lon="7.25808">
        <ele>728</ele>
        <time>2009-07-10T13:19:05Z</time>
      </trkpt>
      <trkpt lat="43.77572" lon="7.258">
        <ele>729</ele>
        <time>2009-07-10T13:19:10Z</time>
      </trkpt>
      <trkpt lat="43.77553" lon="7.25792">
        <ele>730</ele>
        <time>2009-07-10T13:19:23Z</time>
      </trkpt>
      <trkpt lat="43.77545" lon="7.2579">
        <ele>731</ele>
        <time>2009-07-10T13:19:28Z</time>
      </trkpt>
      <trkpt lat="43.77525" lon="7.25807">
        <ele>733</ele>
        <time>2009-07-10T13:19:41Z</time>
      </trkpt>
      <trkpt lat="43.77495" lon="7.25813">
        <ele>731</ele>
        <time>2009-07-10T13:19:53Z</time>
      </trkpt>
      <trkpt lat="43.7747" lon="7.25827">
        <ele>733</ele>
        <time>2009-07-10T13:20:06Z</time>
      </trkpt>
      <trkpt lat="43.77445" lon="7.2585">
        <ele>734</ele>
        <time>2009-07-10T13:20:23Z</time>
      </trkpt>
      <trkpt lat="43.77417" lon="7.25867">
        <ele>734</ele>
        <time>2009-07-10T13:20:39Z</time>
      </trkpt>
      <trkpt lat="43.77403" lon="7.25857">
        <ele>733</ele>
        <time>2009-07-10T13:20:50Z</time>
      </trkpt>
      <trkpt lat="43.7739" lon="7.2586">
        <ele>731</ele>
        <time>2009-07-10T13:21:46Z</time>
      </trkpt>
      <trkpt lat="43.77372" lon="7.25867">
        <ele>728</ele>
        <time>2009-07-10T13:21:53Z</time>
      </trkpt>
      <trkpt lat="43.77358" lon="7.25873">
        <ele>725</ele>
        <time>2009-07-10T13:22:05Z</time>
      </trkpt>
      <trkpt lat="43.77348" lon="7.2588">
        <ele>723</ele>
        <time>2009-07-10T13:22:22Z</time>
      </trkpt>
      <trkpt lat="43.77338" lon="7.25882">
        <ele>720</ele>
        <time>2009-07-10T13:22:29Z</time>
      </trkpt>
      <trkpt lat="43.77323" lon="7.25893">
        <ele>718</ele>
        <time>2009-07-10T13:22:34Z</time>
      </trkpt>
      <trkpt lat="43.77308" lon="7.25905">
        <ele>716</ele>
        <time>2009-07-10T13:22:39Z</time>
      </trkpt>
      <trkpt lat="43.7728" lon="7.2592">
        <ele>712</ele>
        <time>2009-07-10T13:22:47Z</time>
      </trkpt>
      <trkpt lat="43.77275" lon="7.25923">
        <ele>712</ele>
        <time>2009-07-10T13:22:49Z</time>
      </trkpt>
      <trkpt lat="43.77245" lon="7.25943">
        <ele>710</ele>
        <time>2009-07-10T13:22:59Z</time>
      </trkpt>
      <trkpt lat="43.77208" lon="7.25942">
        <ele>708</ele>
        <time>2009-07-10T13:23:10Z</time>
      </trkpt>
      <trkpt lat="43.772" lon="7.25942">
        <ele>708</ele>
        <time>2009-07-10T13:23:20Z</time>
      </trkpt>
      <trkpt lat="43.77198" lon="7.25942">
        <ele>708</ele>
        <time>2009-07-10T13:23:26Z</time>
      </trkpt>
      <trkpt lat="43.77188" lon="7.25932">
        <ele>709</ele>
        <time>2009-07-10T13:23:35Z</time>
      </trkpt>
      <trkpt lat="43.77167" lon="7.25918">
        <ele>710</ele>
        <time>2009-07-10T13:23:51Z</time>
      </trkpt>
      <trkpt lat="43.77147" lon="7.25912">
        <ele>711</ele>
        <time>2009-07-10T13:24:06Z</time>
      </trkpt>
      <trkpt lat="43.77133" lon="7.25912">
        <ele>712</ele>
        <time>2009-07-10T13:24:16Z</time>
      </trkpt>
      <trkpt lat="43.77117" lon="7.25917">
        <ele>713</ele>
        <time>2009-07-10T13:24:29Z</time>
      </trkpt>
      <trkpt lat="43.77115" lon="7.25917">
        <ele>713</ele>
        <time>2009-07-10T13:24:30Z</time>
      </trkpt>
      <trkpt lat="43.7711" lon="7.25918">
        <ele>713</ele>
        <time>2009-07-10T13:24:34Z</time>
      </trkpt>
      <trkpt lat="43.77102" lon="7.2592">
        <ele>714</ele>
        <time>2009-07-10T13:24:51Z</time>
      </trkpt>
      <trkpt lat="43.77102" lon="7.2592">
        <ele>714</ele>
        <time>2009-07-10T13:26:17Z</time>
      </trkpt>
      <trkpt lat="43.77113" lon="7.25917">
        <ele>713</ele>
        <time>2009-07-10T13:26:22Z</time>
      </trkpt>
      <trkpt lat="43.77122" lon="7.25917">
        <ele>713</ele>
        <time>2009-07-10T13:26:24Z</time>
      </trkpt>
      <trkpt lat="43.7713" lon="7.25913">
        <ele>712</ele>
        <time>2009-07-10T13:26:26Z</time>
      </trkpt>
      <trkpt lat="43.77165" lon="7.2592">
        <ele>710</ele>
        <time>2009-07-10T13:26:33Z</time>
      </trkpt>
      <trkpt lat="43.77197" lon="7.2594">
        <ele>708</ele>
        <time>2009-07-10T13:26:41Z</time>
      </trkpt>
      <trkpt lat="43.77223" lon="7.25945">
        <ele>709</ele>
        <time>2009-07-10T13:26:51Z</time>
      </trkpt>
      <trkpt lat="43.7723" lon="7.25943">
        <ele>710</ele>
        <time>2009-07-10T13:27:02Z</time>
      </trkpt>
      <trkpt lat="43.77245" lon="7.25943">
        <ele>710</ele>
        <time>2009-07-10T13:27:31Z</time>
      </trkpt>
      <trkpt lat="43.77245" lon="7.25943">
        <ele>711</ele>
        <time>2009-07-10T13:28:10Z</time>
      </trkpt>
      <trkpt lat="43.77215" lon="7.2594">
        <ele>709</ele>
        <time>2009-07-10T13:28:21Z</time>
      </trkpt>
      <trkpt lat="43.77192" lon="7.25933">
        <ele>709</ele>
        <time>2009-07-10T13:28:31Z</time>
      </trkpt>
      <trkpt lat="43.7718" lon="7.25923">
        <ele>710</ele>
        <time>2009-07-10T13:28:47Z</time>
      </trkpt>
      <trkpt lat="43.77148" lon="7.25912">
        <ele>712</ele>
        <time>2009-07-10T13:29:04Z</time>
      </trkpt>
      <trkpt lat="43.7712" lon="7.25913">
        <ele>713</ele>
        <time>2009-07-10T13:29:18Z</time>
      </trkpt>
      <trkpt lat="43.77087" lon="7.25918">
        <ele>716</ele>
        <time>2009-07-10T13:29:36Z</time>
      </trkpt>
      <trkpt lat="43.77057" lon="7.25925">
        <ele>718</ele>
        <time>2009-07-10T13:29:52Z</time>
      </trkpt>
      <trkpt lat="43.77025" lon="7.25928">
        <ele>721</ele>
        <time>2009-07-10T13:30:08Z</time>
      </trkpt>
      <trkpt lat="43.76988" lon="7.2592">
        <ele>723</ele>
        <time>2009-07-10T13:30:24Z</time>
      </trkpt>
      <trkpt lat="43.76972" lon="7.25887">
        <ele>725</ele>
        <time>2009-07-10T13:30:38Z</time>
      </trkpt>
      <trkpt lat="43.76968" lon="7.25873">
        <ele>726</ele>
        <time>2009-07-10T13:30:43Z</time>
      </trkpt>
      <trkpt lat="43.76967" lon="7.25863">
        <ele>726</ele>
        <time>2009-07-10T13:30:47Z</time>
      </trkpt>
      <trkpt lat="43.76948" lon="7.25847">
        <ele>728</ele>
        <time>2009-07-10T13:31:01Z</time>
      </trkpt>
      <trkpt lat="43.76932" lon="7.25827">
        <ele>731</ele>
        <time>2009-07-10T13:31:15Z</time>
      </trkpt>
      <trkpt lat="43.76925" lon="7.2581">
        <ele>732</ele>
        <time>2009-07-10T13:31:23Z</time>
      </trkpt>
      <trkpt lat="43.76922" lon="7.25798">
        <ele>733</ele>
        <time>2009-07-10T13:31:29Z</time>
      </trkpt>
      <trkpt lat="43.76907" lon="7.25772">
        <ele>735</ele>
        <time>2009-07-10T13:31:44Z</time>
      </trkpt>
      <trkpt lat="43.76897" lon="7.2576">
        <ele>736</ele>
        <time>2009-07-10T13:31:52Z</time>
      </trkpt>
      <trkpt lat="43.76892" lon="7.25752">
        <ele>737</ele>
        <time>2009-07-10T13:31:57Z</time>
      </trkpt>
      <trkpt lat="43.7688" lon="7.25727">
        <ele>738</ele>
        <time>2009-07-10T13:32:12Z</time>
      </trkpt>
      <trkpt lat="43.76878" lon="7.25722">
        <ele>739</ele>
        <time>2009-07-10T13:32:15Z</time>
      </trkpt>
      <trkpt lat="43.76875" lon="7.25713">
        <ele>740</ele>
        <time>2009-07-10T13:32:20Z</time>
      </trkpt>
      <trkpt lat="43.76873" lon="7.25708">
        <ele>740</ele>
        <time>2009-07-10T13:32:23Z</time>
      </trkpt>
      <trkpt lat="43.7686" lon="7.25678">
        <ele>743</ele>
        <time>2009-07-10T13:32:38Z</time>
      </trkpt>
      <trkpt lat="43.76855" lon="7.25663">
        <ele>745</ele>
        <time>2009-07-10T13:32:46Z</time>
      </trkpt>
      <trkpt lat="43.76848" lon="7.25645">
        <ele>746</ele>
        <time>2009-07-10T13:33:00Z</time>
      </trkpt>
      <trkpt lat="43.76842" lon="7.25635">
        <ele>746</ele>
        <time>2009-07-10T13:33:51Z</time>
      </trkpt>
      <trkpt lat="43.76838" lon="7.25625">
        <ele>745</ele>
        <time>2009-07-10T13:34:04Z</time>
      </trkpt>
      <trkpt lat="43.76832" lon="7.2559">
        <ele>742</ele>
        <time>2009-07-10T13:34:49Z</time>
      </trkpt>
      <trkpt lat="43.7683" lon="7.25575">
        <ele>741</ele>
        <time>2009-07-10T13:34:51Z</time>
      </trkpt>
      <trkpt lat="43.7683" lon="7.25563">
        <ele>739</ele>
        <time>2009-07-10T13:34:53Z</time>
      </trkpt>
      <trkpt lat="43.76833" lon="7.2553">
        <ele>737</ele>
        <time>2009-07-10T13:34:58Z</time>
      </trkpt>
      <trkpt lat="43.76842" lon="7.25505">
        <ele>735</ele>
        <time>2009-07-10T13:35:02Z</time>
      </trkpt>
      <trkpt lat="43.76845" lon="7.25472">
        <ele>732</ele>
        <time>2009-07-10T13:35:08Z</time>
      </trkpt>
      <trkpt lat="43.76848" lon="7.2546">
        <ele>732</ele>
        <time>2009-07-10T13:35:10Z</time>
      </trkpt>
      <trkpt lat="43.76863" lon="7.25422">
        <ele>728</ele>
        <time>2009-07-10T13:35:17Z</time>
      </trkpt>
      <trkpt lat="43.76868" lon="7.254">
        <ele>726</ele>
        <time>2009-07-10T13:35:21Z</time>
      </trkpt>
      <trkpt lat="43.76875" lon="7.25358">
        <ele>723</ele>
        <time>2009-07-10T13:35:29Z</time>
      </trkpt>
      <trkpt lat="43.76885" lon="7.2533">
        <ele>720</ele>
        <time>2009-07-10T13:35:36Z</time>
      </trkpt>
      <trkpt lat="43.76888" lon="7.25323">
        <ele>719</ele>
        <time>2009-07-10T13:35:38Z</time>
      </trkpt>
      <trkpt lat="43.76902" lon="7.25307">
        <ele>716</ele>
        <time>2009-07-10T13:35:43Z</time>
      </trkpt>
      <trkpt lat="43.76907" lon="7.25297">
        <ele>716</ele>
        <time>2009-07-10T13:35:45Z</time>
      </trkpt>
      <trkpt lat="43.7691" lon="7.25278">
        <ele>714</ele>
        <time>2009-07-10T13:35:48Z</time>
      </trkpt>
      <trkpt lat="43.76917" lon="7.25253">
        <ele>712</ele>
        <time>2009-07-10T13:35:52Z</time>
      </trkpt>
      <trkpt lat="43.76922" lon="7.25212">
        <ele>709</ele>
        <time>2009-07-10T13:35:58Z</time>
      </trkpt>
      <trkpt lat="43.76938" lon="7.25155">
        <ele>705</ele>
        <time>2009-07-10T13:36:07Z</time>
      </trkpt>
      <trkpt lat="43.76963" lon="7.25112">
        <ele>704</ele>
        <time>2009-07-10T13:36:21Z</time>
      </trkpt>
      <trkpt lat="43.7698" lon="7.2509">
        <ele>702</ele>
        <time>2009-07-10T13:36:27Z</time>
      </trkpt>
      <trkpt lat="43.76972" lon="7.25085">
        <ele>701</ele>
        <time>2009-07-10T13:36:33Z</time>
      </trkpt>
      <trkpt lat="43.76947" lon="7.25112">
        <ele>699</ele>
        <time>2009-07-10T13:36:41Z</time>
      </trkpt>
      <trkpt lat="43.76938" lon="7.2512">
        <ele>697</ele>
        <time>2009-07-10T13:36:51Z</time>
      </trkpt>
      <trkpt lat="43.76938" lon="7.25122">
        <ele>697</ele>
        <time>2009-07-10T13:36:55Z</time>
      </trkpt>
      <trkpt lat="43.76932" lon="7.25127">
        <ele>697</ele>
        <time>2009-07-10T13:37:06Z</time>
      </trkpt>
      <trkpt lat="43.76927" lon="7.2513">
        <ele>694</ele>
        <time>2009-07-10T13:37:51Z</time>
      </trkpt>
      <trkpt lat="43.76922" lon="7.2513">
        <ele>692</ele>
        <time>2009-07-10T13:38:00Z</time>
      </trkpt>
      <trkpt lat="43.76922" lon="7.2513">
        <ele>692</ele>
        <time>2009-07-10T13:38:01Z</time>
      </trkpt>
      <trkpt lat="43.76915" lon="7.25118">
        <ele>688</ele>
        <time>2009-07-10T13:38:08Z</time>
      </trkpt>
      <trkpt lat="43.76912" lon="7.25108">
        <ele>685</ele>
        <time>2009-07-10T13:38:12Z</time>
      </trkpt>
      <trkpt lat="43.76905" lon="7.25098">
        <ele>682</ele>
        <time>2009-07-10T13:38:16Z</time>
      </trkpt>
      <trkpt lat="43.76898" lon="7.25077">
        <ele>679</ele>
        <time>2009-07-10T13:38:28Z</time>
      </trkpt>
      <trkpt lat="43.769" lon="7.25075">
        <ele>679</ele>
        <time>2009-07-10T13:39:04Z</time>
      </trkpt>
      <trkpt lat="43.769" lon="7.25075">
        <ele>679</ele>
        <time>2009-07-10T13:40:06Z</time>
      </trkpt>
      <trkpt lat="43.76885" lon="7.25043">
        <ele>678</ele>
        <time>2009-07-10T13:40:18Z</time>
      </trkpt>
      <trkpt lat="43.76868" lon="7.25048">
        <ele>677</ele>
        <time>2009-07-10T13:40:23Z</time>
      </trkpt>
      <trkpt lat="43.76855" lon="7.2505">
        <ele>677</ele>
        <time>2009-07-10T13:40:26Z</time>
      </trkpt>
      <trkpt lat="43.76838" lon="7.2505">
        <ele>673</ele>
        <time>2009-07-10T13:40:30Z</time>
      </trkpt>
      <trkpt lat="43.7683" lon="7.2505">
        <ele>673</ele>
        <time>2009-07-10T13:40:32Z</time>
      </trkpt>
      <trkpt lat="43.76815" lon="7.25045">
        <ele>671</ele>
        <time>2009-07-10T13:40:35Z</time>
      </trkpt>
      <trkpt lat="43.76788" lon="7.2503">
        <ele>670</ele>
        <time>2009-07-10T13:40:44Z</time>
      </trkpt>
      <trkpt lat="43.76758" lon="7.25045">
        <ele>667</ele>
        <time>2009-07-10T13:40:55Z</time>
      </trkpt>
      <trkpt lat="43.7674" lon="7.25052">
        <ele>665</ele>
        <time>2009-07-10T13:41:03Z</time>
      </trkpt>
      <trkpt lat="43.76733" lon="7.25057">
        <ele>663</ele>
        <time>2009-07-10T13:41:07Z</time>
      </trkpt>
      <trkpt lat="43.76718" lon="7.25055">
        <ele>661</ele>
        <time>2009-07-10T13:41:15Z</time>
      </trkpt>
      <trkpt lat="43.76692" lon="7.25047">
        <ele>658</ele>
        <time>2009-07-10T13:41:27Z</time>
      </trkpt>
      <trkpt lat="43.76673" lon="7.25073">
        <ele>655</ele>
        <time>2009-07-10T13:41:37Z</time>
      </trkpt>
      <trkpt lat="43.76667" lon="7.25088">
        <ele>653</ele>
        <time>2009-07-10T13:41:43Z</time>
      </trkpt>
      <trkpt lat="43.76635" lon="7.25097">
        <ele>649</ele>
        <time>2009-07-10T13:41:54Z</time>
      </trkpt>
      <trkpt lat="43.76602" lon="7.25102">
        <ele>647</ele>
        <time>2009-07-10T13:42:05Z</time>
      </trkpt>
      <trkpt lat="43.7657" lon="7.25112">
        <ele>643</ele>
        <time>2009-07-10T13:42:18Z</time>
      </trkpt>
      <trkpt lat="43.76547" lon="7.25125">
        <ele>640</ele>
        <time>2009-07-10T13:42:25Z</time>
      </trkpt>
      <trkpt lat="43.7652" lon="7.25127">
        <ele>637</ele>
        <time>2009-07-10T13:42:36Z</time>
      </trkpt>
      <trkpt lat="43.76495" lon="7.25112">
        <ele>634</ele>
        <time>2009-07-10T13:42:48Z</time>
      </trkpt>
      <trkpt lat="43.76492" lon="7.25112">
        <ele>633</ele>
        <time>2009-07-10T13:42:49Z</time>
      </trkpt>
      <trkpt lat="43.76468" lon="7.25115">
        <ele>632</ele>
        <time>2009-07-10T13:43:00Z</time>
      </trkpt>
      <trkpt lat="43.76452" lon="7.25118">
        <ele>630</ele>
        <time>2009-07-10T13:43:09Z</time>
      </trkpt>
      <trkpt lat="43.76448" lon="7.25118">
        <ele>629</ele>
        <time>2009-07-10T13:43:32Z</time>
      </trkpt>
      <trkpt lat="43.76435" lon="7.25127">
        <ele>628</ele>
        <time>2009-07-10T13:45:47Z</time>
      </trkpt>
      <trkpt lat="43.76425" lon="7.25132">
        <ele>627</ele>
        <time>2009-07-10T13:46:01Z</time>
      </trkpt>
      <trkpt lat="43.76413" lon="7.25133">
        <ele>625</ele>
        <time>2009-07-10T13:46:15Z</time>
      </trkpt>
      <trkpt lat="43.76403" lon="7.25138">
        <ele>624</ele>
        <time>2009-07-10T13:46:28Z</time>
      </trkpt>
      <trkpt lat="43.76398" lon="7.25138">
        <ele>623</ele>
        <time>2009-07-10T13:46:34Z</time>
      </trkpt>
      <trkpt lat="43.76387" lon="7.25148">
        <ele>621</ele>
        <time>2009-07-10T13:46:46Z</time>
      </trkpt>
      <trkpt lat="43.76378" lon="7.25158">
        <ele>621</ele>
        <time>2009-07-10T13:46:52Z</time>
      </trkpt>
      <trkpt lat="43.76362" lon="7.25177">
        <ele>619</ele>
        <time>2009-07-10T13:47:05Z</time>
      </trkpt>
      <trkpt lat="43.7634" lon="7.252">
        <ele>617</ele>
        <time>2009-07-10T13:47:17Z</time>
      </trkpt>
      <trkpt lat="43.76338" lon="7.25202">
        <ele>617</ele>
        <time>2009-07-10T13:47:19Z</time>
      </trkpt>
      <trkpt lat="43.76327" lon="7.25198">
        <ele>614</ele>
        <time>2009-07-10T13:47:31Z</time>
      </trkpt>
      <trkpt lat="43.76318" lon="7.25198">
        <ele>613</ele>
        <time>2009-07-10T13:47:42Z</time>
      </trkpt>
      <trkpt lat="43.76297" lon="7.252">
        <ele>610</ele>
        <time>2009-07-10T13:47:53Z</time>
      </trkpt>
      <trkpt lat="43.76275" lon="7.25203">
        <ele>608</ele>
        <time>2009-07-10T13:48:06Z</time>
      </trkpt>
      <trkpt lat="43.76258" lon="7.25207">
        <ele>606</ele>
        <time>2009-07-10T13:48:20Z</time>
      </trkpt>
      <trkpt lat="43.76243" lon="7.25212">
        <ele>605</ele>
        <time>2009-07-10T13:48:37Z</time>
      </trkpt>
      <trkpt lat="43.76238" lon="7.25212">
        <ele>605</ele>
        <time>2009-07-10T13:48:40Z</time>
      </trkpt>
      <trkpt lat="43.76213" lon="7.25213">
        <ele>603</ele>
        <time>2009-07-10T13:48:53Z</time>
      </trkpt>
      <trkpt lat="43.76193" lon="7.25223">
        <ele>601</ele>
        <time>2009-07-10T13:49:04Z</time>
      </trkpt>
      <trkpt lat="43.76185" lon="7.25227">
        <ele>600</ele>
        <time>2009-07-10T13:49:12Z</time>
      </trkpt>
      <trkpt lat="43.76177" lon="7.2523">
        <ele>600</ele>
        <time>2009-07-10T13:49:19Z</time>
      </trkpt>
      <trkpt lat="43.7617" lon="7.25233">
        <ele>600</ele>
        <time>2009-07-10T13:49:36Z</time>
      </trkpt>
      <trkpt lat="43.7617" lon="7.25235">
        <ele>599</ele>
        <time>2009-07-10T13:49:37Z</time>
      </trkpt>
      <trkpt lat="43.7616" lon="7.2524">
        <ele>599</ele>
        <time>2009-07-10T13:49:43Z</time>
      </trkpt>
      <trkpt lat="43.76147" lon="7.25248">
        <ele>597</ele>
        <time>2009-07-10T13:49:58Z</time>
      </trkpt>
      <trkpt lat="43.76138" lon="7.2525">
        <ele>595</ele>
        <time>2009-07-10T13:50:13Z</time>
      </trkpt>
      <trkpt lat="43.76133" lon="7.25255">
        <ele>594</ele>
        <time>2009-07-10T13:50:27Z</time>
      </trkpt>
      <trkpt lat="43.76118" lon="7.25263">
        <ele>592</ele>
        <time>2009-07-10T13:51:17Z</time>
      </trkpt>
      <trkpt lat="43.76097" lon="7.2528">
        <ele>589</ele>
        <time>2009-07-10T13:51:28Z</time>
      </trkpt>
      <trkpt lat="43.76095" lon="7.25282">
        <ele>588</ele>
        <time>2009-07-10T13:51:32Z</time>
      </trkpt>
      <trkpt lat="43.7608" lon="7.25283">
        <ele>586</ele>
        <time>2009-07-10T13:51:44Z</time>
      </trkpt>
      <trkpt lat="43.76052" lon="7.25298">
        <ele>583</ele>
        <time>2009-07-10T13:51:57Z</time>
      </trkpt>
      <trkpt lat="43.76042" lon="7.25305">
        <ele>581</ele>
        <time>2009-07-10T13:52:11Z</time>
      </trkpt>
      <trkpt lat="43.76038" lon="7.25307">
        <ele>580</ele>
        <time>2009-07-10T13:52:16Z</time>
      </trkpt>
      <trkpt lat="43.76032" lon="7.25308">
        <ele>579</ele>
        <time>2009-07-10T13:52:30Z</time>
      </trkpt>
      <trkpt lat="43.76017" lon="7.25312">
        <ele>577</ele>
        <time>2009-07-10T13:52:47Z</time>
      </trkpt>
      <trkpt lat="43.7601" lon="7.25318">
        <ele>577</ele>
        <time>2009-07-10T13:52:57Z</time>
      </trkpt>
      <trkpt lat="43.75997" lon="7.25325">
        <ele>575</ele>
        <time>2009-07-10T13:53:10Z</time>
      </trkpt>
      <trkpt lat="43.75985" lon="7.25335">
        <ele>575</ele>
        <time>2009-07-10T13:53:22Z</time>
      </trkpt>
      <trkpt lat="43.75977" lon="7.2534">
        <ele>574</ele>
        <time>2009-07-10T13:53:34Z</time>
      </trkpt>
      <trkpt lat="43.7596" lon="7.2535">
        <ele>572</ele>
        <time>2009-07-10T13:53:45Z</time>
      </trkpt>
      <trkpt lat="43.75932" lon="7.25368">
        <ele>569</ele>
        <time>2009-07-10T13:53:56Z</time>
      </trkpt>
      <trkpt lat="43.75912" lon="7.25385">
        <ele>567</ele>
        <time>2009-07-10T13:54:06Z</time>
      </trkpt>
      <trkpt lat="43.7589" lon="7.25403">
        <ele>566</ele>
        <time>2009-07-10T13:54:17Z</time>
      </trkpt>
      <trkpt lat="43.75865" lon="7.25427">
        <ele>566</ele>
        <time>2009-07-10T13:54:30Z</time>
      </trkpt>
      <trkpt lat="43.75862" lon="7.25428">
        <ele>565</ele>
        <time>2009-07-10T13:54:35Z</time>
      </trkpt>
      <trkpt lat="43.75852" lon="7.25432">
        <ele>563</ele>
        <time>2009-07-10T13:54:49Z</time>
      </trkpt>
      <trkpt lat="43.75842" lon="7.25433">
        <ele>561</ele>
        <time>2009-07-10T13:55:04Z</time>
      </trkpt>
      <trkpt lat="43.7583" lon="7.25438">
        <ele>559</ele>
        <time>2009-07-10T13:55:16Z</time>
      </trkpt>
      <trkpt lat="43.7581" lon="7.2545">
        <ele>556</ele>
        <time>2009-07-10T13:55:26Z</time>
      </trkpt>
      <trkpt lat="43.758" lon="7.25457">
        <ele>554</ele>
        <time>2009-07-10T13:55:30Z</time>
      </trkpt>
      <trkpt lat="43.75788" lon="7.25467">
        <ele>552</ele>
        <time>2009-07-10T13:55:36Z</time>
      </trkpt>
      <trkpt lat="43.7577" lon="7.2548">
        <ele>550</ele>
        <time>2009-07-10T13:55:45Z</time>
      </trkpt>
      <trkpt lat="43.75767" lon="7.25483">
        <ele>550</ele>
        <time>2009-07-10T13:55:47Z</time>
      </trkpt>
      <trkpt lat="43.75747" lon="7.25497">
        <ele>548</ele>
        <time>2009-07-10T13:56:01Z</time>
      </trkpt>
      <trkpt lat="43.75738" lon="7.25497">
        <ele>547</ele>
        <time>2009-07-10T13:56:24Z</time>
      </trkpt>
      <trkpt lat="43.75723" lon="7.25505">
        <ele>546</ele>
        <time>2009-07-10T13:56:35Z</time>
      </trkpt>
      <trkpt lat="43.75712" lon="7.25512">
        <ele>545</ele>
        <time>2009-07-10T13:56:41Z</time>
      </trkpt>
      <trkpt lat="43.75707" lon="7.25515">
        <ele>545</ele>
        <time>2009-07-10T13:56:45Z</time>
      </trkpt>
      <trkpt lat="43.75678" lon="7.25527">
        <ele>542</ele>
        <time>2009-07-10T13:57:00Z</time>
      </trkpt>
      <trkpt lat="43.75658" lon="7.25538">
        <ele>541</ele>
        <time>2009-07-10T13:57:16Z</time>
      </trkpt>
      <trkpt lat="43.75653" lon="7.25537">
        <ele>538</ele>
        <time>2009-07-10T13:57:21Z</time>
      </trkpt>
      <trkpt lat="43.75645" lon="7.2554">
        <ele>537</ele>
        <time>2009-07-10T13:57:29Z</time>
      </trkpt>
      <trkpt lat="43.7564" lon="7.25545">
        <ele>537</ele>
        <time>2009-07-10T13:57:35Z</time>
      </trkpt>
      <trkpt lat="43.75633" lon="7.25552">
        <ele>536</ele>
        <time>2009-07-10T13:57:41Z</time>
      </trkpt>
      <trkpt lat="43.75632" lon="7.25553">
        <ele>536</ele>
        <time>2009-07-10T13:57:48Z</time>
      </trkpt>
      <trkpt lat="43.75607" lon="7.25568">
        <ele>533</ele>
        <time>2009-07-10T13:58:02Z</time>
      </trkpt>
      <trkpt lat="43.756" lon="7.2557">
        <ele>532</ele>
        <time>2009-07-10T13:58:07Z</time>
      </trkpt>
      <trkpt lat="43.75593" lon="7.25572">
        <ele>531</ele>
        <time>2009-07-10T13:58:11Z</time>
      </trkpt>
      <trkpt lat="43.75588" lon="7.25575">
        <ele>530</ele>
        <time>2009-07-10T13:58:19Z</time>
      </trkpt>
      <trkpt lat="43.75575" lon="7.25577">
        <ele>528</ele>
        <time>2009-07-10T13:58:33Z</time>
      </trkpt>
      <trkpt lat="43.75557" lon="7.2559">
        <ele>526</ele>
        <time>2009-07-10T13:58:45Z</time>
      </trkpt>
      <trkpt lat="43.75545" lon="7.25605">
        <ele>525</ele>
        <time>2009-07-10T13:58:53Z</time>
      </trkpt>
      <trkpt lat="43.75532" lon="7.25632">
        <ele>523</ele>
        <time>2009-07-10T13:59:07Z</time>
      </trkpt>
      <trkpt lat="43.75532" lon="7.25637">
        <ele>522</ele>
        <time>2009-07-10T13:59:11Z</time>
      </trkpt>
      <trkpt lat="43.75528" lon="7.25652">
        <ele>521</ele>
        <time>2009-07-10T13:59:24Z</time>
      </trkpt>
      <trkpt lat="43.75528" lon="7.25662">
        <ele>520</ele>
        <time>2009-07-10T13:59:28Z</time>
      </trkpt>
      <trkpt lat="43.75523" lon="7.25702">
        <ele>517</ele>
        <time>2009-07-10T13:59:41Z</time>
      </trkpt>
      <trkpt lat="43.75522" lon="7.25708">
        <ele>516</ele>
        <time>2009-07-10T13:59:52Z</time>
      </trkpt>
      <trkpt lat="43.75523" lon="7.25708">
        <ele>516</ele>
        <time>2009-07-10T13:59:53Z</time>
      </trkpt>
      <trkpt lat="43.75523" lon="7.25703">
        <ele>516</ele>
        <time>2009-07-10T14:00:05Z</time>
      </trkpt>
      <trkpt lat="43.75518" lon="7.25713">
        <ele>515</ele>
        <time>2009-07-10T14:00:14Z</time>
      </trkpt>
      <trkpt lat="43.75508" lon="7.25718">
        <ele>513</ele>
        <time>2009-07-10T14:00:20Z</time>
      </trkpt>
      <trkpt lat="43.75505" lon="7.2572">
        <ele>511</ele>
        <time>2009-07-10T14:00:22Z</time>
      </trkpt>
      <trkpt lat="43.75497" lon="7.25732">
        <ele>509</ele>
        <time>2009-07-10T14:00:29Z</time>
      </trkpt>
      <trkpt lat="43.7549" lon="7.25742">
        <ele>507</ele>
        <time>2009-07-10T14:00:32Z</time>
      </trkpt>
      <trkpt lat="43.75485" lon="7.25767">
        <ele>507</ele>
        <time>2009-07-10T14:00:41Z</time>
      </trkpt>
      <trkpt lat="43.75475" lon="7.25782">
        <ele>506</ele>
        <time>2009-07-10T14:02:38Z</time>
      </trkpt>
      <trkpt lat="43.75452" lon="7.25797">
        <ele>505</ele>
        <time>2009-07-10T14:02:49Z</time>
      </trkpt>
      <trkpt lat="43.7543" lon="7.25798">
        <ele>506</ele>
        <time>2009-07-10T14:03:01Z</time>
      </trkpt>
      <trkpt lat="43.75418" lon="7.25802">
        <ele>506</ele>
        <time>2009-07-10T14:03:07Z</time>
      </trkpt>
      <trkpt lat="43.7541" lon="7.25807">
        <ele>507</ele>
        <time>2009-07-10T14:03:13Z</time>
      </trkpt>
      <trkpt lat="43.75398" lon="7.25803">
        <ele>507</ele>
        <time>2009-07-10T14:03:27Z</time>
      </trkpt>
      <trkpt lat="43.75397" lon="7.25803">
        <ele>507</ele>
        <time>2009-07-10T14:03:48Z</time>
      </trkpt>
      <trkpt lat="43.75387" lon="7.25797">
        <ele>507</ele>
        <time>2009-07-10T14:04:06Z</time>
      </trkpt>
      <trkpt lat="43.75377" lon="7.25793">
        <ele>507</ele>
        <time>2009-07-10T14:04:14Z</time>
      </trkpt>
      <trkpt lat="43.75368" lon="7.25782">
        <ele>506</ele>
        <time>2009-07-10T14:04:26Z</time>
      </trkpt>
      <trkpt lat="43.75368" lon="7.25782">
        <ele>506</ele>
        <time>2009-07-10T14:04:32Z</time>
      </trkpt>
      <trkpt lat="43.75358" lon="7.25783">
        <ele>504</ele>
        <time>2009-07-10T14:04:38Z</time>
      </trkpt>
      <trkpt lat="43.75352" lon="7.25783">
        <ele>503</ele>
        <time>2009-07-10T14:04:42Z</time>
      </trkpt>
      <trkpt lat="43.75338" lon="7.25792">
        <ele>501</ele>
        <time>2009-07-10T14:04:47Z</time>
      </trkpt>
      <trkpt lat="43.75317" lon="7.25815">
        <ele>500</ele>
        <time>2009-07-10T14:04:58Z</time>
      </trkpt>
      <trkpt lat="43.75295" lon="7.25828">
        <ele>500</ele>
        <time>2009-07-10T14:05:09Z</time>
      </trkpt>
      <trkpt lat="43.75285" lon="7.25833">
        <ele>500</ele>
        <time>2009-07-10T14:05:16Z</time>
      </trkpt>
      <trkpt lat="43.75278" lon="7.25838">
        <ele>500</ele>
        <time>2009-07-10T14:05:21Z</time>
      </trkpt>
      <trkpt lat="43.75262" lon="7.25848">
        <ele>500</ele>
        <time>2009-07-10T14:05:32Z</time>
      </trkpt>
      <trkpt lat="43.75252" lon="7.25855">
        <ele>500</ele>
        <time>2009-07-10T14:05:38Z</time>
      </trkpt>
      <trkpt lat="43.75227" lon="7.25857">
        <ele>497</ele>
        <time>2009-07-10T14:05:49Z</time>
      </trkpt>
      <trkpt lat="43.75215" lon="7.2586">
        <ele>496</ele>
        <time>2009-07-10T14:05:52Z</time>
      </trkpt>
      <trkpt lat="43.75195" lon="7.25867">
        <ele>495</ele>
        <time>2009-07-10T14:05:58Z</time>
      </trkpt>
      <trkpt lat="43.75165" lon="7.25873">
        <ele>493</ele>
        <time>2009-07-10T14:06:10Z</time>
      </trkpt>
      <trkpt lat="43.75163" lon="7.25873">
        <ele>493</ele>
        <time>2009-07-10T14:06:11Z</time>
      </trkpt>
      <trkpt lat="43.75137" lon="7.25872">
        <ele>489</ele>
        <time>2009-07-10T14:06:24Z</time>
      </trkpt>
      <trkpt lat="43.75133" lon="7.25872">
        <ele>489</ele>
        <time>2009-07-10T14:06:25Z</time>
      </trkpt>
      <trkpt lat="43.75122" lon="7.25875">
        <ele>488</ele>
        <time>2009-07-10T14:06:28Z</time>
      </trkpt>
      <trkpt lat="43.75092" lon="7.25877">
        <ele>488</ele>
        <time>2009-07-10T14:06:36Z</time>
      </trkpt>
      <trkpt lat="43.75072" lon="7.25858">
        <ele>486</ele>
        <time>2009-07-10T14:06:44Z</time>
      </trkpt>
      <trkpt lat="43.75047" lon="7.2586">
        <ele>484</ele>
        <time>2009-07-10T14:06:53Z</time>
      </trkpt>
      <trkpt lat="43.75033" lon="7.25857">
        <ele>483</ele>
        <time>2009-07-10T14:07:02Z</time>
      </trkpt>
      <trkpt lat="43.75023" lon="7.25858">
        <ele>483</ele>
        <time>2009-07-10T14:07:08Z</time>
      </trkpt>
      <trkpt lat="43.75" lon="7.25852">
        <ele>480</ele>
        <time>2009-07-10T14:07:20Z</time>
      </trkpt>
      <trkpt lat="43.74998" lon="7.25852">
        <ele>480</ele>
        <time>2009-07-10T14:07:21Z</time>
      </trkpt>
      <trkpt lat="43.74975" lon="7.25853">
        <ele>480</ele>
        <time>2009-07-10T14:07:32Z</time>
      </trkpt>
      <trkpt lat="43.74965" lon="7.25843">
        <ele>478</ele>
        <time>2009-07-10T14:07:38Z</time>
      </trkpt>
      <trkpt lat="43.74932" lon="7.25835">
        <ele>478</ele>
        <time>2009-07-10T14:07:50Z</time>
      </trkpt>
      <trkpt lat="43.74903" lon="7.25842">
        <ele>479</ele>
        <time>2009-07-10T14:08:04Z</time>
      </trkpt>
      <trkpt lat="43.74875" lon="7.25842">
        <ele>478</ele>
        <time>2009-07-10T14:08:17Z</time>
      </trkpt>
      <trkpt lat="43.7485" lon="7.25843">
        <ele>478</ele>
        <time>2009-07-10T14:08:29Z</time>
      </trkpt>
      <trkpt lat="43.74827" lon="7.25842">
        <ele>478</ele>
        <time>2009-07-10T14:08:42Z</time>
      </trkpt>
      <trkpt lat="43.74802" lon="7.2584">
        <ele>477</ele>
        <time>2009-07-10T14:08:55Z</time>
      </trkpt>
      <trkpt lat="43.74773" lon="7.2585">
        <ele>475</ele>
        <time>2009-07-10T14:09:09Z</time>
      </trkpt>
      <trkpt lat="43.7477" lon="7.2585">
        <ele>475</ele>
        <time>2009-07-10T14:09:12Z</time>
      </trkpt>
      <trkpt lat="43.74747" lon="7.25863">
        <ele>474</ele>
        <time>2009-07-10T14:09:25Z</time>
      </trkpt>
      <trkpt lat="43.74745" lon="7.25863">
        <ele>474</ele>
        <time>2009-07-10T14:09:26Z</time>
      </trkpt>
      <trkpt lat="43.74723" lon="7.25873">
        <ele>471</ele>
        <time>2009-07-10T14:09:39Z</time>
      </trkpt>
      <trkpt lat="43.74722" lon="7.25873">
        <ele>470</ele>
        <time>2009-07-10T14:09:41Z</time>
      </trkpt>
      <trkpt lat="43.74717" lon="7.25877">
        <ele>469</ele>
        <time>2009-07-10T14:09:45Z</time>
      </trkpt>
      <trkpt lat="43.74708" lon="7.25882">
        <ele>468</ele>
        <time>2009-07-10T14:10:00Z</time>
      </trkpt>
      <trkpt lat="43.74707" lon="7.2589">
        <ele>466</ele>
        <time>2009-07-10T14:10:31Z</time>
      </trkpt>
      <trkpt lat="43.74703" lon="7.25892">
        <ele>465</ele>
        <time>2009-07-10T14:10:36Z</time>
      </trkpt>
      <trkpt lat="43.74688" lon="7.2589">
        <ele>463</ele>
        <time>2009-07-10T14:10:52Z</time>
      </trkpt>
      <trkpt lat="43.74683" lon="7.25893">
        <ele>460</ele>
        <time>2009-07-10T14:11:09Z</time>
      </trkpt>
      <trkpt lat="43.7468" lon="7.25883">
        <ele>457</ele>
        <time>2009-07-10T14:11:25Z</time>
      </trkpt>
      <trkpt lat="43.74682" lon="7.25883">
        <ele>457</ele>
        <time>2009-07-10T14:11:27Z</time>
      </trkpt>
      <trkpt lat="43.7468" lon="7.25867">
        <ele>455</ele>
        <time>2009-07-10T14:11:34Z</time>
      </trkpt>
      <trkpt lat="43.74655" lon="7.25848">
        <ele>454</ele>
        <time>2009-07-10T14:11:46Z</time>
      </trkpt>
      <trkpt lat="43.74653" lon="7.25843">
        <ele>454</ele>
        <time>2009-07-10T14:12:09Z</time>
      </trkpt>
      <trkpt lat="43.74653" lon="7.25845">
        <ele>453</ele>
        <time>2009-07-10T14:14:40Z</time>
      </trkpt>
      <trkpt lat="43.74625" lon="7.25862">
        <ele>452</ele>
        <time>2009-07-10T14:14:54Z</time>
      </trkpt>
      <trkpt lat="43.7462" lon="7.25867">
        <ele>452</ele>
        <time>2009-07-10T14:14:58Z</time>
      </trkpt>
      <trkpt lat="43.74608" lon="7.25873">
        <ele>451</ele>
        <time>2009-07-10T14:15:12Z</time>
      </trkpt>
      <trkpt lat="43.74603" lon="7.25875">
        <ele>451</ele>
        <time>2009-07-10T14:15:32Z</time>
      </trkpt>
      <trkpt lat="43.74593" lon="7.25873">
        <ele>448</ele>
        <time>2009-07-10T14:16:46Z</time>
      </trkpt>
      <trkpt lat="43.7458" lon="7.25872">
        <ele>445</ele>
        <time>2009-07-10T14:17:00Z</time>
      </trkpt>
      <trkpt lat="43.74577" lon="7.2587">
        <ele>444</ele>
        <time>2009-07-10T14:17:14Z</time>
      </trkpt>
      <trkpt lat="43.74578" lon="7.25867">
        <ele>444</ele>
        <time>2009-07-10T14:17:21Z</time>
      </trkpt>
      <trkpt lat="43.74577" lon="7.25858">
        <ele>443</ele>
        <time>2009-07-10T14:17:28Z</time>
      </trkpt>
      <trkpt lat="43.74577" lon="7.2585">
        <ele>442</ele>
        <time>2009-07-10T14:17:37Z</time>
      </trkpt>
      <trkpt lat="43.7457" lon="7.2584">
        <ele>438</ele>
        <time>2009-07-10T14:17:49Z</time>
      </trkpt>
      <trkpt lat="43.74568" lon="7.25837">
        <ele>437</ele>
        <time>2009-07-10T14:17:53Z</time>
      </trkpt>
      <trkpt lat="43.74568" lon="7.25832">
        <ele>436</ele>
        <time>2009-07-10T14:17:56Z</time>
      </trkpt>
      <trkpt lat="43.74567" lon="7.25827">
        <ele>435</ele>
        <time>2009-07-10T14:18:01Z</time>
      </trkpt>
      <trkpt lat="43.74565" lon="7.2582">
        <ele>433</ele>
        <time>2009-07-10T14:18:09Z</time>
      </trkpt>
      <trkpt lat="43.74563" lon="7.25807">
        <ele>430</ele>
        <time>2009-07-10T14:18:21Z</time>
      </trkpt>
      <trkpt lat="43.74565" lon="7.25793">
        <ele>427</ele>
        <time>2009-07-10T14:18:34Z</time>
      </trkpt>
      <trkpt lat="43.74562" lon="7.25787">
        <ele>426</ele>
        <time>2009-07-10T14:18:46Z</time>
      </trkpt>
      <trkpt lat="43.74558" lon="7.25778">
        <ele>423</ele>
        <time>2009-07-10T14:18:58Z</time>
      </trkpt>
      <trkpt lat="43.74557" lon="7.25772">
        <ele>422</ele>
        <time>2009-07-10T14:19:04Z</time>
      </trkpt>
      <trkpt lat="43.7455" lon="7.25758">
        <ele>418</ele>
        <time>2009-07-10T14:19:18Z</time>
      </trkpt>
      <trkpt lat="43.74545" lon="7.25742">
        <ele>415</ele>
        <time>2009-07-10T14:19:26Z</time>
      </trkpt>
      <trkpt lat="43.74545" lon="7.2574">
        <ele>415</ele>
        <time>2009-07-10T14:19:27Z</time>
      </trkpt>
      <trkpt lat="43.74537" lon="7.25725">
        <ele>412</ele>
        <time>2009-07-10T14:19:34Z</time>
      </trkpt>
      <trkpt lat="43.74535" lon="7.2572">
        <ele>411</ele>
        <time>2009-07-10T14:19:36Z</time>
      </trkpt>
      <trkpt lat="43.74528" lon="7.25717">
        <ele>409</ele>
        <time>2009-07-10T14:19:51Z</time>
      </trkpt>
      <trkpt lat="43.74525" lon="7.25717">
        <ele>408</ele>
        <time>2009-07-10T14:20:34Z</time>
      </trkpt>
      <trkpt lat="43.74522" lon="7.25715">
        <ele>408</ele>
        <time>2009-07-10T14:20:41Z</time>
      </trkpt>
      <trkpt lat="43.7452" lon="7.25712">
        <ele>407</ele>
        <time>2009-07-10T14:20:58Z</time>
      </trkpt>
      <trkpt lat="43.7452" lon="7.25712">
        <ele>406</ele>
        <time>2009-07-10T14:21:06Z</time>
      </trkpt>
      <trkpt lat="43.745" lon="7.25697">
        <ele>404</ele>
        <time>2009-07-10T14:21:18Z</time>
      </trkpt>
      <trkpt lat="43.745" lon="7.25697">
        <ele>403</ele>
        <time>2009-07-10T14:21:19Z</time>
      </trkpt>
      <trkpt lat="43.74495" lon="7.257">
        <ele>403</ele>
        <time>2009-07-10T14:21:23Z</time>
      </trkpt>
      <trkpt lat="43.74477" lon="7.2569">
        <ele>401</ele>
        <time>2009-07-10T14:21:34Z</time>
      </trkpt>
      <trkpt lat="43.74455" lon="7.25682">
        <ele>398</ele>
        <time>2009-07-10T14:21:48Z</time>
      </trkpt>
      <trkpt lat="43.74453" lon="7.25682">
        <ele>398</ele>
        <time>2009-07-10T14:21:50Z</time>
      </trkpt>
      <trkpt lat="43.74443" lon="7.25678">
        <ele>397</ele>
        <time>2009-07-10T14:21:56Z</time>
      </trkpt>
      <trkpt lat="43.74417" lon="7.25665">
        <ele>394</ele>
        <time>2009-07-10T14:22:06Z</time>
      </trkpt>
      <trkpt lat="43.74402" lon="7.2564">
        <ele>393</ele>
        <time>2009-07-10T14:22:14Z</time>
      </trkpt>
      <trkpt lat="43.744" lon="7.2564">
        <ele>393</ele>
        <time>2009-07-10T14:22:16Z</time>
      </trkpt>
      <trkpt lat="43.74373" lon="7.2565">
        <ele>390</ele>
        <time>2009-07-10T14:22:27Z</time>
      </trkpt>
      <trkpt lat="43.74348" lon="7.25643">
        <ele>389</ele>
        <time>2009-07-10T14:22:37Z</time>
      </trkpt>
      <trkpt lat="43.7433" lon="7.2563">
        <ele>388</ele>
        <time>2009-07-10T14:22:48Z</time>
      </trkpt>
      <trkpt lat="43.74328" lon="7.25627">
        <ele>388</ele>
        <time>2009-07-10T14:22:50Z</time>
      </trkpt>
      <trkpt lat="43.74315" lon="7.25623">
        <ele>387</ele>
        <time>2009-07-10T14:22:57Z</time>
      </trkpt>
      <trkpt lat="43.74293" lon="7.25612">
        <ele>386</ele>
        <time>2009-07-10T14:23:07Z</time>
      </trkpt>
      <trkpt lat="43.7428" lon="7.25625">
        <ele>385</ele>
        <time>2009-07-10T14:23:18Z</time>
      </trkpt>
      <trkpt lat="43.74268" lon="7.25633">
        <ele>384</ele>
        <time>2009-07-10T14:23:37Z</time>
      </trkpt>
      <trkpt lat="43.74262" lon="7.2564">
        <ele>384</ele>
        <time>2009-07-10T14:23:57Z</time>
      </trkpt>
      <trkpt lat="43.74238" lon="7.25658">
        <ele>382</ele>
        <time>2009-07-10T14:24:20Z</time>
      </trkpt>
      <trkpt lat="43.74223" lon="7.2567">
        <ele>380</ele>
        <time>2009-07-10T14:24:26Z</time>
      </trkpt>
      <trkpt lat="43.74207" lon="7.25708">
        <ele>376</ele>
        <time>2009-07-10T14:24:36Z</time>
      </trkpt>
      <trkpt lat="43.74198" lon="7.25732">
        <ele>374</ele>
        <time>2009-07-10T14:24:51Z</time>
      </trkpt>
      <trkpt lat="43.74193" lon="7.2574">
        <ele>372</ele>
        <time>2009-07-10T14:24:56Z</time>
      </trkpt>
      <trkpt lat="43.74188" lon="7.25748">
        <ele>370</ele>
        <time>2009-07-10T14:25:07Z</time>
      </trkpt>
      <trkpt lat="43.74197" lon="7.25777">
        <ele>368</ele>
        <time>2009-07-10T14:29:50Z</time>
      </trkpt>
      <trkpt lat="43.74208" lon="7.25798">
        <ele>366</ele>
        <time>2009-07-10T14:29:55Z</time>
      </trkpt>
      <trkpt lat="43.74215" lon="7.25805">
        <ele>366</ele>
        <time>2009-07-10T14:29:57Z</time>
      </trkpt>
      <trkpt lat="43.74242" lon="7.25838">
        <ele>364</ele>
        <time>2009-07-10T14:30:05Z</time>
      </trkpt>
      <trkpt lat="43.7425" lon="7.2585">
        <ele>362</ele>
        <time>2009-07-10T14:30:08Z</time>
      </trkpt>
      <trkpt lat="43.7427" lon="7.25863">
        <ele>358</ele>
        <time>2009-07-10T14:30:14Z</time>
      </trkpt>
      <trkpt lat="43.74275" lon="7.25865">
        <ele>357</ele>
        <time>2009-07-10T14:30:16Z</time>
      </trkpt>
      <trkpt lat="43.74292" lon="7.25887">
        <ele>354</ele>
        <time>2009-07-10T14:30:23Z</time>
      </trkpt>
      <trkpt lat="43.74287" lon="7.25913">
        <ele>352</ele>
        <time>2009-07-10T14:30:30Z</time>
      </trkpt>
      <trkpt lat="43.74285" lon="7.2593">
        <ele>351</ele>
        <time>2009-07-10T14:30:34Z</time>
      </trkpt>
      <trkpt lat="43.74295" lon="7.25972">
        <ele>348</ele>
        <time>2009-07-10T14:30:40Z</time>
      </trkpt>
      <trkpt lat="43.7431" lon="7.26017">
        <ele>347</ele>
        <time>2009-07-10T14:30:48Z</time>
      </trkpt>
      <trkpt lat="43.7434" lon="7.26128">
        <ele>344</ele>
        <time>2009-07-10T14:31:06Z</time>
      </trkpt>
      <trkpt lat="43.74352" lon="7.26162">
        <ele>341</ele>
        <time>2009-07-10T14:31:12Z</time>
      </trkpt>
      <trkpt lat="43.74363" lon="7.26193">
        <ele>338</ele>
        <time>2009-07-10T14:31:18Z</time>
      </trkpt>
      <trkpt lat="43.74373" lon="7.26223">
        <ele>335</ele>
        <time>2009-07-10T14:31:23Z</time>
      </trkpt>
      <trkpt lat="43.7438" lon="7.26255">
        <ele>332</ele>
        <time>2009-07-10T14:31:29Z</time>
      </trkpt>
      <trkpt lat="43.7438" lon="7.26262">
        <ele>331</ele>
        <time>2009-07-10T14:31:30Z</time>
      </trkpt>
      <trkpt lat="43.74372" lon="7.26292">
        <ele>329</ele>
        <time>2009-07-10T14:31:35Z</time>
      </trkpt>
      <trkpt lat="43.74363" lon="7.26312">
        <ele>327</ele>
        <time>2009-07-10T14:31:39Z</time>
      </trkpt>
      <trkpt lat="43.74353" lon="7.26332">
        <ele>324</ele>
        <time>2009-07-10T14:31:49Z</time>
      </trkpt>
      <trkpt lat="43.74352" lon="7.26333">
        <ele>324</ele>
        <time>2009-07-10T14:32:07Z</time>
      </trkpt>
      <trkpt lat="43.74343" lon="7.26335">
        <ele>323</ele>
        <time>2009-07-10T14:32:13Z</time>
      </trkpt>
      <trkpt lat="43.74337" lon="7.26343">
        <ele>322</ele>
        <time>2009-07-10T14:32:26Z</time>
      </trkpt>
      <trkpt lat="43.74327" lon="7.26347">
        <ele>321</ele>
        <time>2009-07-10T14:32:39Z</time>
      </trkpt>
      <trkpt lat="43.743" lon="7.26353">
        <ele>318</ele>
        <time>2009-07-10T14:32:46Z</time>
      </trkpt>
      <trkpt lat="43.74268" lon="7.26363">
        <ele>314</ele>
        <time>2009-07-10T14:32:52Z</time>
      </trkpt>
      <trkpt lat="43.74237" lon="7.26363">
        <ele>311</ele>
        <time>2009-07-10T14:32:57Z</time>
      </trkpt>
      <trkpt lat="43.74223" lon="7.26365">
        <ele>308</ele>
        <time>2009-07-10T14:32:59Z</time>
      </trkpt>
      <trkpt lat="43.74202" lon="7.26368">
        <ele>306</ele>
        <time>2009-07-10T14:33:02Z</time>
      </trkpt>
      <trkpt lat="43.74165" lon="7.26367">
        <ele>302</ele>
        <time>2009-07-10T14:33:07Z</time>
      </trkpt>
      <trkpt lat="43.74135" lon="7.26333">
        <ele>300</ele>
        <time>2009-07-10T14:33:11Z</time>
      </trkpt>
      <trkpt lat="43.74117" lon="7.26305">
        <ele>297</ele>
        <time>2009-07-10T14:33:14Z</time>
      </trkpt>
      <trkpt lat="43.74085" lon="7.26277">
        <ele>292</ele>
        <time>2009-07-10T14:33:19Z</time>
      </trkpt>
      <trkpt lat="43.74053" lon="7.26267">
        <ele>288</ele>
        <time>2009-07-10T14:33:23Z</time>
      </trkpt>
      <trkpt lat="43.7402" lon="7.26255">
        <ele>284</ele>
        <time>2009-07-10T14:33:27Z</time>
      </trkpt>
      <trkpt lat="43.74005" lon="7.2625">
        <ele>283</ele>
        <time>2009-07-10T14:33:29Z</time>
      </trkpt>
      <trkpt lat="43.7397" lon="7.2626">
        <ele>279</ele>
        <time>2009-07-10T14:33:34Z</time>
      </trkpt>
      <trkpt lat="43.73943" lon="7.2627">
        <ele>275</ele>
        <time>2009-07-10T14:33:38Z</time>
      </trkpt>
      <trkpt lat="43.73917" lon="7.26272">
        <ele>270</ele>
        <time>2009-07-10T14:33:42Z</time>
      </trkpt>
      <trkpt lat="43.73893" lon="7.26265">
        <ele>266</ele>
        <time>2009-07-10T14:33:45Z</time>
      </trkpt>
      <trkpt lat="43.73863" lon="7.26265">
        <ele>262</ele>
        <time>2009-07-10T14:33:49Z</time>
      </trkpt>
      <trkpt lat="43.73842" lon="7.2627">
        <ele>258</ele>
        <time>2009-07-10T14:33:52Z</time>
      </trkpt>
      <trkpt lat="43.73818" lon="7.26282">
        <ele>253</ele>
        <time>2009-07-10T14:33:56Z</time>
      </trkpt>
      <trkpt lat="43.73807" lon="7.26287">
        <ele>252</ele>
        <time>2009-07-10T14:33:58Z</time>
      </trkpt>
      <trkpt lat="43.73777" lon="7.2629">
        <ele>246</ele>
        <time>2009-07-10T14:34:02Z</time>
      </trkpt>
      <trkpt lat="43.7374" lon="7.26283">
        <ele>240</ele>
        <time>2009-07-10T14:34:06Z</time>
      </trkpt>
      <trkpt lat="43.73715" lon="7.2628">
        <ele>236</ele>
        <time>2009-07-10T14:34:09Z</time>
      </trkpt>
      <trkpt lat="43.73695" lon="7.26278">
        <ele>233</ele>
        <time>2009-07-10T14:34:12Z</time>
      </trkpt>
      <trkpt lat="43.73692" lon="7.26275">
        <ele>231</ele>
        <time>2009-07-10T14:34:20Z</time>
      </trkpt>
      <trkpt lat="43.73683" lon="7.26277">
        <ele>230</ele>
        <time>2009-07-10T14:34:41Z</time>
      </trkpt>
      <trkpt lat="43.7368" lon="7.26287">
        <ele>230</ele>
        <time>2009-07-10T14:34:43Z</time>
      </trkpt>
      <trkpt lat="43.73672" lon="7.26303">
        <ele>229</ele>
        <time>2009-07-10T14:34:46Z</time>
      </trkpt>
      <trkpt lat="43.7366" lon="7.26318">
        <ele>227</ele>
        <time>2009-07-10T14:34:49Z</time>
      </trkpt>
      <trkpt lat="43.73638" lon="7.26338">
        <ele>226</ele>
        <time>2009-07-10T14:34:53Z</time>
      </trkpt>
      <trkpt lat="43.73588" lon="7.26352">
        <ele>223</ele>
        <time>2009-07-10T14:34:59Z</time>
      </trkpt>
      <trkpt lat="43.73565" lon="7.26347">
        <ele>221</ele>
        <time>2009-07-10T14:35:02Z</time>
      </trkpt>
      <trkpt lat="43.7351" lon="7.26307">
        <ele>218</ele>
        <time>2009-07-10T14:35:09Z</time>
      </trkpt>
      <trkpt lat="43.73472" lon="7.26277">
        <ele>215</ele>
        <time>2009-07-10T14:35:14Z</time>
      </trkpt>
      <trkpt lat="43.73423" lon="7.26242">
        <ele>212</ele>
        <time>2009-07-10T14:35:20Z</time>
      </trkpt>
      <trkpt lat="43.73397" lon="7.26232">
        <ele>211</ele>
        <time>2009-07-10T14:35:23Z</time>
      </trkpt>
      <trkpt lat="43.73358" lon="7.26227">
        <ele>207</ele>
        <time>2009-07-10T14:35:27Z</time>
      </trkpt>
      <trkpt lat="43.73335" lon="7.26228">
        <ele>205</ele>
        <time>2009-07-10T14:35:30Z</time>
      </trkpt>
      <trkpt lat="43.73333" lon="7.26205">
        <ele>204</ele>
        <time>2009-07-10T14:35:35Z</time>
      </trkpt>
      <trkpt lat="43.7334" lon="7.26202">
        <ele>203</ele>
        <time>2009-07-10T14:35:36Z</time>
      </trkpt>
      <trkpt lat="43.73375" lon="7.26193">
        <ele>202</ele>
        <time>2009-07-10T14:35:41Z</time>
      </trkpt>
      <trkpt lat="43.73392" lon="7.26182">
        <ele>201</ele>
        <time>2009-07-10T14:35:49Z</time>
      </trkpt>
      <trkpt lat="43.73392" lon="7.26178">
        <ele>201</ele>
        <time>2009-07-10T14:35:50Z</time>
      </trkpt>
      <trkpt lat="43.7337" lon="7.26163">
        <ele>198</ele>
        <time>2009-07-10T14:36:04Z</time>
      </trkpt>
      <trkpt lat="43.73368" lon="7.26162">
        <ele>198</ele>
        <time>2009-07-10T14:36:05Z</time>
      </trkpt>
      <trkpt lat="43.73355" lon="7.26157">
        <ele>197</ele>
        <time>2009-07-10T14:36:12Z</time>
      </trkpt>
      <trkpt lat="43.73352" lon="7.26145">
        <ele>196</ele>
        <time>2009-07-10T14:36:27Z</time>
      </trkpt>
      <trkpt lat="43.73352" lon="7.26145">
        <ele>194</ele>
        <time>2009-07-10T14:39:34Z</time>
      </trkpt>
      <trkpt lat="43.73335" lon="7.26138">
        <ele>193</ele>
        <time>2009-07-10T14:39:39Z</time>
      </trkpt>
      <trkpt lat="43.73315" lon="7.2614">
        <ele>191</ele>
        <time>2009-07-10T14:39:43Z</time>
      </trkpt>
      <trkpt lat="43.73295" lon="7.26147">
        <ele>189</ele>
        <time>2009-07-10T14:39:47Z</time>
      </trkpt>
      <trkpt lat="43.73262" lon="7.26158">
        <ele>187</ele>
        <time>2009-07-10T14:39:52Z</time>
      </trkpt>
      <trkpt lat="43.73228" lon="7.26132">
        <ele>184</ele>
        <time>2009-07-10T14:39:57Z</time>
      </trkpt>
      <trkpt lat="43.7319" lon="7.261">
        <ele>179</ele>
        <time>2009-07-10T14:40:03Z</time>
      </trkpt>
      <trkpt lat="43.73165" lon="7.26115">
        <ele>177</ele>
        <time>2009-07-10T14:40:06Z</time>
      </trkpt>
      <trkpt lat="43.73147" lon="7.26122">
        <ele>175</ele>
        <time>2009-07-10T14:40:08Z</time>
      </trkpt>
      <trkpt lat="43.73108" lon="7.26123">
        <ele>173</ele>
        <time>2009-07-10T14:40:12Z</time>
      </trkpt>
      <trkpt lat="43.73088" lon="7.2612">
        <ele>172</ele>
        <time>2009-07-10T14:40:14Z</time>
      </trkpt>
      <trkpt lat="43.7304" lon="7.2612">
        <ele>168</ele>
        <time>2009-07-10T14:40:19Z</time>
      </trkpt>
      <trkpt lat="43.7302" lon="7.2612">
        <ele>166</ele>
        <time>2009-07-10T14:40:21Z</time>
      </trkpt>
      <trkpt lat="43.72967" lon="7.26092">
        <ele>162</ele>
        <time>2009-07-10T14:40:27Z</time>
      </trkpt>
      <trkpt lat="43.7293" lon="7.26073">
        <ele>158</ele>
        <time>2009-07-10T14:40:31Z</time>
      </trkpt>
      <trkpt lat="43.72882" lon="7.26077">
        <ele>154</ele>
        <time>2009-07-10T14:40:36Z</time>
      </trkpt>
      <trkpt lat="43.72847" lon="7.26078">
        <ele>151</ele>
        <time>2009-07-10T14:40:40Z</time>
      </trkpt>
      <trkpt lat="43.72835" lon="7.26077">
        <ele>150</ele>
        <time>2009-07-10T14:40:42Z</time>
      </trkpt>
      <trkpt lat="43.72825" lon="7.26075">
        <ele>148</ele>
        <time>2009-07-10T14:40:51Z</time>
      </trkpt>
      <trkpt lat="43.72817" lon="7.2608">
        <ele>147</ele>
        <time>2009-07-10T14:41:19Z</time>
      </trkpt>
      <trkpt lat="43.72807" lon="7.26093">
        <ele>145</ele>
        <time>2009-07-10T14:41:22Z</time>
      </trkpt>
      <trkpt lat="43.72792" lon="7.26122">
        <ele>141</ele>
        <time>2009-07-10T14:41:26Z</time>
      </trkpt>
      <trkpt lat="43.72785" lon="7.26132">
        <ele>139</ele>
        <time>2009-07-10T14:41:28Z</time>
      </trkpt>
      <trkpt lat="43.72763" lon="7.26138">
        <ele>134</ele>
        <time>2009-07-10T14:41:34Z</time>
      </trkpt>
      <trkpt lat="43.72733" lon="7.26122">
        <ele>131</ele>
        <time>2009-07-10T14:41:41Z</time>
      </trkpt>
      <trkpt lat="43.72737" lon="7.26067">
        <ele>128</ele>
        <time>2009-07-10T14:41:49Z</time>
      </trkpt>
      <trkpt lat="43.7274" lon="7.2606">
        <ele>128</ele>
        <time>2009-07-10T14:41:50Z</time>
      </trkpt>
      <trkpt lat="43.72755" lon="7.2602">
        <ele>126</ele>
        <time>2009-07-10T14:41:55Z</time>
      </trkpt>
      <trkpt lat="43.7275" lon="7.25983">
        <ele>124</ele>
        <time>2009-07-10T14:42:00Z</time>
      </trkpt>
      <trkpt lat="43.72728" lon="7.25985">
        <ele>122</ele>
        <time>2009-07-10T14:42:04Z</time>
      </trkpt>
      <trkpt lat="43.72707" lon="7.26017">
        <ele>120</ele>
        <time>2009-07-10T14:42:09Z</time>
      </trkpt>
      <trkpt lat="43.727" lon="7.26033">
        <ele>119</ele>
        <time>2009-07-10T14:42:11Z</time>
      </trkpt>
      <trkpt lat="43.7265" lon="7.26078">
        <ele>116</ele>
        <time>2009-07-10T14:42:18Z</time>
      </trkpt>
      <trkpt lat="43.72643" lon="7.26083">
        <ele>115</ele>
        <time>2009-07-10T14:42:19Z</time>
      </trkpt>
      <trkpt lat="43.7263" lon="7.26088">
        <ele>113</ele>
        <time>2009-07-10T14:42:21Z</time>
      </trkpt>
      <trkpt lat="43.72613" lon="7.26087">
        <ele>112</ele>
        <time>2009-07-10T14:42:23Z</time>
      </trkpt>
      <trkpt lat="43.72598" lon="7.26078">
        <ele>111</ele>
        <time>2009-07-10T14:42:25Z</time>
      </trkpt>
      <trkpt lat="43.72592" lon="7.26075">
        <ele>110</ele>
        <time>2009-07-10T14:42:26Z</time>
      </trkpt>
      <trkpt lat="43.72572" lon="7.26068">
        <ele>108</ele>
        <time>2009-07-10T14:42:29Z</time>
      </trkpt>
      <trkpt lat="43.72562" lon="7.26087">
        <ele>106</ele>
        <time>2009-07-10T14:42:32Z</time>
      </trkpt>
      <trkpt lat="43.72563" lon="7.26095">
        <ele>106</ele>
        <time>2009-07-10T14:42:33Z</time>
      </trkpt>
      <trkpt lat="43.72563" lon="7.2613">
        <ele>103</ele>
        <time>2009-07-10T14:42:37Z</time>
      </trkpt>
      <trkpt lat="43.72543" lon="7.26157">
        <ele>101</ele>
        <time>2009-07-10T14:42:42Z</time>
      </trkpt>
      <trkpt lat="43.72493" lon="7.26165">
        <ele>97</ele>
        <time>2009-07-10T14:42:49Z</time>
      </trkpt>
      <trkpt lat="43.72467" lon="7.26183">
        <ele>96</ele>
        <time>2009-07-10T14:42:52Z</time>
      </trkpt>
      <trkpt lat="43.72475" lon="7.2623">
        <ele>93</ele>
        <time>2009-07-10T14:42:57Z</time>
      </trkpt>
      <trkpt lat="43.72483" lon="7.26245">
        <ele>91</ele>
        <time>2009-07-10T14:42:59Z</time>
      </trkpt>
      <trkpt lat="43.72492" lon="7.26262">
        <ele>90</ele>
        <time>2009-07-10T14:43:02Z</time>
      </trkpt>
      <trkpt lat="43.72478" lon="7.26253">
        <ele>89</ele>
        <time>2009-07-10T14:43:08Z</time>
      </trkpt>
      <trkpt lat="43.72462" lon="7.2622">
        <ele>87</ele>
        <time>2009-07-10T14:43:13Z</time>
      </trkpt>
      <trkpt lat="43.72458" lon="7.26203">
        <ele>86</ele>
        <time>2009-07-10T14:43:15Z</time>
      </trkpt>
      <trkpt lat="43.72453" lon="7.26175">
        <ele>85</ele>
        <time>2009-07-10T14:43:19Z</time>
      </trkpt>
      <trkpt lat="43.7245" lon="7.26133">
        <ele>83</ele>
        <time>2009-07-10T14:43:23Z</time>
      </trkpt>
      <trkpt lat="43.7246" lon="7.26095">
        <ele>81</ele>
        <time>2009-07-10T14:43:27Z</time>
      </trkpt>
      <trkpt lat="43.72453" lon="7.2603">
        <ele>79</ele>
        <time>2009-07-10T14:43:33Z</time>
      </trkpt>
      <trkpt lat="43.72425" lon="7.2594">
        <ele>77</ele>
        <time>2009-07-10T14:43:45Z</time>
      </trkpt>
      <trkpt lat="43.7242" lon="7.25933">
        <ele>77</ele>
        <time>2009-07-10T14:43:47Z</time>
      </trkpt>
      <trkpt lat="43.72398" lon="7.25948">
        <ele>75</ele>
        <time>2009-07-10T14:43:54Z</time>
      </trkpt>
      <trkpt lat="43.72387" lon="7.25955">
        <ele>75</ele>
        <time>2009-07-10T14:43:56Z</time>
      </trkpt>
      <trkpt lat="43.72318" lon="7.26002">
        <ele>72</ele>
        <time>2009-07-10T14:44:10Z</time>
      </trkpt>
      <trkpt lat="43.72242" lon="7.26043">
        <ele>68</ele>
        <time>2009-07-10T14:44:23Z</time>
      </trkpt>
      <trkpt lat="43.72227" lon="7.26047">
        <ele>67</ele>
        <time>2009-07-10T14:44:26Z</time>
      </trkpt>
      <trkpt lat="43.72218" lon="7.2605">
        <ele>67</ele>
        <time>2009-07-10T14:44:28Z</time>
      </trkpt>
      <trkpt lat="43.72205" lon="7.26058">
        <ele>66</ele>
        <time>2009-07-10T14:44:31Z</time>
      </trkpt>
      <trkpt lat="43.72187" lon="7.26067">
        <ele>66</ele>
        <time>2009-07-10T14:44:35Z</time>
      </trkpt>
      <trkpt lat="43.7217" lon="7.2607">
        <ele>65</ele>
        <time>2009-07-10T14:44:39Z</time>
      </trkpt>
      <trkpt lat="43.72158" lon="7.26072">
        <ele>65</ele>
        <time>2009-07-10T14:44:42Z</time>
      </trkpt>
      <trkpt lat="43.72128" lon="7.26077">
        <ele>64</ele>
        <time>2009-07-10T14:44:47Z</time>
      </trkpt>
      <trkpt lat="43.72118" lon="7.26082">
        <ele>63</ele>
        <time>2009-07-10T14:44:49Z</time>
      </trkpt>
      <trkpt lat="43.7209" lon="7.26108">
        <ele>63</ele>
        <time>2009-07-10T14:44:56Z</time>
      </trkpt>
      <trkpt lat="43.72087" lon="7.26113">
        <ele>63</ele>
        <time>2009-07-10T14:44:57Z</time>
      </trkpt>
      <trkpt lat="43.7206" lon="7.26147">
        <ele>62</ele>
        <time>2009-07-10T14:45:04Z</time>
      </trkpt>
      <trkpt lat="43.72047" lon="7.26195">
        <ele>61</ele>
        <time>2009-07-10T14:45:11Z</time>
      </trkpt>
      <trkpt lat="43.72027" lon="7.2622">
        <ele>60</ele>
        <time>2009-07-10T14:45:17Z</time>
      </trkpt>
      <trkpt lat="43.71993" lon="7.26233">
        <ele>59</ele>
        <time>2009-07-10T14:45:24Z</time>
      </trkpt>
      <trkpt lat="43.71982" lon="7.26235">
        <ele>59</ele>
        <time>2009-07-10T14:45:26Z</time>
      </trkpt>
      <trkpt lat="43.71963" lon="7.26237">
        <ele>58</ele>
        <time>2009-07-10T14:45:29Z</time>
      </trkpt>
      <trkpt lat="43.71907" lon="7.262">
        <ele>56</ele>
        <time>2009-07-10T14:45:40Z</time>
      </trkpt>
      <trkpt lat="43.71853" lon="7.26157">
        <ele>54</ele>
        <time>2009-07-10T14:45:53Z</time>
      </trkpt>
      <trkpt lat="43.71847" lon="7.26157">
        <ele>53</ele>
        <time>2009-07-10T14:46:06Z</time>
      </trkpt>
      <trkpt lat="43.71847" lon="7.26155">
        <ele>53</ele>
        <time>2009-07-10T14:46:24Z</time>
      </trkpt>
      <trkpt lat="43.71832" lon="7.26152">
        <ele>53</ele>
        <time>2009-07-10T14:46:30Z</time>
      </trkpt>
      <trkpt lat="43.71793" lon="7.26147">
        <ele>52</ele>
        <time>2009-07-10T14:46:40Z</time>
      </trkpt>
      <trkpt lat="43.71735" lon="7.26133">
        <ele>50</ele>
        <time>2009-07-10T14:46:50Z</time>
      </trkpt>
      <trkpt lat="43.7169" lon="7.2614">
        <ele>49</ele>
        <time>2009-07-10T14:46:59Z</time>
      </trkpt>
      <trkpt lat="43.71663" lon="7.26138">
        <ele>48</ele>
        <time>2009-07-10T14:47:09Z</time>
      </trkpt>
      <trkpt lat="43.71663" lon="7.26135">
        <ele>48</ele>
        <time>2009-07-10T14:47:39Z</time>
      </trkpt>
      <trkpt lat="43.71652" lon="7.26138">
        <ele>48</ele>
        <time>2009-07-10T14:47:43Z</time>
      </trkpt>
      <trkpt lat="43.71597" lon="7.26143">
        <ele>47</ele>
        <time>2009-07-10T14:47:57Z</time>
      </trkpt>
      <trkpt lat="43.71587" lon="7.26142">
        <ele>47</ele>
        <time>2009-07-10T14:48:13Z</time>
      </trkpt>
      <trkpt lat="43.71565" lon="7.26132">
        <ele>46</ele>
        <time>2009-07-10T14:48:57Z</time>
      </trkpt>
      <trkpt lat="43.71525" lon="7.26133">
        <ele>46</ele>
        <time>2009-07-10T14:49:07Z</time>
      </trkpt>
      <trkpt lat="43.71515" lon="7.2614">
        <ele>45</ele>
        <time>2009-07-10T14:49:11Z</time>
      </trkpt>
      <trkpt lat="43.71507" lon="7.26148">
        <ele>45</ele>
        <time>2009-07-10T14:49:15Z</time>
      </trkpt>
      <trkpt lat="43.71488" lon="7.26157">
        <ele>45</ele>
        <time>2009-07-10T14:49:24Z</time>
      </trkpt>
      <trkpt lat="43.71455" lon="7.26167">
        <ele>43</ele>
        <time>2009-07-10T14:49:37Z</time>
      </trkpt>
      <trkpt lat="43.71423" lon="7.26165">
        <ele>42</ele>
        <time>2009-07-10T14:49:47Z</time>
      </trkpt>
      <trkpt lat="43.71385" lon="7.26175">
        <ele>41</ele>
        <time>2009-07-10T14:50:03Z</time>
      </trkpt>
      <trkpt lat="43.7135" lon="7.26185">
        <ele>41</ele>
        <time>2009-07-10T14:50:12Z</time>
      </trkpt>
      <trkpt lat="43.71327" lon="7.26178">
        <ele>40</ele>
        <time>2009-07-10T14:50:19Z</time>
      </trkpt>
      <trkpt lat="43.7131" lon="7.26168">
        <ele>41</ele>
        <time>2009-07-10T14:50:33Z</time>
      </trkpt>
      <trkpt lat="43.71302" lon="7.26172">
        <ele>41</ele>
        <time>2009-07-10T14:50:37Z</time>
      </trkpt>
      <trkpt lat="43.7127" lon="7.26188">
        <ele>39</ele>
        <time>2009-07-10T14:50:48Z</time>
      </trkpt>
      <trkpt lat="43.71267" lon="7.26197">
        <ele>39</ele>
        <time>2009-07-10T14:50:53Z</time>
      </trkpt>
      <trkpt lat="43.71243" lon="7.26185">
        <ele>39</ele>
        <time>2009-07-10T14:50:59Z</time>
      </trkpt>
      <trkpt lat="43.71233" lon="7.26182">
        <ele>38</ele>
        <time>2009-07-10T14:51:03Z</time>
      </trkpt>
      <trkpt lat="43.71232" lon="7.26183">
        <ele>38</ele>
        <time>2009-07-10T14:51:07Z</time>
      </trkpt>
      <trkpt lat="43.71227" lon="7.26187">
        <ele>38</ele>
        <time>2009-07-10T14:51:16Z</time>
      </trkpt>
      <trkpt lat="43.71188" lon="7.26158">
        <ele>37</ele>
        <time>2009-07-10T14:51:27Z</time>
      </trkpt>
      <trkpt lat="43.71175" lon="7.26157">
        <ele>36</ele>
        <time>2009-07-10T14:51:45Z</time>
      </trkpt>
      <trkpt lat="43.7116" lon="7.26142">
        <ele>36</ele>
        <time>2009-07-10T14:51:53Z</time>
      </trkpt>
      <trkpt lat="43.71118" lon="7.26157">
        <ele>35</ele>
        <time>2009-07-10T14:52:02Z</time>
      </trkpt>
      <trkpt lat="43.71115" lon="7.2616">
        <ele>35</ele>
        <time>2009-07-10T14:52:11Z</time>
      </trkpt>
      <trkpt lat="43.71105" lon="7.26162">
        <ele>35</ele>
        <time>2009-07-10T14:52:18Z</time>
      </trkpt>
      <trkpt lat="43.71095" lon="7.26175">
        <ele>35</ele>
        <time>2009-07-10T14:52:26Z</time>
      </trkpt>
      <trkpt lat="43.71068" lon="7.26168">
        <ele>34</ele>
        <time>2009-07-10T14:52:30Z</time>
      </trkpt>
      <trkpt lat="43.7102" lon="7.26188">
        <ele>33</ele>
        <time>2009-07-10T14:52:37Z</time>
      </trkpt>
      <trkpt lat="43.70958" lon="7.26225">
        <ele>32</ele>
        <time>2009-07-10T14:52:51Z</time>
      </trkpt>
      <trkpt lat="43.7094" lon="7.26238">
        <ele>31</ele>
        <time>2009-07-10T14:52:55Z</time>
      </trkpt>
      <trkpt lat="43.70923" lon="7.2624">
        <ele>31</ele>
        <time>2009-07-10T14:52:59Z</time>
      </trkpt>
      <trkpt lat="43.70898" lon="7.26265">
        <ele>30</ele>
        <time>2009-07-10T14:53:10Z</time>
      </trkpt>
      <trkpt lat="43.70883" lon="7.26275">
        <ele>29</ele>
        <time>2009-07-10T14:53:23Z</time>
      </trkpt>
      <trkpt lat="43.70872" lon="7.2628">
        <ele>29</ele>
        <time>2009-07-10T14:54:08Z</time>
      </trkpt>
      <trkpt lat="43.7085" lon="7.26292">
        <ele>29</ele>
        <time>2009-07-10T14:54:27Z</time>
      </trkpt>
      <trkpt lat="43.70847" lon="7.26292">
        <ele>29</ele>
        <time>2009-07-10T14:54:29Z</time>
      </trkpt>
      <trkpt lat="43.70827" lon="7.26308">
        <ele>28</ele>
        <time>2009-07-10T14:54:37Z</time>
      </trkpt>
      <trkpt lat="43.70805" lon="7.26312">
        <ele>28</ele>
        <time>2009-07-10T14:54:45Z</time>
      </trkpt>
      <trkpt lat="43.70775" lon="7.2635">
        <ele>27</ele>
        <time>2009-07-10T14:54:57Z</time>
      </trkpt>
      <trkpt lat="43.7077" lon="7.26353">
        <ele>27</ele>
        <time>2009-07-10T14:54:59Z</time>
      </trkpt>
      <trkpt lat="43.70757" lon="7.26357">
        <ele>27</ele>
        <time>2009-07-10T14:55:04Z</time>
      </trkpt>
      <trkpt lat="43.7073" lon="7.26385">
        <ele>26</ele>
        <time>2009-07-10T14:55:15Z</time>
      </trkpt>
      <trkpt lat="43.70678" lon="7.26408">
        <ele>25</ele>
        <time>2009-07-10T14:55:27Z</time>
      </trkpt>
      <trkpt lat="43.70663" lon="7.26412">
        <ele>25</ele>
        <time>2009-07-10T14:55:30Z</time>
      </trkpt>
      <trkpt lat="43.70637" lon="7.26435">
        <ele>23</ele>
        <time>2009-07-10T14:55:39Z</time>
      </trkpt>
      <trkpt lat="43.70592" lon="7.26463">
        <ele>23</ele>
        <time>2009-07-10T14:55:49Z</time>
      </trkpt>
      <trkpt lat="43.70543" lon="7.26482">
        <ele>23</ele>
        <time>2009-07-10T14:55:59Z</time>
      </trkpt>
      <trkpt lat="43.7053" lon="7.26505">
        <ele>22</ele>
        <time>2009-07-10T14:56:09Z</time>
      </trkpt>
      <trkpt lat="43.70525" lon="7.26512">
        <ele>22</ele>
        <time>2009-07-10T14:56:13Z</time>
      </trkpt>
      <trkpt lat="43.70495" lon="7.26533">
        <ele>22</ele>
        <time>2009-07-10T14:56:25Z</time>
      </trkpt>
      <trkpt lat="43.70488" lon="7.26538">
        <ele>21</ele>
        <time>2009-07-10T14:56:28Z</time>
      </trkpt>
      <trkpt lat="43.70457" lon="7.2656">
        <ele>21</ele>
        <time>2009-07-10T14:56:42Z</time>
      </trkpt>
      <trkpt lat="43.70452" lon="7.26563">
        <ele>22</ele>
        <time>2009-07-10T14:56:48Z</time>
      </trkpt>
      <trkpt lat="43.7044" lon="7.26568">
        <ele>21</ele>
        <time>2009-07-10T14:56:52Z</time>
      </trkpt>
      <trkpt lat="43.70403" lon="7.26587">
        <ele>21</ele>
        <time>2009-07-10T14:57:02Z</time>
      </trkpt>
      <trkpt lat="43.70398" lon="7.26588">
        <ele>21</ele>
        <time>2009-07-10T14:57:03Z</time>
      </trkpt>
      <trkpt lat="43.70375" lon="7.26607">
        <ele>20</ele>
        <time>2009-07-10T14:57:11Z</time>
      </trkpt>
      <trkpt lat="43.70365" lon="7.26618">
        <ele>20</ele>
        <time>2009-07-10T14:57:13Z</time>
      </trkpt>
      <trkpt lat="43.70343" lon="7.26618">
        <ele>20</ele>
        <time>2009-07-10T14:57:18Z</time>
      </trkpt>
      <trkpt lat="43.70325" lon="7.26638">
        <ele>20</ele>
        <time>2009-07-10T14:57:25Z</time>
      </trkpt>
      <trkpt lat="43.70292" lon="7.26657">
        <ele>20</ele>
        <time>2009-07-10T14:57:37Z</time>
      </trkpt>
      <trkpt lat="43.70272" lon="7.26662">
        <ele>20</ele>
        <time>2009-07-10T14:58:05Z</time>
      </trkpt>
      <trkpt lat="43.70262" lon="7.2667">
        <ele>19</ele>
        <time>2009-07-10T14:58:09Z</time>
      </trkpt>
      <trkpt lat="43.7026" lon="7.26667">
        <ele>19</ele>
        <time>2009-07-10T14:58:12Z</time>
      </trkpt>
      <trkpt lat="43.70247" lon="7.26675">
        <ele>19</ele>
        <time>2009-07-10T14:58:19Z</time>
      </trkpt>
      <trkpt lat="43.70198" lon="7.26697">
        <ele>19</ele>
        <time>2009-07-10T14:58:31Z</time>
      </trkpt>
      <trkpt lat="43.70175" lon="7.2672">
        <ele>19</ele>
        <time>2009-07-10T14:58:41Z</time>
      </trkpt>
      <trkpt lat="43.70163" lon="7.26745">
        <ele>19</ele>
        <time>2009-07-10T14:58:48Z</time>
      </trkpt>
      <trkpt lat="43.70118" lon="7.26783">
        <ele>19</ele>
        <time>2009-07-10T14:58:58Z</time>
      </trkpt>
      <trkpt lat="43.70077" lon="7.2679">
        <ele>18</ele>
        <time>2009-07-10T14:59:07Z</time>
      </trkpt>
      <trkpt lat="43.70047" lon="7.26805">
        <ele>18</ele>
        <time>2009-07-10T14:59:41Z</time>
      </trkpt>
      <trkpt lat="43.70023" lon="7.26825">
        <ele>19</ele>
        <time>2009-07-10T14:59:50Z</time>
      </trkpt>
      <trkpt lat="43.69998" lon="7.26833">
        <ele>18</ele>
        <time>2009-07-10T15:00:00Z</time>
      </trkpt>
      <trkpt lat="43.69975" lon="7.26853">
        <ele>19</ele>
        <time>2009-07-10T15:00:19Z</time>
      </trkpt>
      <trkpt lat="43.69975" lon="7.26853">
        <ele>19</ele>
        <time>2009-07-10T15:00:22Z</time>
      </trkpt>
      <trkpt lat="43.6994" lon="7.26873">
        <ele>19</ele>
        <time>2009-07-10T15:00:33Z</time>
      </trkpt>
      <trkpt lat="43.69895" lon="7.269">
        <ele>19</ele>
        <time>2009-07-10T15:00:43Z</time>
      </trkpt>
      <trkpt lat="43.69872" lon="7.26908">
        <ele>19</ele>
        <time>2009-07-10T15:00:53Z</time>
      </trkpt>
      <trkpt lat="43.6987" lon="7.26908">
        <ele>19</ele>
        <time>2009-07-10T15:00:54Z</time>
      </trkpt>
      <trkpt lat="43.69867" lon="7.2691">
        <ele>19</ele>
        <time>2009-07-10T15:01:07Z</time>
      </trkpt>
      <trkpt lat="43.69867" lon="7.26913">
        <ele>19</ele>
        <time>2009-07-10T15:01:09Z</time>
      </trkpt>
      <trkpt lat="43.69863" lon="7.26918">
        <ele>19</ele>
        <time>2009-07-10T15:01:13Z</time>
      </trkpt>
      <trkpt lat="43.6984" lon="7.26938">
        <ele>20</ele>
        <time>2009-07-10T15:01:25Z</time>
      </trkpt>
      <trkpt lat="43.6977" lon="7.2697">
        <ele>21</ele>
        <time>2009-07-10T15:01:37Z</time>
      </trkpt>
      <trkpt lat="43.6975" lon="7.26987">
        <ele>21</ele>
        <time>2009-07-10T15:01:49Z</time>
      </trkpt>
      <trkpt lat="43.6972" lon="7.27008">
        <ele>21</ele>
        <time>2009-07-10T15:02:03Z</time>
      </trkpt>
      <trkpt lat="43.69688" lon="7.27027">
        <ele>21</ele>
        <time>2009-07-10T15:02:19Z</time>
      </trkpt>
      <trkpt lat="43.69663" lon="7.2703">
        <ele>21</ele>
        <time>2009-07-10T15:02:32Z</time>
      </trkpt>
      <trkpt lat="43.69643" lon="7.2703">
        <ele>20</ele>
        <time>2009-07-10T15:02:44Z</time>
      </trkpt>
      <trkpt lat="43.6962" lon="7.2702">
        <ele>19</ele>
        <time>2009-07-10T15:02:55Z</time>
      </trkpt>
      <trkpt lat="43.69597" lon="7.26992">
        <ele>18</ele>
        <time>2009-07-10T15:03:06Z</time>
      </trkpt>
      <trkpt lat="43.69595" lon="7.26988">
        <ele>18</ele>
        <time>2009-07-10T15:03:07Z</time>
      </trkpt>
      <trkpt lat="43.69573" lon="7.26978">
        <ele>17</ele>
        <time>2009-07-10T15:03:13Z</time>
      </trkpt>
      <trkpt lat="43.69547" lon="7.26977">
        <ele>18</ele>
        <time>2009-07-10T15:03:21Z</time>
      </trkpt>
      <trkpt lat="43.69527" lon="7.26982">
        <ele>18</ele>
        <time>2009-07-10T15:03:30Z</time>
      </trkpt>
      <trkpt lat="43.69518" lon="7.26977">
        <ele>17</ele>
        <time>2009-07-10T15:03:34Z</time>
      </trkpt>
      <trkpt lat="43.69518" lon="7.26945">
        <ele>17</ele>
        <time>2009-07-10T15:03:41Z</time>
      </trkpt>
      <trkpt lat="43.69503" lon="7.26925">
        <ele>17</ele>
        <time>2009-07-10T15:03:55Z</time>
      </trkpt>
      <trkpt lat="43.69503" lon="7.26925">
        <ele>16</ele>
        <time>2009-07-10T15:04:31Z</time>
      </trkpt>
      <trkpt lat="43.69502" lon="7.26923">
        <ele>16</ele>
        <time>2009-07-10T15:04:42Z</time>
      </trkpt>
      <trkpt lat="43.69493" lon="7.2691">
        <ele>16</ele>
        <time>2009-07-10T15:04:49Z</time>
      </trkpt>
      <trkpt lat="43.69492" lon="7.26883">
        <ele>16</ele>
        <time>2009-07-10T15:05:01Z</time>
      </trkpt>
      <trkpt lat="43.69485" lon="7.2685">
        <ele>16</ele>
        <time>2009-07-10T15:05:16Z</time>
      </trkpt>
      <trkpt lat="43.69478" lon="7.26822">
        <ele>16</ele>
        <time>2009-07-10T15:05:30Z</time>
      </trkpt>
      <trkpt lat="43.69478" lon="7.26798">
        <ele>16</ele>
        <time>2009-07-10T15:05:43Z</time>
      </trkpt>
      <trkpt lat="43.6948" lon="7.26758">
        <ele>15</ele>
        <time>2009-07-10T15:05:57Z</time>
      </trkpt>
      <trkpt lat="43.69475" lon="7.26695">
        <ele>15</ele>
        <time>2009-07-10T15:06:13Z</time>
      </trkpt>
      <trkpt lat="43.69473" lon="7.26682">
        <ele>14</ele>
        <time>2009-07-10T15:06:18Z</time>
      </trkpt>
      <trkpt lat="43.69473" lon="7.26677">
        <ele>14</ele>
        <time>2009-07-10T15:06:20Z</time>
      </trkpt>
      <trkpt lat="43.6947" lon="7.26655">
        <ele>14</ele>
        <time>2009-07-10T15:06:33Z</time>
      </trkpt>
      <trkpt lat="43.6947" lon="7.2667">
        <ele>14</ele>
        <time>2009-07-10T15:06:40Z</time>
      </trkpt>
      <trkpt lat="43.6947" lon="7.26688">
        <ele>13</ele>
        <time>2009-07-10T15:06:51Z</time>
      </trkpt>
    </trkseg>
  </trk>
</gpx>